GFSNW_sfc_thetae_000.txt.gz
Theta_e
312 313 313 312 310 308 309 311 302 321 322 309 310 309 312 309 312 314 312 313 312 311 310 309 310 309 313 315 315 310 314 312 308 309 315 317 316 313 313 307 307 308 306 305
313 313 312 311 309 309 309 308 308 323 320 306 310 314 312 313 311 311 311 311 313 313 312 309 311 312 315 315 315 314 315 309 305 307 312 314 312 315 315 314 313 308 304 307
312 312 312 311 310 308 309 311 306 315 317 317 312 311 310 309 311 311 311 312 314 313 312 315 312 313 316 318 317 321 318 312 309 304 308 312 310 312 314 313 308 309 309 311
312 312 312 311 310 308 310 314 310 310 309 311 311 310 310 309 308 312 313 312 311 312 311 312 311 315 316 318 317 318 317 311 313 312 312 312 311 312 312 312 312 309 310 311
312 312 312 311 310 308 311 307 307 313 314 309 308 304 309 306 308 310 309 310 312 314 312 314 311 314 316 315 319 319 320 313 315 310 312 311 309 312 313 313 313 313 312 311
312 312 313 312 311 308 309 310 312 308 302 308 308 308 308 307 310 311 312 313 314 312 314 316 318 318 319 318 318 318 318 315 314 307 312 311 307 312 313 314 315 314 309 314
311 312 312 312 311 309 308 308 308 305 302 308 305 305 305 306 307 309 311 314 315 315 320 319 317 317 317 317 318 319 319 318 315 308 312 301 312 318 317 314 315 316 315 316
310 311 312 312 312 311 309 309 308 306 302 302 301 301 303 305 308 308 309 313 317 319 317 314 312 311 313 314 316 317 320 318 311 307 307 310 311 313 313 312 313 318 316 316
308 310 311 311 311 311 310 307 309 308 302 301 303 301 302 303 305 306 309 316 316 319 315 312 308 303 308 308 312 317 317 320 312 309 303 301 312 317 320 319 308 317 317 316
307 309 310 311 311 311 309 308 308 307 302 306 306 303 301 305 305 303 309 307 314 318 312 308 307 306 311 306 307 310 311 313 308 307 306 308 317 317 319 306 310 319 318 318
307 307 309 311 311 310 309 309 310 303 301 303 303 304 303 305 305 301 306 306 312 312 308 308 308 308 311 309 312 311 311 309 307 309 306 303 319 316 311 321 323 321 322 322
307 307 309 310 310 310 309 306 310 309 303 303 307 307 308 307 306 304 305 304 309 308 307 312 311 308 312 310 305 313 308 313 311 312 312 321 320 320 322 323 323 325 326 327
306 307 308 309 310 310 308 306 308 307 304 304 303 304 308 312 309 308 303 307 309 309 310 308 310 309 314 306 307 310 312 315 311 312 317 316 317 320 322 324 324 326 326 326
306 307 307 309 310 310 309 307 309 306 303 298 300 307 304 308 310 308 309 308 310 310 310 310 309 307 310 312 311 310 313 314 311 313 316 316 318 320 320 321 323 323 325 326
306 307 307 309 310 309 308 310 311 310 302 298 300 305 306 308 308 308 309 308 307 307 306 307 308 311 310 313 310 309 315 312 310 308 313 314 315 316 319 319 321 322 324 325
306 307 307 308 309 307 306 301 308 312 308 301 298 304 304 308 309 307 306 307 306 307 305 306 308 308 306 304 304 311 313 313 314 313 313 314 315 316 319 318 320 321 323 323
306 306 307 308 309 308 303 301 306 308 309 301 298 299 305 306 307 307 307 307 305 304 306 303 303 305 305 301 299 306 307 312 314 313 311 309 312 311 314 315 318 321 322 323
306 306 307 308 309 307 304 308 307 308 304 303 297 298 300 305 304 304 310 304 304 303 302 305 301 304 303 298 304 306 307 308 308 309 310 310 312 312 312 314 316 317 319 322
306 306 307 308 305 303 305 307 306 310 304 298 299 296 295 304 304 304 304 308 300 305 300 301 303 300 298 302 304 306 307 307 308 310 311 312 311 312 313 313 313 314 316 320
306 307 303 299 304 305 308 306 302 302 302 302 297 301 295 299 303 299 300 301 302 300 304 308 300 299 306 307 308 309 310 312 312 309 310 311 312 313 314 313 313 315 317 319
305 299 299 305 306 305 303 295 296 298 294 299 300 299 298 304 298 300 303 300 303 296 302 301 300 300 305 310 311 315 314 315 315 314 315 316 316 315 315 315 314 316 317 318
304 306 308 309 303 299 292 293 296 293 294 298 298 300 303 303 306 302 304 298 301 293 304 300 296 304 311 311 312 312 313 313 312 312 312 314 317 319 318 316 316 319 323 325
305 302 298 298 293 286 285 285 289 292 296 299 300 297 303 303 304 303 302 294 295 303 297 295 300 310 311 311 311 311 312 311 312 312 314 315 317 318 317 318 322 324 322 321
296 291 286 289 286 289 292 294 296 298 301 300 301 300 301 305 300 302 294 300 299 292 291 293 302 310 310 311 311 311 311 312 313 315 317 318 316 317 321 323 322 320 319 320
292 292 287 290 297 299 300 300 299 302 304 302 300 302 302 300 297 300 297 293 290 294 295 300 305 307 308 308 309 311 311 312 315 318 318 318 320 320 320 320 320 320 318 319
294 293 291 297 295 295 296 298 298 302 304 307 305 299 295 294 298 293 292 291 290 297 299 299 301 302 305 303 306 311 312 312 313 316 318 319 319 318 319 318 320 320 318 318
291 293 298 297 297 297 297 300 300 305 303 298 300 292 291 298 294 292 298 294 297 298 299 301 303 303 307 309 308 310 312 315 317 318 318 319 321 321 320 318 320 319 320 320

GFSNW_sfc_thetae_003.txt.gz
Theta_e
313 313 313 312 310 308 310 312 305 324 327 309 311 308 311 309 315 317 315 316 315 312 312 311 310 310 314 318 318 313 316 313 309 311 316 317 316 313 313 307 308 309 308 307
313 313 312 311 310 309 310 310 311 322 322 305 308 312 311 314 314 314 314 313 316 317 312 310 311 313 317 317 316 315 316 310 306 308 313 315 312 314 315 314 313 310 306 308
313 313 312 311 310 309 309 311 307 310 317 315 313 312 310 312 316 314 315 314 317 315 313 315 312 312 315 317 317 325 319 312 309 304 309 314 310 311 314 313 309 310 310 312
312 313 312 311 310 309 309 314 311 316 309 310 313 316 314 311 311 314 316 314 314 315 312 313 312 314 316 317 316 318 316 311 312 312 312 313 312 311 312 312 313 309 312 311
312 313 313 312 310 308 312 307 308 314 313 314 313 308 312 311 312 312 312 312 314 315 315 315 313 315 316 315 319 317 319 311 314 310 313 312 310 312 313 313 313 313 313 313
310 312 313 312 311 309 309 311 313 310 308 311 310 310 312 312 313 314 315 315 315 314 317 320 321 321 322 321 320 318 318 314 312 308 312 312 307 311 312 314 316 315 311 316
309 310 312 313 312 310 311 309 309 308 305 308 310 310 310 310 311 312 314 315 316 319 323 324 321 320 319 319 319 322 319 319 315 309 311 302 312 317 317 314 316 318 318 319
308 309 311 312 312 311 310 312 305 307 304 305 305 305 307 309 312 311 312 315 320 321 320 315 312 312 313 314 317 318 319 319 312 307 306 311 313 316 315 314 314 319 318 320
307 308 310 311 312 311 311 314 310 306 304 304 305 304 305 307 309 311 312 317 318 321 317 312 307 304 309 308 311 318 318 320 313 311 304 301 312 317 320 320 310 320 321 320
307 308 309 311 312 311 310 313 312 306 302 308 306 305 305 308 308 308 311 311 314 318 312 308 307 306 312 305 307 311 312 312 308 307 306 309 317 320 322 309 313 322 321 320
307 307 308 310 311 311 310 311 313 306 302 304 306 306 305 308 306 305 309 308 312 312 309 308 308 307 308 309 312 312 311 309 307 308 306 303 320 319 313 323 324 324 323 323
307 307 307 309 310 311 309 309 313 312 305 305 309 308 308 307 310 307 308 310 313 313 311 313 313 310 312 312 306 318 310 316 313 314 310 325 324 323 325 325 324 323 324 324
307 307 307 308 310 311 309 308 311 309 306 306 305 307 311 314 310 310 304 309 314 314 315 312 313 311 315 309 310 312 316 318 314 316 319 320 319 323 324 325 324 325 326 326
307 307 307 308 310 311 310 308 311 309 306 300 304 309 307 310 310 310 310 311 312 314 314 312 312 309 315 311 313 313 315 317 314 315 319 319 321 321 321 323 325 325 327 328
307 307 307 308 309 310 310 310 312 312 305 302 303 307 309 309 311 309 310 309 309 308 307 309 308 313 312 313 313 311 316 314 311 312 317 317 319 319 321 321 323 325 326 328
307 307 307 308 309 310 308 303 311 314 311 304 301 308 307 310 310 308 309 311 309 308 307 306 310 311 310 305 306 312 315 317 317 315 315 315 317 318 318 318 319 323 325 326
307 306 307 308 309 309 303 302 306 308 310 304 300 301 307 309 310 309 308 308 307 306 307 304 305 307 307 303 300 309 312 313 314 317 315 312 314 313 316 317 318 320 323 326
307 306 307 308 309 308 304 309 308 307 306 305 300 300 302 308 306 306 312 306 306 305 305 308 304 306 305 300 304 307 309 310 309 310 311 312 313 314 315 316 316 316 318 321
307 306 307 309 306 304 306 308 307 310 306 301 301 297 298 306 307 308 307 309 302 308 302 302 304 302 300 304 306 307 309 308 309 312 313 313 312 313 315 316 315 313 314 318
307 306 303 300 304 309 308 307 304 304 304 303 298 304 299 302 304 302 304 304 303 301 304 310 303 301 307 308 310 312 312 312 314 311 312 314 314 314 315 315 316 317 316 316
304 302 301 309 306 306 301 297 297 300 297 301 301 302 300 305 300 302 305 302 305 297 302 303 301 301 307 312 313 315 316 316 316 316 315 315 313 313 314 315 317 317 318 317
305 308 310 309 305 299 293 295 298 296 296 300 299 301 303 305 308 302 305 300 303 294 306 302 298 308 314 314 314 314 315 314 312 313 312 313 313 313 313 316 319 319 319 321
311 305 300 300 299 288 288 287 293 295 299 302 303 300 304 304 305 305 303 296 297 305 299 298 301 313 313 312 313 313 314 314 313 313 313 313 314 314 314 317 320 321 321 324
300 293 288 292 289 292 294 296 298 301 304 303 301 302 302 303 301 305 295 302 302 295 293 296 305 306 308 308 311 312 311 311 312 312 313 313 314 315 317 319 321 323 322 322
294 294 289 292 297 298 301 301 301 302 305 301 299 301 302 300 299 302 299 295 293 296 298 303 305 308 309 309 310 310 312 312 313 314 314 315 316 318 321 323 323 322 322 323
299 295 293 297 295 296 298 300 298 304 302 303 302 298 297 295 297 293 293 294 294 298 301 305 306 306 305 309 309 312 313 314 315 316 318 319 317 318 319 321 322 321 322 321
293 295 299 299 299 298 299 300 300 307 305 300 302 294 294 301 293 292 299 297 300 301 302 305 305 304 307 311 311 311 311 312 318 318 317 319 321 321 321 319 320 321 321 321

GFSNW_sfc_thetae_006.txt.gz
Theta_e
313 313 313 312 311 309 309 309 304 320 323 310 308 303 308 308 311 316 316 315 314 312 313 309 309 309 312 316 316 312 316 313 308 310 316 317 315 313 313 307 308 310 309 306
313 313 313 312 310 309 307 306 309 319 321 304 305 309 309 311 310 313 314 312 314 316 314 309 311 311 316 318 316 315 316 311 306 308 312 315 311 313 313 313 312 311 305 308
312 312 312 311 310 310 308 306 304 310 315 313 308 307 308 308 313 313 316 314 315 313 313 315 311 311 315 318 317 327 319 312 311 303 309 313 310 311 312 311 308 308 309 313
311 312 312 311 311 309 308 310 306 313 307 308 309 310 311 310 308 314 316 313 313 313 311 312 311 313 313 316 319 317 316 314 311 311 311 311 311 311 311 310 312 308 311 313
310 311 311 312 311 309 310 307 303 309 307 312 314 307 310 311 311 312 311 311 313 314 312 316 315 316 317 314 316 315 316 312 312 308 311 311 309 311 312 312 311 311 312 314
309 310 311 312 311 309 309 311 307 306 306 309 309 311 312 312 315 314 315 314 314 312 314 320 321 320 320 320 319 316 317 312 312 306 310 310 306 310 311 312 314 313 311 318
308 308 309 311 312 311 308 311 306 303 302 306 308 310 312 312 314 312 315 316 314 320 322 323 322 320 319 320 319 320 319 319 314 307 312 301 311 317 315 313 315 316 317 319
307 308 309 310 312 311 308 311 307 302 299 307 307 309 310 313 314 313 313 317 320 321 318 314 312 312 313 315 318 318 313 318 311 308 305 309 312 315 315 313 315 320 318 320
307 308 308 309 311 312 310 310 313 305 300 304 306 304 307 306 309 311 313 318 321 317 313 310 307 303 308 308 311 319 317 319 314 311 304 301 314 318 321 319 309 320 320 320
307 308 308 309 310 311 310 309 315 307 300 307 305 303 303 309 309 308 313 314 313 316 310 306 305 304 311 306 307 311 311 313 308 307 305 308 317 319 320 306 307 319 323 322
307 308 308 308 309 311 310 308 315 308 302 304 306 306 304 306 309 305 310 309 311 311 308 306 307 306 308 309 314 309 312 309 307 310 306 304 321 318 313 326 327 324 323 326
307 308 308 308 309 311 310 305 313 313 306 305 309 309 310 308 308 307 308 309 316 314 311 311 311 307 310 311 303 315 309 312 312 313 311 319 324 324 327 326 328 324 326 324
307 308 308 308 308 310 310 306 309 310 306 307 307 305 312 312 311 311 303 312 314 316 317 313 314 311 315 309 311 313 317 320 315 313 315 315 322 322 323 324 323 322 323 323
307 308 308 307 308 310 310 306 310 309 306 300 304 308 306 311 310 310 311 311 313 312 312 311 311 310 316 311 311 309 315 314 311 316 314 321 320 320 322 322 324 323 324 323
307 307 308 307 308 309 310 309 310 311 305 301 303 309 308 309 311 309 310 310 310 308 306 306 307 312 312 313 312 310 315 314 312 309 316 318 316 319 320 319 320 323 323 322
307 308 307 307 308 310 307 305 310 312 311 303 300 310 309 309 310 307 309 310 310 307 306 306 309 314 310 306 304 311 316 318 318 313 315 315 317 318 319 316 318 319 320 323
307 307 307 307 308 308 302 300 307 306 307 304 300 301 308 309 309 308 307 309 307 307 306 304 306 307 308 303 299 308 310 313 313 314 314 311 312 312 315 316 317 318 318 321
307 307 307 307 308 307 304 308 308 307 304 305 299 301 303 309 305 304 309 305 306 306 305 308 304 307 305 299 306 307 310 311 310 310 311 311 314 314 314 315 315 315 315 316
307 307 307 307 305 303 305 308 309 309 305 300 300 297 298 308 307 309 307 308 301 307 301 302 304 302 299 304 307 307 309 309 309 311 312 313 312 313 315 315 315 314 314 315
306 305 301 299 305 309 309 305 304 303 304 303 298 304 299 303 304 302 304 305 302 300 304 305 300 300 307 307 309 311 313 313 313 311 311 313 313 313 312 313 315 315 315 316
302 300 301 310 307 306 304 298 298 299 297 301 300 302 300 306 301 302 304 301 303 297 301 302 300 302 310 314 315 316 316 316 314 314 313 313 313 312 312 312 312 314 316 317
305 305 310 306 303 301 295 295 298 297 296 300 299 300 304 305 307 303 304 299 301 295 306 302 298 309 312 314 315 315 315 315 314 314 313 313 313 313 312 312 312 313 317 322
308 302 299 301 298 288 289 289 293 294 300 301 303 300 302 305 304 302 302 296 296 304 299 297 304 308 310 312 313 313 315 315 315 313 313 313 313 314 313 314 316 316 318 321
297 294 288 293 291 292 294 295 297 301 303 303 304 301 302 304 301 303 296 301 302 296 294 297 302 306 308 311 312 312 312 313 313 313 313 313 313 314 314 316 318 319 319 323
296 296 288 293 297 300 300 303 302 304 305 304 302 303 303 301 299 301 300 296 293 297 298 301 304 308 309 310 311 312 313 313 313 315 314 314 314 315 315 318 322 320 323 324
297 297 294 298 296 297 298 300 301 304 304 306 304 300 297 297 298 295 294 294 294 298 302 306 308 309 309 309 313 314 315 314 314 316 318 316 317 318 318 322 321 322 322 321
295 296 299 300 302 298 300 301 301 306 302 299 299 295 294 301 295 294 298 298 300 303 306 309 311 311 308 309 311 312 313 312 314 317 315 316 317 318 320 319 322 322 322 322

GFSNW_sfc_thetae_009.txt.gz
Theta_e
312 312 312 312 310 309 306 305 299 314 314 304 305 300 300 302 306 309 307 308 306 307 309 307 304 303 307 312 310 305 308 302 301 304 309 312 307 304 304 298 296 299 299 302
311 312 311 311 310 310 303 299 302 312 314 300 302 305 303 304 304 305 306 306 308 311 307 304 309 308 313 313 310 306 308 304 298 302 306 309 306 306 304 305 300 296 298 301
311 311 311 310 310 310 305 301 300 308 309 309 305 303 304 303 309 307 308 308 311 310 306 309 307 310 314 314 312 320 315 303 301 297 303 306 303 307 306 301 296 297 300 306
309 311 310 310 310 310 306 305 303 306 300 302 302 305 306 303 303 309 310 307 309 308 304 306 307 312 315 314 317 315 310 301 303 304 307 307 308 308 306 302 301 300 302 308
308 309 310 310 310 309 307 304 300 301 298 302 305 305 305 307 305 309 310 308 311 310 307 311 308 311 312 313 310 311 310 303 305 301 308 307 305 308 309 309 307 304 305 307
308 308 309 310 309 309 304 306 309 301 298 298 300 303 303 308 308 313 314 312 310 309 313 315 313 313 315 311 312 309 307 306 301 296 303 304 300 305 306 308 310 308 302 309
308 308 308 309 310 310 306 304 305 299 295 301 302 302 304 308 312 309 312 314 312 314 316 318 316 314 314 315 314 315 310 309 303 297 301 293 303 311 312 311 313 313 312 315
308 308 308 308 310 310 307 306 305 301 293 298 300 300 301 305 308 312 313 315 316 316 312 309 307 305 307 311 314 314 313 308 303 298 296 300 307 310 311 309 308 315 313 316
309 308 308 308 309 310 308 306 309 305 296 298 302 298 302 300 301 305 311 317 317 314 307 307 299 301 307 306 307 314 314 312 305 301 296 296 304 314 318 316 304 316 316 316
308 308 308 308 308 309 309 305 309 306 297 301 302 298 296 301 301 303 307 306 310 313 304 300 301 298 308 302 303 306 306 305 301 300 300 303 313 318 318 302 304 317 316 315
308 308 308 308 308 309 309 305 308 306 301 301 303 304 300 299 299 298 304 304 309 308 304 302 301 301 304 303 307 304 306 303 299 302 299 297 318 318 310 313 317 320 321 319
307 308 308 308 308 309 310 303 308 309 304 302 307 307 307 306 305 300 301 302 308 311 306 307 307 303 305 306 301 312 305 309 309 310 309 316 318 314 318 318 316 317 317 318
307 308 308 308 308 308 308 305 306 306 302 303 303 302 309 310 308 307 299 306 309 307 309 307 308 307 310 305 304 308 312 314 309 310 312 314 318 317 318 319 320 320 320 318
307 307 307 308 308 308 308 304 307 305 303 297 301 308 307 312 308 308 307 305 309 308 308 303 307 305 311 307 309 308 310 312 309 309 313 316 315 317 318 320 320 320 322 320
307 307 307 308 308 309 308 307 307 309 303 296 299 306 308 307 309 309 308 306 306 305 303 302 301 309 308 308 308 306 313 310 308 303 314 313 313 316 316 315 315 316 315 318
307 307 307 308 308 309 304 303 309 308 306 300 297 307 305 308 309 308 307 307 307 306 303 303 306 308 305 302 301 308 314 317 313 310 317 314 315 317 314 313 314 314 313 314
307 307 307 308 308 305 300 299 306 307 306 300 298 299 306 308 308 306 305 307 305 305 303 301 301 303 305 300 297 303 308 310 308 309 311 308 310 308 312 312 314 315 315 313
307 307 308 308 307 305 301 306 307 307 301 302 296 299 301 306 301 302 308 303 303 304 303 304 301 304 302 296 304 305 308 308 309 310 311 310 310 310 311 312 314 312 311 311
306 307 307 305 302 302 307 310 310 309 303 297 300 295 296 305 304 307 304 307 300 305 299 299 301 299 296 301 303 305 308 308 308 311 312 312 312 311 311 311 311 309 310 311
305 303 300 297 305 312 310 304 302 301 302 301 296 301 297 300 301 300 302 303 300 296 300 303 297 303 308 311 311 312 312 312 311 307 306 307 307 308 308 309 309 308 308 309
300 299 298 307 309 305 303 299 298 299 297 299 299 299 298 305 299 300 303 299 301 295 298 298 299 302 305 310 310 312 312 312 311 310 310 309 309 308 308 308 309 309 309 308
302 301 307 308 302 300 295 294 298 296 294 299 297 299 303 305 307 302 302 298 299 295 304 300 298 303 307 308 309 310 311 312 312 312 311 312 312 311 309 309 310 310 311 311
307 301 299 299 297 288 289 288 292 293 300 300 301 298 301 305 304 302 301 297 294 302 296 297 299 304 307 307 309 310 312 312 313 312 312 312 312 313 313 311 312 312 311 312
297 293 285 291 291 291 293 295 297 302 302 302 303 300 302 303 299 302 297 300 300 295 294 293 300 303 305 307 310 310 310 311 311 312 312 313 314 313 314 313 314 313 314 318
295 295 287 292 296 298 301 303 302 303 305 303 301 301 302 300 299 300 298 297 293 296 295 299 303 306 307 307 310 311 311 311 311 313 314 315 314 315 315 315 318 317 312 312
297 297 294 298 296 296 299 300 300 305 304 305 304 301 298 298 298 296 295 293 293 296 301 305 307 308 306 307 309 311 311 310 312 314 315 314 314 314 313 317 316 316 315 312
295 294 299 298 300 298 300 302 302 308 303 298 300 295 294 300 295 293 300 296 299 302 305 307 309 309 310 309 308 310 311 311 311 313 315 315 316 315 315 313 315 316 317 316

GFSNW_sfc_thetae_012.txt.gz
Theta_e
310 312 311 310 309 308 304 294 289 305 309 297 295 291 294 299 299 302 301 303 302 300 302 300 301 301 304 309 308 301 300 295 295 299 305 307 303 301 299 294 292 294 295 297
310 310 311 309 308 308 304 292 293 304 302 291 293 297 301 303 301 300 299 300 303 304 301 298 303 306 310 309 308 304 303 294 293 295 298 301 302 302 300 297 295 294 293 296
309 310 310 309 308 308 305 294 291 298 300 297 296 295 298 300 307 303 303 302 304 302 300 304 302 304 310 310 310 318 310 294 295 294 295 300 298 302 302 300 294 294 296 301
309 309 309 309 308 308 305 295 295 295 291 293 293 294 300 302 301 306 307 303 305 305 299 303 308 309 310 313 314 313 303 295 298 299 304 305 304 305 302 298 298 298 298 304
309 309 309 309 308 308 300 296 295 297 292 292 294 295 297 299 301 304 303 305 309 307 302 307 304 306 303 304 308 303 300 296 299 300 304 305 303 305 306 305 304 304 304 304
309 308 309 309 308 307 297 298 300 295 292 292 293 295 297 298 300 308 310 309 308 306 307 309 309 309 307 308 303 304 299 299 296 295 301 302 299 302 303 306 309 307 302 306
309 308 308 309 309 307 304 300 300 294 289 291 295 295 299 299 302 306 310 310 307 312 313 310 308 306 307 310 308 307 300 298 296 296 295 292 300 309 312 310 310 310 309 311
309 309 309 308 309 309 300 303 300 294 288 293 294 296 298 297 300 303 308 308 310 311 306 301 302 302 303 307 310 309 308 304 298 293 293 296 303 308 310 306 306 313 310 314
309 309 309 308 309 309 303 302 303 298 291 289 298 295 299 294 293 300 304 307 307 307 301 301 294 299 301 303 303 306 307 306 303 300 295 291 301 313 317 313 302 313 314 313
308 308 308 308 308 308 303 301 305 298 294 296 294 292 293 297 295 295 301 300 304 308 298 295 294 296 305 300 298 300 301 300 297 297 295 298 310 314 315 299 301 313 313 314
308 308 308 308 308 308 304 301 306 301 298 299 301 300 297 297 297 293 299 299 303 306 300 297 296 296 299 302 305 302 302 302 299 298 296 295 313 312 307 310 311 315 316 316
308 307 308 308 308 308 307 300 305 306 298 298 304 304 305 304 303 296 294 295 301 305 300 303 301 301 304 303 298 309 303 307 305 304 302 311 315 311 313 314 311 314 314 315
307 307 308 307 307 308 306 301 301 300 297 298 296 298 304 307 305 303 293 296 301 302 303 301 303 301 305 300 303 306 310 313 308 308 311 314 316 319 319 318 316 317 318 318
307 307 307 307 307 308 307 299 300 299 298 291 294 303 300 305 303 303 301 298 299 301 300 296 298 300 304 301 305 305 309 311 307 308 313 313 314 314 315 317 316 317 318 317
306 306 307 307 308 308 305 302 301 303 299 292 293 300 304 304 304 304 304 299 297 297 295 294 294 301 302 302 304 302 310 307 305 303 312 311 311 314 315 312 312 312 311 311
307 307 307 307 308 308 300 298 301 303 301 292 289 300 299 301 303 302 301 301 298 299 295 295 297 299 299 297 296 302 310 310 309 308 314 313 315 315 312 309 311 311 310 309
306 307 307 308 308 299 295 296 303 305 300 294 292 294 299 303 301 302 299 301 299 297 294 293 294 295 297 295 293 303 307 308 310 312 310 303 307 304 309 312 313 313 312 311
306 308 308 308 307 304 296 301 303 302 296 295 290 293 296 299 296 297 301 296 298 296 295 295 294 296 295 292 296 297 301 305 305 305 305 304 306 308 307 309 310 308 307 307
306 307 308 301 297 295 298 312 308 301 298 292 293 291 290 298 297 299 298 299 294 298 293 292 296 298 298 300 301 303 303 303 302 305 305 305 305 305 306 306 306 305 305 305
306 301 297 292 298 311 308 298 295 295 296 294 291 295 291 294 296 294 297 298 295 292 295 298 299 299 302 303 303 305 306 307 306 304 303 303 303 304 305 305 306 305 305 305
297 296 296 301 309 296 294 291 292 294 291 294 293 293 291 299 294 295 296 294 295 292 294 293 296 295 299 304 305 307 308 309 307 306 305 305 304 305 304 305 307 307 306 305
300 300 301 300 295 291 288 288 292 292 289 293 291 292 297 298 299 296 297 293 295 291 298 297 295 301 302 305 307 308 308 309 309 309 308 308 309 308 307 307 306 306 307 308
304 299 296 293 290 280 286 284 288 288 293 293 293 293 295 296 297 295 295 292 290 297 296 295 297 300 304 305 306 306 308 309 310 310 310 310 312 312 310 309 309 309 310 310
295 292 285 286 285 288 287 290 293 296 295 296 296 294 294 296 294 295 292 294 295 292 291 292 296 298 301 303 305 307 307 309 309 309 312 312 311 312 313 313 312 311 310 313
292 293 286 290 294 295 298 299 299 297 297 295 295 296 296 293 292 294 293 293 292 294 293 295 299 300 301 302 305 305 305 306 307 309 311 311 311 311 311 313 312 311 309 311
295 294 291 293 293 294 295 295 294 298 297 297 296 293 291 292 292 292 291 294 292 294 297 300 301 301 302 301 301 304 306 306 306 306 308 310 310 309 309 311 312 312 310 310
294 292 296 296 294 294 295 294 295 300 297 294 295 291 291 294 290 292 296 293 296 297 300 303 302 302 302 304 305 306 308 307 306 306 307 307 310 310 309 307 309 311 311 311

GFSNW_sfc_thetae_015.txt.gz
Theta_e
309 310 310 310 308 307 304 293 285 300 303 293 289 287 291 297 297 298 297 298 297 296 298 295 295 296 300 307 305 297 298 294 293 296 300 302 299 298 297 294 290 290 291 294
310 309 310 309 308 307 302 293 290 302 298 287 290 295 298 300 297 297 297 296 299 300 297 294 297 300 306 309 306 301 297 290 289 291 293 297 297 298 295 294 293 292 292 295
310 310 310 308 308 307 304 294 289 295 297 293 291 291 295 298 305 301 301 298 299 299 296 298 296 301 306 311 306 317 307 290 295 293 293 297 296 299 299 297 292 292 294 298
309 310 310 309 308 307 304 295 293 293 289 292 291 290 295 298 297 302 304 299 302 301 296 298 299 304 307 312 314 311 301 293 293 299 300 300 300 301 300 298 299 298 299 300
309 309 309 309 308 307 300 294 292 296 293 291 291 292 293 295 297 297 301 299 303 305 299 303 302 304 303 304 306 299 297 293 295 294 299 300 299 301 302 302 299 299 298 301
309 309 309 309 308 304 294 296 296 296 295 290 290 292 294 296 297 300 301 307 304 303 304 308 308 309 308 306 304 301 295 297 291 294 296 298 294 300 300 302 304 304 300 303
309 309 309 309 308 306 301 299 299 295 291 292 292 294 295 296 297 295 301 307 305 307 309 310 307 304 305 307 307 304 298 296 292 295 294 290 299 306 306 307 309 310 308 305
309 309 308 309 308 308 299 300 299 296 291 294 295 295 294 296 296 297 302 307 305 305 302 299 301 301 300 305 309 303 303 295 294 292 292 297 304 308 308 304 304 311 309 310
308 309 307 307 308 308 301 298 302 298 294 292 297 294 294 292 293 294 302 307 306 305 299 299 295 297 300 301 302 307 303 300 298 294 291 291 304 310 315 311 299 312 313 311
308 308 309 308 308 308 300 298 303 299 295 298 297 292 291 295 298 292 299 299 301 307 297 293 294 294 305 300 296 298 300 301 296 295 295 299 308 312 314 301 300 310 312 311
307 307 308 308 307 308 301 298 302 300 297 297 300 300 296 295 296 293 298 295 301 301 298 298 298 298 298 303 304 300 300 299 298 297 293 294 311 311 305 308 310 311 311 312
307 308 307 308 307 308 305 297 303 304 298 296 302 303 304 302 301 297 296 294 300 301 297 300 299 300 301 301 299 309 300 305 303 300 299 307 312 309 312 312 308 311 312 313
307 307 307 307 307 307 306 299 299 300 297 295 296 297 302 303 304 305 295 296 300 302 305 300 302 300 302 298 301 306 309 310 305 306 306 308 312 314 315 314 311 311 313 315
306 307 307 307 307 307 307 300 298 295 296 292 294 304 301 304 302 303 303 299 299 301 302 299 300 299 301 300 302 304 308 311 308 306 312 311 312 314 314 315 316 315 314 314
306 306 306 307 307 308 304 297 298 300 297 292 293 300 302 301 300 302 303 299 298 298 298 297 296 302 304 302 302 302 308 306 303 303 308 309 310 314 314 311 311 310 311 311
307 307 307 307 307 306 296 297 297 302 302 293 288 298 299 298 299 299 298 298 298 299 296 296 297 301 304 297 296 303 307 311 309 310 315 311 313 311 313 310 310 310 309 309
306 306 306 307 307 299 292 293 300 304 301 294 291 292 298 299 299 299 297 298 297 297 295 295 294 296 297 295 292 298 300 309 312 312 307 304 306 306 310 310 310 310 308 307
306 306 307 308 307 303 297 300 305 303 296 294 288 291 293 298 294 295 298 296 295 295 295 295 295 300 299 294 299 301 302 304 304 305 306 307 308 306 305 305 306 305 304 304
306 306 307 300 297 292 298 308 306 299 297 291 292 290 288 296 294 297 297 296 292 296 292 296 300 299 296 300 298 300 302 299 300 303 304 304 304 304 304 304 305 303 303 303
306 299 296 293 298 310 304 297 294 294 295 293 290 294 290 294 294 294 296 296 293 290 292 303 299 298 303 300 301 301 303 303 304 302 301 302 303 303 304 303 304 304 303 304
297 295 295 300 306 295 292 289 290 292 291 292 292 292 290 296 294 294 296 292 293 290 292 299 298 297 298 302 303 304 305 306 305 304 303 303 302 304 304 305 306 305 305 305
300 299 300 298 294 289 286 286 290 291 289 291 292 293 294 297 298 295 296 293 293 289 298 297 295 299 300 302 304 305 305 307 307 308 307 308 309 309 308 306 306 307 307 308
302 296 292 290 288 280 285 284 286 286 290 292 293 292 294 296 296 295 294 292 291 299 295 294 297 301 304 303 304 305 307 308 309 309 310 311 311 311 310 310 311 310 308 310
294 291 284 285 285 288 288 291 292 295 296 294 294 295 294 294 293 294 293 294 297 292 291 291 297 299 301 303 306 305 304 305 306 306 309 310 309 309 311 311 311 310 308 310
290 293 287 291 294 296 298 299 297 297 297 294 295 295 294 292 292 293 292 293 291 293 292 294 298 299 299 299 301 301 302 304 304 304 305 307 309 308 308 309 310 309 308 308
294 294 292 295 293 294 296 297 296 298 297 296 295 292 290 290 290 292 292 292 291 293 295 297 298 299 300 300 302 302 303 304 303 303 304 305 305 306 307 308 309 309 308 309
294 293 297 296 294 292 294 294 295 298 296 293 294 291 290 293 290 291 295 293 296 297 299 300 299 299 300 301 302 305 304 304 304 304 304 305 306 306 305 305 306 307 308 308

GFSNW_sfc_thetae_018.txt.gz
Theta_e
310 311 311 310 308 307 303 294 283 297 300 290 286 285 288 295 294 296 295 295 294 293 295 293 294 295 299 304 301 296 296 294 291 293 297 300 299 296 295 293 288 289 289 292
309 309 310 309 308 307 301 292 291 298 297 286 287 292 296 297 295 294 294 294 296 295 293 290 294 297 303 304 301 298 296 289 289 289 292 295 295 296 293 291 291 289 291 293
309 309 310 309 308 308 302 294 287 293 293 290 288 288 291 295 304 298 298 296 296 294 292 293 293 296 305 306 306 319 310 290 292 291 293 295 294 297 296 294 290 290 293 297
309 310 310 309 308 307 303 296 290 293 288 290 291 288 291 295 296 299 299 297 296 295 291 293 293 297 300 306 314 307 297 292 292 298 297 297 297 298 297 295 295 294 297 298
309 309 310 309 308 307 299 293 292 294 292 292 289 290 290 294 295 296 295 296 301 299 295 298 295 298 299 301 304 301 296 292 292 296 298 298 297 298 299 299 298 297 298 298
309 309 310 309 308 303 292 294 297 295 292 290 286 288 292 294 296 298 299 299 298 301 303 304 304 303 307 304 301 300 294 292 289 292 294 294 291 298 298 299 300 301 297 304
308 309 309 309 309 304 296 296 297 292 287 292 292 293 294 293 295 294 297 298 295 304 303 303 302 301 304 307 305 303 300 292 290 290 291 286 297 304 303 302 306 306 307 306
308 308 308 308 308 308 298 297 293 293 289 293 293 294 294 294 295 295 296 299 306 304 299 297 296 297 299 305 309 304 301 293 290 291 287 293 303 307 308 304 304 310 308 310
307 307 308 307 308 308 300 296 297 295 287 288 294 293 294 291 292 293 296 303 302 306 296 296 292 293 297 299 304 305 306 300 294 290 288 289 299 308 314 312 299 310 311 310
307 308 308 308 307 308 301 296 303 298 291 294 295 291 291 295 294 292 296 297 297 306 296 293 291 293 301 298 299 301 301 300 296 294 293 297 307 310 313 300 301 310 311 311
307 307 308 308 307 308 303 295 301 298 293 294 297 298 294 294 294 291 296 296 299 300 297 296 295 294 298 300 304 302 301 299 298 297 294 293 310 309 303 307 310 312 314 314
307 307 307 307 307 307 305 294 299 305 296 295 299 299 301 301 300 295 296 298 298 301 297 298 297 298 300 299 298 308 300 305 302 301 298 307 310 308 312 312 310 312 312 314
306 307 307 306 307 307 305 296 295 295 295 294 294 295 300 304 303 304 293 300 302 298 302 302 300 297 301 297 301 304 308 310 303 305 308 309 310 310 312 312 309 310 310 311
305 306 306 306 306 307 306 300 297 298 293 289 291 301 299 303 301 303 303 300 300 301 300 300 299 298 301 300 301 303 308 310 307 305 310 310 311 313 313 311 312 312 312 311
305 306 306 306 306 307 303 299 298 298 292 290 291 297 300 301 300 301 302 300 296 296 298 296 297 301 302 302 304 301 303 305 304 303 310 308 309 312 313 310 310 311 309 309
305 306 307 307 307 304 296 294 298 299 298 294 286 295 297 299 299 299 297 298 296 298 297 299 296 301 306 299 298 303 304 305 310 307 311 310 310 312 312 308 307 308 308 308
305 306 306 307 307 298 293 292 299 304 301 294 289 291 298 299 298 298 296 298 298 298 295 295 294 298 302 298 294 300 303 308 310 309 308 304 307 307 308 308 308 308 307 308
305 305 306 307 307 304 298 300 305 303 295 294 289 291 294 295 294 294 296 295 295 294 294 297 300 301 300 296 300 301 304 306 306 306 307 307 307 307 306 306 306 305 304 304
305 305 306 298 296 292 297 307 308 299 295 291 293 291 290 296 292 295 295 294 290 293 296 299 300 299 295 299 298 300 303 303 305 307 306 306 304 304 305 305 305 304 303 304
305 298 295 292 296 308 304 295 292 293 292 292 289 295 291 294 294 293 294 295 291 287 295 302 298 297 302 301 301 301 304 304 304 302 301 302 303 304 305 305 306 305 304 306
298 296 295 300 305 295 292 290 290 292 290 292 293 294 292 297 293 293 295 291 291 287 291 297 298 296 299 302 303 304 305 306 305 305 305 306 306 307 307 307 308 308 308 307
299 299 301 296 293 289 287 286 290 290 290 293 293 294 294 296 297 294 295 291 291 288 299 297 294 298 299 301 304 305 306 308 309 309 309 309 309 309 309 309 309 309 310 309
299 295 290 288 287 283 285 284 287 288 291 293 293 292 296 295 296 294 294 292 289 298 295 293 296 301 301 301 304 304 306 306 307 307 310 310 309 310 310 309 311 311 310 311
291 292 287 287 287 291 291 291 291 295 296 295 294 294 295 294 294 294 291 293 298 293 290 291 298 300 302 303 304 304 303 304 304 304 306 307 308 309 310 310 310 310 309 309
291 293 287 291 294 297 297 298 295 297 297 294 293 294 295 292 293 294 294 293 290 293 292 296 299 301 300 300 301 302 302 303 303 304 304 306 307 307 307 309 310 310 310 311
295 294 291 294 294 294 295 296 295 298 295 295 294 291 290 289 292 293 292 292 290 294 296 299 300 301 301 301 302 303 304 303 303 303 304 305 305 305 306 307 309 310 310 311
293 293 294 294 293 292 295 293 294 295 294 292 293 291 290 293 292 291 295 293 294 295 298 299 300 300 300 301 301 304 304 304 303 304 304 304 306 305 305 305 307 308 309 310

GFSNW_sfc_thetae_021.txt.gz
Theta_e
310 309 310 310 308 307 303 297 288 304 306 296 293 290 293 295 297 299 299 300 301 300 300 299 299 299 303 307 306 303 307 305 300 301 307 307 307 305 306 302 301 302 303 303
309 309 310 309 308 307 301 293 293 303 302 292 293 297 297 300 297 298 297 297 300 301 299 297 299 301 306 307 306 306 304 302 298 300 304 305 303 305 307 307 306 305 299 303
308 309 310 309 308 307 303 294 289 299 299 297 294 293 295 296 303 302 300 299 301 299 297 300 298 300 305 307 306 319 311 304 302 297 301 305 302 302 304 304 301 302 302 306
308 308 310 309 308 307 302 295 293 296 293 295 296 295 294 293 294 302 302 302 299 299 297 299 298 302 303 306 312 312 312 305 305 306 307 305 304 302 303 302 305 302 305 306
308 308 309 309 308 306 299 293 293 294 293 295 294 294 293 294 297 298 299 300 303 304 301 303 300 303 304 304 309 308 308 304 305 304 307 305 302 304 304 304 305 305 307 308
309 309 309 309 308 304 298 298 298 294 291 291 291 292 293 294 296 299 300 299 298 299 304 308 309 309 308 309 309 312 310 305 301 299 305 302 298 304 305 306 308 307 304 311
308 308 308 309 308 306 302 298 296 291 286 290 291 294 295 294 295 294 297 298 297 302 308 308 310 307 308 310 311 314 310 307 303 301 300 292 304 310 309 307 308 310 311 314
308 308 308 308 308 307 304 301 297 292 286 290 290 292 294 296 297 296 296 299 303 306 303 303 304 304 305 307 311 312 315 308 304 301 299 302 305 311 306 304 307 313 312 316
308 308 308 307 308 308 305 302 301 295 287 286 291 292 293 292 293 295 297 303 305 308 306 303 299 298 303 303 307 312 311 312 308 301 297 295 306 312 316 316 304 317 318 319
308 308 308 308 308 307 306 302 302 297 289 292 294 290 292 296 295 293 296 298 300 309 305 300 299 300 307 302 303 306 309 309 303 302 299 304 312 315 316 304 308 317 318 320
308 308 308 307 307 307 304 303 303 299 293 293 295 296 292 295 295 290 296 296 301 303 302 303 303 302 307 306 309 308 307 305 304 305 300 298 315 314 310 315 319 319 320 321
307 307 307 306 306 307 306 300 301 304 295 293 299 299 300 300 299 295 298 298 296 302 301 303 303 305 308 308 303 312 305 311 305 305 305 314 314 315 317 318 319 321 326 328
306 306 306 306 307 305 305 302 299 299 294 294 295 293 299 302 302 303 293 300 303 304 308 303 304 303 310 306 308 309 312 314 309 310 312 312 313 315 315 316 315 317 319 321
305 306 305 305 305 306 305 302 303 299 295 287 292 303 300 306 305 303 301 302 304 302 304 302 303 304 307 309 308 311 307 314 309 309 310 312 311 314 316 316 316 315 316 318
304 305 306 306 306 306 306 304 303 303 294 287 289 296 302 304 304 302 302 301 301 298 296 299 301 308 309 309 309 301 305 307 308 307 313 314 312 314 316 313 313 315 315 315
305 305 305 306 306 305 302 293 300 302 301 291 289 300 300 304 303 302 301 300 300 299 301 301 301 305 310 304 302 303 305 309 309 313 316 314 313 313 311 310 310 312 312 312
305 306 306 306 306 304 296 293 299 303 303 293 291 293 302 304 302 301 300 302 301 300 301 302 302 304 309 302 296 302 306 310 311 313 313 308 310 306 310 311 311 311 312 312
305 305 306 307 307 305 299 302 305 304 297 295 290 292 299 303 300 299 302 299 300 300 300 304 304 305 305 297 301 304 307 309 308 309 311 310 311 312 311 311 311 310 309 311
305 305 305 303 300 296 299 307 309 304 296 291 292 291 293 303 299 300 299 300 296 301 304 304 305 299 295 300 301 303 305 306 306 308 309 309 309 309 311 311 311 309 310 312
305 301 298 296 301 307 306 302 297 294 295 295 290 297 293 299 301 299 299 300 296 300 302 306 300 297 302 304 305 306 307 308 308 306 306 309 309 310 310 311 313 313 313 314
302 298 297 303 305 301 298 293 293 295 292 294 296 297 295 302 297 299 300 297 297 296 300 301 297 293 300 307 307 310 312 312 312 312 313 314 313 312 313 313 315 316 316 315
301 300 303 302 299 295 291 291 293 293 292 296 296 299 299 300 302 299 301 297 299 295 306 300 294 299 304 306 308 309 311 312 312 313 313 314 314 315 315 315 315 316 317 317
304 299 295 293 293 288 288 288 292 293 296 297 298 296 300 302 301 300 299 296 296 306 298 293 297 303 306 307 308 308 310 311 311 311 313 314 314 316 316 316 317 318 316 316
296 293 287 290 289 291 293 293 295 299 299 299 298 298 299 300 298 299 295 299 302 295 291 291 299 304 305 307 307 308 308 310 310 310 311 312 313 314 316 316 317 317 317 318
294 293 285 288 292 297 299 301 300 302 303 299 298 299 299 297 298 301 299 295 292 293 293 298 303 304 305 307 307 308 309 310 310 310 310 311 312 312 314 316 318 319 319 320
295 295 292 296 295 297 298 299 299 301 299 302 301 298 295 294 297 296 294 292 290 295 301 303 306 305 307 308 309 309 310 311 310 311 312 312 313 312 313 315 316 318 319 318
297 296 299 297 296 296 297 298 299 301 301 298 299 294 292 298 295 294 298 293 297 301 304 306 307 308 308 309 310 310 310 311 311 312 312 312 313 313 313 313 315 317 317 318

GFSNW_sfc_thetae_024.txt.gz
Theta_e
311 310 310 310 309 307 306 301 294 310 312 299 300 296 299 297 299 302 301 303 304 303 304 304 304 304 307 311 313 308 312 309 303 305 310 311 311 309 311 306 307 309 308 308
310 310 310 310 309 307 304 297 297 307 306 292 295 299 298 300 299 300 299 299 302 304 302 301 304 306 310 309 310 311 313 308 302 303 306 309 307 310 311 312 312 310 304 307
310 310 310 309 308 308 304 298 292 300 304 303 298 297 298 298 302 302 302 301 302 301 301 305 303 304 307 309 309 321 313 310 306 301 304 306 303 305 309 309 307 307 308 312
310 309 310 309 308 308 304 299 295 299 293 297 298 300 299 296 297 303 305 303 300 300 298 300 301 304 306 309 312 310 309 306 309 309 309 309 307 305 305 305 307 305 309 310
309 309 309 309 308 307 300 294 294 298 295 296 294 293 294 296 298 300 301 302 303 301 300 302 300 303 305 305 309 309 313 308 311 307 309 309 306 308 308 307 307 307 308 309
309 309 309 309 308 305 299 301 301 296 293 291 290 292 294 294 299 301 302 303 302 303 305 309 311 312 312 309 308 309 309 308 308 304 309 309 304 308 309 309 310 308 305 311
309 309 308 308 308 307 303 302 300 291 290 292 290 293 294 294 295 294 299 301 299 305 310 309 310 312 312 312 312 314 312 312 309 305 308 298 309 315 314 311 312 312 311 313
309 309 309 308 308 308 303 304 297 293 288 293 291 291 292 294 296 296 297 299 303 307 305 302 303 305 307 308 310 310 313 314 307 304 304 307 309 312 311 310 310 315 313 315
309 309 309 308 308 308 305 304 304 296 290 291 294 292 294 292 293 295 296 303 307 306 302 303 299 297 302 301 304 312 313 315 311 309 302 299 312 317 321 320 307 316 316 315
309 309 309 308 308 308 305 303 307 298 290 295 296 293 293 297 295 295 298 299 301 308 305 301 299 300 306 300 302 306 309 311 307 306 305 308 316 318 320 306 309 323 319 318
308 308 308 308 308 307 306 303 306 299 293 294 300 299 295 295 294 291 298 296 301 302 301 302 301 304 305 304 309 309 308 306 306 308 305 303 317 318 312 320 328 326 326 326
308 307 307 307 306 305 306 299 307 309 296 295 303 303 303 301 300 296 297 297 299 298 299 302 303 306 310 309 304 316 307 312 309 312 311 318 319 319 322 323 325 330 328 328
307 306 306 306 306 305 306 304 303 301 295 295 298 298 304 306 304 306 295 300 299 302 305 301 302 302 311 306 308 312 316 321 314 313 314 316 318 318 320 323 322 325 331 332
305 306 306 306 305 305 306 303 307 303 297 291 295 304 302 307 307 304 303 303 307 303 303 302 300 302 312 310 313 313 311 316 315 314 315 314 316 318 319 318 321 323 327 330
305 305 306 305 305 306 307 307 306 305 297 291 294 300 306 308 304 305 304 302 300 300 297 300 298 305 307 313 311 302 305 306 313 310 317 316 315 317 318 317 318 320 321 322
305 305 307 306 306 305 304 298 301 304 304 294 289 303 304 308 307 305 304 304 302 301 300 302 304 306 305 306 301 303 308 313 315 317 320 317 315 312 313 312 313 315 316 318
305 306 306 306 306 306 300 296 302 304 304 292 290 296 306 307 307 305 305 305 303 302 302 303 303 305 308 302 296 303 309 314 319 320 317 310 309 307 311 311 313 312 314 314
305 306 306 306 307 305 301 305 305 305 297 296 289 291 301 307 300 299 305 301 302 301 301 304 303 306 305 297 301 306 308 311 308 310 312 310 312 311 311 313 313 312 313 314
306 306 306 306 303 299 300 307 308 305 297 287 290 291 294 307 302 300 301 302 297 303 304 303 304 299 296 301 303 305 307 307 306 309 309 311 310 310 312 312 312 313 311 313
306 306 304 299 304 307 307 302 297 297 296 295 290 300 298 303 302 298 299 301 299 297 302 306 298 297 304 306 307 309 308 309 310 305 304 306 308 310 311 312 314 315 315 314
305 301 299 307 309 306 302 297 295 295 290 292 296 301 299 305 300 300 303 299 300 295 300 300 294 293 302 306 308 311 313 313 314 313 313 314 313 312 313 315 316 317 318 319
303 302 304 304 303 300 294 296 298 297 294 299 300 301 302 303 308 302 304 300 302 294 306 299 292 298 305 308 308 310 313 314 315 316 314 316 316 316 317 318 318 318 319 321
309 303 299 299 300 290 290 289 292 293 300 301 303 301 305 306 307 305 304 299 297 307 297 292 297 303 306 308 309 311 313 313 314 315 316 316 316 318 319 319 320 321 321 322
299 294 287 289 290 293 295 295 296 301 302 302 303 303 303 305 303 303 298 304 305 295 290 292 300 303 305 308 311 312 312 313 313 313 313 313 315 315 317 320 322 321 320 322
296 293 286 292 296 299 301 303 303 305 305 302 301 302 303 302 300 302 302 297 292 293 293 298 303 306 309 311 312 312 313 313 313 313 313 313 314 313 315 317 319 321 321 321
303 299 297 300 299 300 302 303 303 306 306 308 306 302 299 299 300 298 295 294 291 295 300 304 308 309 312 313 314 313 314 314 314 315 315 315 315 315 316 317 317 317 318 318
300 300 303 302 302 301 302 304 304 308 307 302 303 297 296 304 296 294 296 294 300 305 307 310 313 313 314 315 315 315 315 315 316 316 317 317 317 317 315 314 317 317 318 318

GFSNW_sfc_thetae_027.txt.gz
Theta_e
312 311 311 311 310 308 306 304 297 312 314 300 301 298 301 302 304 307 304 304 305 306 308 307 309 308 311 315 314 310 313 310 306 308 313 314 311 309 310 310 307 310 310 309
311 311 311 310 309 309 306 300 302 309 308 293 295 300 301 303 302 303 303 301 304 306 305 305 308 309 314 313 312 311 313 308 303 306 310 313 309 310 310 311 313 311 307 309
311 311 311 310 309 308 305 300 296 302 304 303 297 297 298 298 305 302 303 303 304 302 302 307 305 307 311 313 312 325 315 310 307 303 307 310 307 308 309 309 307 309 309 312
310 309 310 310 309 308 303 300 297 298 295 297 297 299 299 297 297 302 305 302 302 301 299 301 302 306 309 311 315 312 312 307 309 309 311 311 309 307 307 307 309 307 311 312
309 309 309 309 308 307 299 295 297 300 297 298 296 295 295 293 295 298 298 299 302 304 301 302 301 305 307 308 311 309 312 307 311 308 311 310 309 308 308 308 308 309 310 311
310 309 310 309 308 306 300 304 304 298 295 295 293 292 295 294 297 299 301 299 300 301 304 307 310 311 310 310 310 309 310 308 307 303 309 309 304 309 310 310 310 309 306 313
310 310 310 309 309 307 306 301 299 295 291 293 293 293 293 294 296 295 297 298 296 302 307 309 311 311 311 310 309 312 309 310 309 305 308 298 310 315 314 312 313 314 313 314
309 309 310 310 310 308 305 304 299 294 291 292 294 294 294 294 297 295 295 297 301 304 304 303 302 302 303 307 309 310 312 310 305 302 303 308 310 313 312 311 311 316 315 317
309 309 309 310 309 309 309 308 305 296 290 292 295 294 294 292 293 296 297 301 304 305 300 298 296 294 300 299 304 312 312 314 309 306 301 299 309 318 322 320 308 319 319 320
309 309 309 309 309 309 308 307 309 298 290 297 297 293 292 297 295 295 297 300 300 304 297 295 296 296 303 298 298 301 305 307 304 307 304 308 319 321 321 307 311 326 327 326
308 309 309 308 308 308 307 304 308 298 293 294 300 300 297 296 296 292 297 298 299 300 298 299 298 299 301 301 306 305 304 304 303 306 304 300 321 320 314 322 329 331 330 328
308 308 307 307 307 308 308 302 310 308 297 295 304 303 303 304 303 299 299 298 296 299 298 299 299 301 304 305 299 311 304 309 306 309 309 324 325 325 326 326 325 330 331 331
307 306 306 307 306 307 306 304 306 302 296 298 299 300 306 308 306 306 296 299 302 300 303 301 300 299 308 301 305 310 312 316 314 318 320 320 322 324 326 327 328 331 332 332
306 306 306 307 306 306 307 304 307 302 297 292 296 305 304 308 308 306 304 302 309 306 302 299 301 299 311 307 307 306 305 308 316 318 319 321 321 322 324 325 330 332 334 335
306 306 306 306 305 305 306 308 307 308 297 293 296 302 308 309 307 306 305 303 303 302 296 298 299 303 305 309 310 303 306 306 311 314 320 321 319 323 324 323 324 327 327 328
306 306 307 307 306 306 304 299 306 309 307 294 290 302 305 308 308 305 306 303 302 301 299 298 305 306 305 301 301 305 310 315 318 317 322 319 318 318 319 318 318 320 321 324
306 306 306 306 306 305 300 298 302 306 306 292 290 294 304 309 310 307 305 307 304 303 301 299 305 305 304 302 297 305 311 319 319 320 319 315 316 312 316 316 316 315 317 317
307 307 306 307 307 306 301 305 306 306 298 295 289 291 296 308 303 302 307 303 304 303 300 305 303 306 305 297 302 307 309 310 311 314 318 315 315 315 309 310 316 314 313 316
308 308 308 308 304 300 305 306 307 307 298 289 288 287 293 303 304 305 305 304 297 304 298 301 303 299 295 301 304 305 306 306 306 309 312 309 308 309 314 311 313 312 312 314
309 308 303 301 308 306 308 303 298 295 296 293 290 297 297 304 302 301 300 302 299 295 300 305 296 296 302 308 308 308 307 308 307 303 302 306 308 311 311 312 314 315 315 318
308 304 303 308 310 307 300 297 294 293 290 292 294 300 301 306 299 297 302 299 301 294 297 296 291 293 299 307 309 311 311 309 308 308 308 309 309 311 314 314 315 317 318 319
305 303 305 307 305 301 295 295 298 296 294 301 300 303 305 306 307 302 304 298 300 293 303 296 288 297 304 308 309 312 313 313 315 314 311 312 315 316 316 316 317 317 319 322
309 304 301 298 300 292 291 287 292 294 299 301 303 302 309 308 306 303 303 298 297 305 296 291 293 302 306 308 311 312 314 315 316 315 316 317 317 318 318 317 320 320 320 322
302 298 291 294 293 296 295 296 298 301 303 304 304 304 304 306 303 304 297 300 303 294 289 291 297 302 306 309 312 312 311 313 313 314 315 316 315 316 319 319 320 319 319 321
299 301 293 296 302 302 302 305 307 307 307 306 305 306 306 304 301 304 302 298 292 293 292 297 302 305 308 313 312 313 313 313 313 313 313 313 315 316 315 316 319 320 321 320
308 304 300 303 302 301 303 306 306 310 310 310 309 302 299 298 300 298 295 294 291 295 301 307 311 312 314 315 315 315 315 314 313 314 315 315 315 315 316 317 317 317 318 318
300 299 304 303 304 303 305 307 307 311 308 303 304 299 298 303 297 294 297 296 296 302 307 313 316 315 315 316 316 316 316 316 316 315 316 316 317 317 316 316 316 317 318 318

GFSNW_sfc_thetae_030.txt.gz
Theta_e
312 312 312 311 310 308 306 303 296 311 314 300 301 296 300 301 303 306 304 305 303 301 303 305 307 308 311 316 315 309 312 309 305 307 314 314 311 308 307 302 305 308 307 309
311 312 311 311 309 309 305 298 300 309 308 294 295 299 299 301 301 302 303 302 304 305 302 301 305 308 314 315 314 311 314 307 303 304 309 313 309 309 308 307 307 307 304 307
312 311 311 310 309 309 304 298 293 300 303 302 297 296 297 297 302 301 304 303 305 303 302 304 303 305 310 314 314 327 316 309 306 302 306 309 308 309 309 307 303 305 308 311
311 311 310 309 309 308 304 299 295 299 293 295 298 297 296 294 296 302 304 301 302 299 298 300 300 304 306 310 317 313 312 306 308 309 308 310 309 309 308 307 308 305 308 312
310 311 311 310 309 308 302 293 294 299 296 297 294 293 293 293 295 295 294 297 300 301 299 301 296 301 305 306 311 310 313 307 308 306 308 308 307 310 310 310 309 309 310 310
309 310 310 310 309 306 301 303 302 298 294 294 293 293 294 293 295 297 299 297 296 296 298 302 303 304 305 307 309 311 310 307 307 303 308 307 303 309 310 310 311 310 306 313
309 310 310 310 310 308 307 304 302 293 287 292 292 294 294 294 295 293 298 298 295 298 303 304 307 307 307 308 308 309 312 309 308 304 307 298 309 314 313 312 312 312 312 315
309 309 310 310 310 310 306 307 300 293 288 293 293 294 293 295 297 295 296 298 300 302 300 296 295 300 302 304 307 308 312 311 304 302 301 305 308 312 312 310 312 316 315 317
309 309 310 310 310 310 309 308 308 297 290 290 295 293 295 291 293 295 298 303 305 302 297 293 289 292 297 298 302 309 309 314 307 305 299 297 309 313 318 317 308 319 318 319
309 309 310 310 310 310 308 307 310 299 289 295 297 293 293 296 295 292 296 299 301 303 294 290 288 290 301 296 299 303 303 306 302 303 301 305 313 316 321 308 313 327 325 324
309 309 309 308 308 309 308 306 310 302 292 295 299 299 296 296 296 290 296 295 299 298 294 293 293 294 299 299 303 302 302 302 301 304 303 300 319 320 313 324 330 330 329 329
308 308 308 307 307 308 308 303 312 308 297 296 302 303 304 303 302 297 298 296 295 299 297 299 299 297 300 302 296 307 300 305 304 308 308 322 321 327 329 328 327 329 330 329
308 308 307 307 307 307 307 306 307 305 297 297 299 299 305 307 306 305 296 297 300 300 304 298 300 298 304 298 303 306 310 312 309 310 314 321 323 324 328 329 329 331 332 331
307 307 307 307 307 306 307 306 309 302 298 291 295 305 303 308 307 306 304 301 304 308 303 297 299 298 306 301 302 303 307 309 309 312 324 323 323 325 326 328 332 332 336 336
307 307 307 307 308 307 306 306 307 308 297 291 294 301 305 306 309 305 306 303 301 304 299 296 297 304 303 306 305 304 308 305 305 311 311 313 322 325 328 327 327 330 331 332
307 307 307 307 307 308 304 297 307 308 304 293 289 301 302 306 307 306 303 303 302 301 299 297 301 307 303 299 300 305 308 310 315 310 315 312 321 321 322 320 322 325 326 327
309 309 308 307 307 305 301 298 302 305 305 294 289 292 303 307 309 304 303 305 302 301 301 299 301 304 305 304 299 304 308 312 316 315 315 311 312 312 317 317 317 317 319 321
309 309 309 309 308 306 301 305 305 306 299 295 288 290 296 308 303 300 305 301 302 302 300 303 300 304 305 298 303 307 308 310 314 315 314 312 314 315 314 316 316 315 315 317
309 310 310 308 304 300 305 307 306 306 298 290 288 288 288 305 303 306 303 307 299 305 300 300 302 299 297 302 305 304 305 306 309 311 313 313 313 315 315 315 312 312 316 315
309 309 305 301 309 310 310 303 296 294 294 291 285 291 291 302 302 301 300 302 299 294 298 303 295 296 302 307 306 306 307 307 309 308 309 312 311 311 313 312 313 312 311 317
309 304 303 308 311 307 301 296 292 292 289 292 293 297 298 305 298 299 304 300 299 290 296 295 291 291 298 306 307 309 308 308 307 307 309 311 313 313 313 315 316 316 313 317
305 304 308 308 305 300 295 292 297 295 294 300 299 301 305 303 306 299 302 296 298 291 303 295 289 294 304 307 309 309 310 310 311 312 312 314 313 314 316 316 317 316 319 321
310 306 304 301 302 292 288 287 291 294 300 302 303 301 303 305 306 301 301 295 295 304 294 288 292 300 304 307 311 312 314 314 315 315 316 316 317 319 319 318 319 319 319 321
304 301 292 298 295 295 293 295 297 304 304 305 305 305 301 305 302 303 297 301 301 292 288 286 294 301 305 310 314 313 313 314 313 313 314 316 316 317 317 319 320 319 318 321
304 304 293 297 303 304 305 305 304 309 309 306 307 306 306 303 302 305 302 296 289 290 288 294 302 305 307 312 315 313 312 312 312 313 314 314 315 315 316 318 317 318 318 319
308 304 300 303 302 302 304 307 305 310 308 309 307 302 301 300 300 296 294 293 291 295 301 305 307 309 312 314 316 315 317 315 315 315 317 315 316 316 316 319 318 318 319 317
302 301 306 304 304 304 305 306 307 312 309 303 303 298 297 303 295 293 297 293 297 302 305 308 309 309 312 313 319 317 316 316 314 315 315 316 312 317 319 318 318 317 318 320

GFSNW_sfc_thetae_033.txt.gz
Theta_e
312 312 312 311 310 308 305 299 290 305 307 295 297 293 296 298 299 302 300 300 298 297 298 296 297 297 300 311 312 304 306 302 297 301 308 309 306 301 298 295 291 296 297 298
312 312 312 311 309 309 302 294 294 304 303 288 291 296 296 298 297 298 298 297 299 301 297 294 298 300 306 307 305 307 307 302 294 297 302 306 303 305 302 300 296 295 292 298
311 312 311 310 309 309 303 295 288 295 299 298 294 292 293 294 299 297 299 296 299 299 296 300 297 299 305 306 305 320 316 303 299 295 298 301 301 304 304 301 296 294 297 297
311 311 311 310 309 308 303 297 291 294 288 291 292 294 293 291 290 296 297 294 295 294 293 295 296 300 299 303 308 307 300 298 303 303 305 305 304 305 304 301 301 296 298 299
310 311 310 310 309 309 301 293 291 294 291 293 291 291 290 290 292 293 292 291 295 295 292 293 290 293 294 295 300 298 299 299 302 300 305 304 303 305 305 305 304 303 303 302
310 310 310 310 309 306 298 301 302 295 291 290 288 288 291 291 293 295 296 295 293 292 295 297 297 297 297 297 296 296 296 296 298 295 302 301 298 302 304 306 307 305 301 303
310 309 310 310 310 308 302 301 300 292 286 288 289 290 291 291 293 291 295 296 293 297 301 300 299 300 300 301 302 303 297 297 299 295 299 292 301 307 308 307 309 308 307 307
310 310 310 310 310 310 304 304 299 293 287 289 289 290 291 293 294 292 294 297 300 301 298 293 290 294 296 298 302 302 303 299 297 295 295 297 304 307 306 303 304 311 308 309
309 309 310 310 311 310 307 306 305 297 289 288 292 291 292 289 290 292 294 299 302 302 293 293 286 287 291 294 298 303 303 302 300 295 292 291 300 310 313 310 300 317 314 311
309 310 310 309 310 310 308 305 307 299 290 292 293 289 290 293 293 290 292 296 295 300 294 289 286 286 293 290 294 295 296 298 297 296 293 297 307 311 312 300 302 322 322 320
309 309 309 309 309 308 308 304 308 301 292 293 296 296 293 293 293 288 294 293 293 293 291 290 290 289 292 293 298 297 297 295 297 297 294 293 317 312 310 318 322 324 323 322
309 309 309 308 308 308 308 302 309 308 298 295 301 300 301 299 299 295 295 294 293 295 293 293 292 293 296 296 294 303 296 302 300 302 301 316 319 319 321 322 324 322 322 322
308 308 308 308 308 308 307 303 306 304 297 295 296 295 301 304 303 304 292 294 297 298 299 297 293 292 300 293 298 300 305 307 305 305 308 311 315 319 320 323 324 331 333 333
309 308 308 308 308 309 307 302 306 303 297 289 292 302 299 304 303 304 302 299 300 302 301 296 295 292 301 296 298 300 305 306 303 305 308 313 318 313 319 324 332 332 334 334
309 309 309 308 308 308 307 304 304 306 296 289 291 298 301 306 306 302 305 301 298 299 292 295 292 299 300 302 303 299 306 303 301 301 309 311 312 312 315 326 327 327 328 331
310 310 309 309 309 308 302 297 303 309 304 293 287 297 298 306 305 303 302 302 299 298 297 296 298 303 301 298 297 304 307 309 311 309 314 312 313 314 315 315 323 325 325 327
309 310 310 310 309 305 298 297 302 304 302 293 288 289 300 303 307 305 303 301 299 297 300 297 298 301 302 300 297 304 308 310 312 316 315 309 311 309 314 314 315 315 316 316
309 309 309 309 309 307 301 305 305 304 299 295 287 287 295 306 301 298 304 299 300 301 301 301 299 301 302 297 302 307 307 308 312 312 313 311 313 314 313 313 315 314 311 314
309 309 309 308 304 300 303 308 306 304 298 289 289 286 289 302 302 303 302 303 296 303 298 299 299 298 296 299 303 304 306 306 310 310 311 313 312 313 314 314 312 312 314 314
309 307 304 301 304 311 309 300 295 293 292 289 286 292 289 299 299 298 298 301 297 294 297 301 293 294 303 305 306 306 306 307 309 308 308 309 309 311 311 311 312 313 311 316
310 304 302 307 312 305 301 295 291 289 287 289 290 292 290 305 296 297 301 298 295 287 294 292 290 291 300 306 306 307 307 307 307 308 310 312 312 313 314 314 312 314 312 311
304 302 306 308 304 299 294 293 296 294 292 296 294 298 300 301 305 299 300 294 297 291 301 292 287 294 303 303 308 308 309 308 309 310 311 313 315 315 316 315 316 317 318 319
311 303 301 300 298 288 288 288 292 294 301 302 302 299 302 304 303 298 297 294 295 302 290 286 291 298 302 304 307 310 312 312 312 314 315 317 317 318 317 316 318 319 319 320
305 302 291 296 294 290 292 295 298 302 304 303 304 303 301 303 300 301 296 299 298 289 287 287 295 299 302 307 310 311 311 312 313 313 314 315 314 315 316 318 316 316 315 317
305 303 293 298 302 303 304 306 304 306 309 306 306 305 305 303 301 301 299 293 287 289 288 294 301 306 307 309 311 310 311 311 312 312 313 314 315 315 314 315 314 315 315 316
308 304 300 303 302 302 304 305 303 309 307 310 307 303 300 297 298 295 292 291 288 294 300 304 306 306 309 310 312 313 313 312 312 312 311 311 313 315 314 316 314 314 314 314
304 302 307 305 304 303 305 307 306 311 306 300 301 296 295 299 294 293 296 291 297 301 304 307 307 308 310 312 314 313 310 310 310 313 311 311 313 317 315 310 312 313 314 315

GFSNW_sfc_thetae_036.txt.gz
Theta_e
311 312 312 311 310 308 302 291 285 298 302 286 287 289 291 296 295 299 296 296 295 293 293 292 292 293 297 304 302 296 299 297 294 297 302 305 304 300 296 294 288 290 295 296
312 312 311 310 309 308 296 288 288 298 295 282 285 292 293 296 295 295 295 294 295 295 292 290 294 297 303 302 301 296 299 296 291 291 297 301 298 301 301 291 291 294 290 292
311 311 311 310 309 308 297 289 284 288 291 295 288 288 290 290 296 295 296 294 295 293 291 294 292 294 299 300 300 309 301 294 294 293 294 298 296 301 300 298 293 293 295 294
311 311 311 310 309 308 297 290 286 287 284 287 289 290 289 288 288 294 295 291 292 292 287 290 291 294 294 297 303 298 294 288 292 295 301 301 300 301 302 298 299 296 294 295
311 311 311 310 309 308 298 291 289 289 286 287 287 288 287 288 290 291 290 290 292 294 289 291 288 291 291 290 295 293 293 289 292 296 300 302 300 302 303 302 302 300 296 296
311 311 311 310 309 305 296 299 300 294 289 285 284 283 287 288 290 293 294 293 291 289 292 295 295 295 295 293 291 290 290 289 289 289 298 299 296 301 302 302 302 301 296 299
311 310 310 310 310 307 301 296 297 290 286 287 286 288 289 289 290 289 292 292 290 294 300 298 297 295 293 294 294 295 292 290 290 289 292 289 298 306 306 302 303 304 302 303
310 310 310 310 310 309 302 299 298 293 286 289 288 288 288 290 290 288 291 294 294 297 295 289 286 288 289 293 295 296 298 295 289 288 289 294 301 303 302 300 301 306 306 306
310 310 310 310 310 309 302 301 304 297 288 287 292 289 289 285 285 287 291 295 297 297 292 289 282 281 287 291 295 299 299 300 295 292 288 288 296 306 309 306 296 311 308 307
309 309 310 310 310 309 301 299 302 298 290 292 292 288 285 289 286 284 288 291 292 294 289 287 283 282 290 285 290 294 296 295 292 293 293 294 302 307 307 297 297 317 316 311
309 309 309 309 309 309 302 298 300 298 293 293 296 295 291 291 291 286 288 289 291 290 289 289 288 284 287 288 294 296 295 295 295 295 292 289 311 312 299 304 318 318 317 316
309 309 309 309 309 308 307 296 300 303 296 294 298 298 299 297 296 290 289 288 292 293 287 289 289 288 292 289 289 302 294 300 298 300 301 308 312 309 312 320 318 319 319 317
309 309 309 309 309 308 307 297 297 297 295 293 292 291 298 301 300 301 290 291 294 295 296 292 291 285 290 288 291 297 303 306 302 302 307 307 312 311 313 316 327 330 330 331
310 310 310 309 310 309 307 298 298 299 296 289 289 298 295 300 299 298 298 297 298 300 297 291 290 289 295 292 296 296 304 305 302 302 307 309 312 311 312 324 330 331 332 333
310 310 310 310 310 309 305 301 301 303 296 289 290 295 297 296 300 301 299 297 295 295 291 289 289 295 295 298 299 296 305 301 300 300 306 309 309 312 314 314 317 322 328 329
310 310 310 309 310 310 300 293 301 305 303 293 287 292 293 295 302 300 298 299 297 293 292 294 297 300 295 293 294 302 306 307 307 308 313 312 312 314 315 314 314 314 314 321
310 310 309 309 309 306 296 293 301 304 302 292 288 286 292 299 300 299 298 300 297 294 295 295 296 298 300 297 295 302 307 307 309 314 314 310 312 309 314 315 316 317 318 317
310 309 309 309 309 307 301 304 306 305 297 295 287 286 289 300 296 295 300 294 296 297 296 298 297 298 299 295 300 304 305 307 310 311 312 312 313 312 312 314 315 314 315 316
309 310 310 306 304 298 301 308 306 303 297 289 288 284 285 300 300 301 300 300 294 301 296 297 298 296 294 299 302 303 306 306 309 311 310 310 310 310 311 312 313 313 313 314
310 306 301 297 303 311 306 300 294 293 292 290 285 291 287 294 298 296 296 298 295 292 296 298 292 292 301 304 305 305 307 308 311 308 305 308 308 309 308 309 312 314 313 312
302 297 297 302 311 305 301 294 290 288 286 286 288 290 290 299 294 294 299 295 294 287 293 291 289 290 297 303 305 306 307 308 309 310 310 311 313 313 313 312 313 311 311 312
301 302 303 303 302 297 293 291 293 291 289 292 292 295 295 299 303 297 298 292 294 288 298 290 286 294 300 303 306 307 308 310 310 312 312 312 314 316 316 316 317 317 318 319
303 299 299 298 296 290 285 285 289 291 298 300 298 298 301 302 301 297 295 294 291 298 287 285 289 297 301 304 306 309 311 311 312 313 314 314 315 317 317 316 318 318 318 319
299 297 291 293 293 295 293 296 298 302 302 302 303 302 300 301 297 300 294 295 295 288 285 290 299 303 305 308 310 310 311 312 312 313 314 314 314 314 315 315 314 315 314 315
298 298 292 295 300 302 304 305 302 304 305 302 301 302 301 299 298 299 297 291 286 289 290 297 303 305 307 307 308 308 309 309 308 309 309 312 312 311 310 312 312 312 313 314
300 300 297 299 299 300 301 302 302 307 304 303 301 298 296 295 296 293 291 288 288 294 299 303 305 305 307 307 308 308 309 308 306 307 309 309 310 308 308 308 308 310 311 311
301 299 302 300 299 299 300 301 302 307 303 298 299 295 294 298 293 292 297 294 298 302 304 306 306 306 306 308 310 309 308 307 305 303 303 303 303 304 303 304 307 307 308 308

GFSNW_sfc_thetae_039.txt.gz
Theta_e
312 312 312 310 309 308 300 288 283 296 297 285 284 285 290 295 294 297 294 294 292 290 292 290 289 290 294 301 300 295 296 288 293 297 299 304 302 298 295 289 287 288 292 291
312 311 311 310 309 307 294 286 286 296 296 284 283 288 292 294 292 293 293 292 293 294 290 287 293 295 300 299 296 296 299 289 285 288 292 295 296 298 298 296 289 293 288 290
312 312 311 310 308 308 295 288 284 287 291 291 286 284 287 288 295 293 294 293 295 292 290 292 290 292 298 298 297 306 297 288 288 288 289 294 293 297 299 296 291 293 295 292
312 312 311 310 309 307 298 288 287 286 281 285 286 289 288 288 287 293 293 289 291 290 284 287 289 292 292 295 300 295 292 286 289 292 295 297 296 298 299 294 297 294 296 295
312 312 311 310 309 307 298 291 289 292 288 289 284 285 286 287 287 289 290 288 289 289 286 288 286 289 287 288 292 289 290 288 289 290 296 298 296 298 300 300 300 297 294 294
312 311 311 310 309 304 297 299 298 293 290 288 284 283 284 286 288 291 293 291 289 287 290 293 292 293 292 292 288 287 287 287 287 285 293 293 292 297 299 300 301 300 294 297
310 310 311 311 310 305 298 300 297 290 284 287 287 288 288 287 288 287 291 290 289 292 296 295 293 291 292 293 292 292 287 287 288 285 289 285 297 303 304 301 301 300 299 300
310 310 310 311 310 309 297 297 297 292 286 288 288 289 288 288 288 287 287 291 294 293 292 286 284 284 285 289 292 291 292 288 286 285 285 292 299 300 300 298 297 303 302 303
309 309 309 310 310 309 298 296 299 297 286 287 291 288 288 285 285 286 289 293 294 293 288 285 282 279 285 285 290 293 292 292 292 287 285 285 295 308 312 305 297 304 304 304
309 310 310 309 309 309 300 297 299 297 290 292 292 287 286 290 288 286 287 288 289 290 284 283 280 282 287 283 285 286 287 288 287 289 288 292 306 310 313 295 297 306 310 307
310 310 310 310 309 309 302 299 298 294 291 291 294 294 291 291 290 285 286 286 288 286 286 285 286 285 286 285 288 289 291 289 289 290 290 287 310 310 301 304 309 312 314 310
310 310 310 310 310 309 307 298 300 301 296 292 296 297 298 296 295 292 289 289 286 288 285 286 287 286 287 286 284 294 290 296 294 295 295 305 309 310 312 313 311 311 318 314
311 310 310 310 311 310 308 300 300 297 292 293 292 291 296 299 299 300 290 292 293 291 294 291 290 286 289 286 287 291 296 300 297 299 306 308 311 313 313 315 317 328 329 325
311 311 310 310 311 310 309 301 299 299 295 288 290 298 293 297 297 297 297 295 295 298 298 293 290 287 293 289 291 290 293 300 298 298 306 311 312 312 313 314 317 325 328 328
311 311 311 310 311 310 308 302 301 302 293 288 290 296 295 295 296 296 296 294 293 293 291 290 288 291 292 292 291 290 300 301 298 297 306 308 308 313 316 314 314 316 318 320
311 311 311 310 310 310 301 293 300 303 301 293 286 291 294 296 296 298 297 294 294 294 292 291 294 298 291 286 286 297 303 307 307 307 310 311 313 314 316 315 315 317 317 318
310 311 311 310 309 306 296 294 300 304 302 293 287 288 291 296 299 297 297 296 295 294 294 294 293 294 296 291 286 298 305 308 308 312 310 309 312 311 315 316 317 317 317 318
310 310 310 310 309 307 302 305 305 305 297 295 287 287 288 298 296 293 299 294 295 294 295 296 295 297 296 288 297 304 306 307 308 311 311 311 313 314 313 316 316 314 314 316
310 310 309 305 304 299 300 309 306 303 297 289 288 285 285 297 298 299 300 300 291 298 295 296 297 292 289 296 301 303 304 306 309 311 311 311 310 310 311 312 311 312 313 315
309 305 301 296 303 310 306 300 294 292 292 291 285 291 288 293 298 295 295 298 294 290 294 298 291 290 298 302 305 306 309 311 311 306 306 307 306 308 308 307 308 308 309 313
300 295 296 299 310 304 300 293 289 287 285 286 287 288 289 298 292 292 297 294 293 287 292 291 289 290 296 303 306 308 310 311 311 312 312 312 312 311 312 312 313 313 314 314
300 302 304 300 301 297 291 290 293 287 287 292 290 293 292 295 302 296 296 291 292 286 296 290 285 293 301 303 306 308 309 310 311 311 311 314 316 316 316 316 316 316 316 317
302 299 299 298 298 292 286 285 291 294 297 299 296 297 299 301 301 297 296 290 289 295 287 284 289 298 303 306 308 309 312 312 313 313 314 316 315 315 315 314 316 316 316 317
299 296 290 295 294 296 296 296 298 302 302 302 301 301 301 300 299 299 293 294 294 288 285 291 299 303 305 307 309 309 307 309 311 313 314 313 313 313 314 314 315 315 315 316
296 297 291 296 300 300 300 302 302 303 305 303 300 300 299 297 296 297 295 291 286 289 292 298 302 305 305 306 306 304 305 304 304 307 309 309 308 307 307 310 312 314 313 313
303 302 298 299 298 297 298 298 299 304 303 302 300 297 296 294 296 292 290 288 286 294 299 303 304 305 306 307 304 303 301 300 299 299 300 300 301 302 304 306 306 306 306 306
303 300 299 297 297 297 298 298 298 302 301 297 298 294 293 298 291 291 295 293 297 300 302 305 305 304 305 304 303 301 300 299 299 298 299 299 300 301 300 298 300 302 303 305

GFSNW_sfc_thetae_042.txt.gz
Theta_e
312 313 312 311 309 308 298 287 282 294 295 284 283 285 287 294 293 295 292 292 291 289 291 288 288 290 293 298 296 294 296 286 289 292 297 303 302 297 290 290 285 286 286 289
312 313 312 311 309 307 293 286 287 295 294 279 280 285 289 291 292 291 291 291 292 292 289 285 292 294 298 298 296 295 296 288 284 287 294 295 294 296 292 290 287 292 286 290
312 312 312 310 309 307 293 287 281 286 289 286 283 283 284 286 293 293 294 292 294 291 289 291 288 291 297 297 298 303 296 287 285 285 288 292 290 296 296 295 290 292 293 292
312 312 311 310 309 307 294 286 283 286 280 284 286 284 285 286 286 291 294 291 289 288 283 286 286 291 291 294 298 293 290 285 287 290 293 295 294 295 296 295 296 292 295 295
312 312 311 310 309 306 293 288 290 291 288 289 288 286 282 286 286 287 287 288 289 289 284 285 284 287 286 287 290 287 288 285 287 288 294 295 293 296 297 297 297 297 296 295
310 311 311 311 309 303 297 298 298 292 287 287 286 284 284 286 287 289 292 290 288 286 288 291 291 291 291 290 287 286 285 285 286 284 291 291 289 295 297 297 298 298 295 298
310 310 311 311 309 304 298 295 297 290 284 286 286 287 288 287 287 285 289 290 287 291 294 293 290 288 290 291 290 290 284 285 286 284 287 283 292 300 301 299 300 300 299 302
310 310 310 310 310 308 297 295 296 292 285 288 288 288 288 288 287 286 287 290 290 293 291 285 282 282 283 287 289 289 290 285 283 284 283 290 294 303 304 300 297 302 300 302
310 310 310 310 311 309 298 295 296 294 288 287 291 288 289 285 285 285 287 291 292 290 286 284 278 277 282 283 287 290 290 290 286 284 283 282 294 306 312 310 295 306 307 304
310 310 311 311 310 310 302 299 298 297 289 291 291 287 286 290 288 286 288 286 287 289 286 283 277 278 285 281 282 282 282 285 282 284 285 289 301 309 311 295 297 309 311 310
310 310 310 311 311 310 304 300 299 297 291 291 292 292 290 289 289 284 288 284 287 289 285 284 284 283 287 285 286 285 284 283 281 283 284 284 307 308 302 304 310 312 314 314
311 311 311 311 311 311 309 299 301 301 295 293 297 296 297 295 294 291 291 289 285 286 285 286 285 282 286 285 283 291 286 290 289 288 288 299 308 307 311 311 312 313 314 316
311 311 311 311 311 311 309 300 300 298 294 292 290 290 295 297 298 298 289 291 292 292 296 290 285 283 287 282 284 287 291 295 294 294 299 305 309 311 312 314 314 315 317 324
311 311 311 311 312 311 310 302 301 300 294 287 288 298 293 296 296 297 297 294 292 291 296 291 290 287 291 287 288 288 291 292 291 294 296 305 311 311 312 315 317 317 319 324
311 311 311 311 311 311 309 305 302 303 294 285 287 293 295 294 295 295 295 294 291 290 290 290 288 292 291 290 290 287 292 290 288 288 298 299 306 311 315 314 314 317 318 325
310 311 311 311 311 310 302 294 299 303 301 291 286 292 293 298 296 294 293 293 293 292 290 290 293 297 292 286 285 293 298 299 298 296 307 308 310 313 315 314 315 317 319 321
310 310 311 311 310 306 298 294 300 304 303 293 287 287 293 294 298 297 295 295 293 292 292 291 292 294 293 287 285 293 296 297 298 302 307 308 310 309 314 315 317 318 321 323
310 310 310 310 309 307 301 304 305 304 298 295 287 286 286 292 293 292 295 291 292 294 293 296 293 295 293 286 292 295 298 299 303 308 311 310 313 313 314 315 316 314 315 319
310 310 310 305 303 300 301 309 307 303 297 288 288 285 281 294 294 295 297 299 291 298 293 294 295 290 285 290 293 296 300 302 307 310 312 312 311 312 313 313 312 312 313 316
309 305 300 294 302 310 306 300 294 292 292 291 284 291 287 290 296 295 295 298 293 289 294 298 290 287 295 299 303 304 307 306 311 307 306 308 307 307 308 309 312 314 314 315
298 297 295 301 309 303 299 292 288 286 285 286 287 289 288 297 291 293 296 293 291 285 290 289 286 286 295 302 304 308 311 312 312 311 311 312 310 310 311 313 314 315 316 317
302 302 304 302 301 297 293 292 291 287 287 292 290 293 291 294 298 294 295 287 288 285 293 287 285 294 302 305 306 309 311 312 313 315 315 315 315 315 315 315 315 315 316 317
304 300 298 299 299 289 288 285 291 295 299 300 296 296 297 300 301 297 295 290 289 297 288 284 294 301 302 304 306 307 311 311 312 312 314 314 313 315 315 314 316 317 316 317
297 296 291 295 293 294 293 294 296 301 302 301 301 301 301 301 298 299 293 295 294 288 285 289 298 301 300 300 302 302 302 304 305 306 307 308 308 310 311 312 315 316 315 315
297 298 290 295 298 299 299 300 299 300 302 300 299 298 298 297 296 297 294 291 286 290 289 296 301 302 301 299 299 299 299 300 300 302 303 305 305 305 304 306 308 313 313 313
300 298 293 296 294 295 296 296 295 299 300 301 300 296 294 293 293 292 290 287 286 292 297 300 302 299 299 298 298 298 298 299 299 299 300 300 300 300 301 302 304 306 306 305
298 295 296 294 293 293 295 297 296 298 298 294 297 292 292 296 290 288 290 290 293 297 296 299 299 297 296 296 296 296 297 296 297 298 298 299 300 301 300 300 301 301 301 301

GFSNW_sfc_thetae_045.txt.gz
Theta_e
312 313 313 311 309 307 302 295 289 300 302 290 291 287 289 293 294 297 295 295 294 292 293 292 293 293 296 299 302 298 301 298 299 300 306 308 305 303 302 297 296 297 298 298
313 313 312 310 309 306 302 292 291 301 300 285 286 289 289 292 292 293 294 292 295 296 293 290 294 295 299 299 300 298 300 297 295 298 302 304 302 304 304 303 303 299 294 297
312 312 311 310 309 307 301 294 288 293 294 293 288 286 287 287 293 292 294 292 294 293 292 295 291 293 297 298 300 303 301 297 296 296 298 299 298 301 304 302 298 299 300 301
312 312 311 310 309 306 302 295 290 292 286 288 289 289 287 286 286 291 292 289 290 288 288 289 290 293 293 295 299 297 298 292 294 296 296 297 298 298 300 300 303 300 302 304
310 311 311 311 309 305 301 293 291 292 288 290 288 288 286 286 288 288 287 288 289 289 286 289 288 291 292 291 296 294 296 291 294 292 296 297 296 299 300 300 301 301 302 303
310 310 311 310 309 305 300 301 301 292 289 288 286 287 287 287 289 290 292 290 288 287 290 293 294 295 295 294 293 292 292 292 291 289 294 295 293 298 300 301 303 303 299 306
311 311 311 311 310 307 303 303 299 291 285 288 287 288 289 288 288 287 291 291 289 292 297 296 296 295 294 294 293 295 291 291 294 289 292 286 299 305 306 303 304 306 305 307
311 311 311 311 310 309 303 303 298 293 287 289 288 289 289 291 290 288 289 291 294 297 293 290 286 288 290 292 293 293 294 292 289 286 289 293 296 301 307 306 304 311 308 309
310 311 311 311 311 310 303 303 303 296 289 288 292 290 290 287 287 287 289 295 297 296 293 289 281 281 285 285 290 295 294 293 290 289 285 285 297 303 309 312 300 313 315 314
310 311 311 311 311 310 306 302 304 298 290 293 293 289 288 291 288 287 289 291 291 296 290 285 283 283 288 283 284 288 287 287 285 286 286 292 301 308 315 301 303 316 318 319
311 311 311 312 312 311 308 302 302 299 292 293 295 295 291 292 291 287 290 289 290 291 286 286 287 285 288 287 290 290 289 287 286 287 285 283 302 309 304 311 316 318 320 322
311 311 311 312 312 312 311 301 303 303 296 294 300 300 300 298 296 292 292 290 290 291 287 288 286 286 288 287 284 295 288 292 291 291 290 300 304 306 315 317 316 318 320 324
311 311 311 312 312 312 311 303 301 299 295 293 295 294 300 302 301 301 289 292 293 292 297 292 290 286 290 284 287 290 294 298 294 295 298 301 304 308 312 317 318 320 324 325
311 310 311 312 312 312 311 305 302 300 295 288 292 299 297 302 302 300 299 297 298 297 298 291 289 287 294 289 291 291 294 296 294 294 296 299 304 307 312 317 320 322 325 323
310 310 311 311 312 311 309 308 303 304 295 289 291 298 300 300 299 298 299 297 295 293 291 291 288 292 291 293 292 288 294 293 291 290 299 300 302 307 312 314 319 323 323 320
310 310 310 311 311 309 304 298 305 305 302 293 287 298 297 298 297 297 296 296 295 293 290 289 292 295 293 288 287 294 298 299 300 297 302 302 305 305 306 308 319 321 319 322
310 310 311 311 310 306 299 297 302 305 304 293 288 288 297 297 298 296 295 297 294 293 291 290 291 293 293 289 285 293 298 300 301 302 300 298 301 301 307 317 321 318 320 326
310 310 310 310 309 307 302 305 305 305 299 295 288 288 292 299 296 296 298 293 293 292 291 293 292 293 292 285 293 296 297 298 298 299 300 302 304 309 312 320 318 317 319 325
310 310 309 308 305 301 302 309 305 304 298 289 288 286 287 298 297 300 298 295 288 295 289 291 292 288 285 290 293 295 297 298 300 303 308 305 303 309 315 315 314 318 322 324
310 308 304 300 303 309 307 301 294 294 293 291 285 291 288 293 295 296 294 297 292 288 291 295 289 286 293 298 299 300 306 308 306 302 307 309 311 311 313 313 314 318 324 325
306 303 300 304 310 303 299 292 289 288 286 287 288 289 288 297 291 293 296 291 289 286 290 287 286 286 295 301 302 305 309 312 309 311 314 313 313 313 314 315 316 322 321 319
304 304 305 303 302 300 295 293 292 290 289 294 290 294 292 294 298 295 295 289 289 286 296 289 285 292 297 298 300 301 302 310 313 314 314 315 315 316 317 316 318 320 321 321
307 303 301 300 299 289 286 285 289 293 299 302 301 297 298 300 301 298 297 293 291 298 289 285 291 296 297 298 301 300 301 302 306 307 308 309 310 315 316 315 315 315 316 319
305 301 290 296 292 294 294 293 294 299 302 300 302 303 301 304 300 299 293 296 295 290 285 287 294 296 298 299 301 301 301 301 301 301 304 304 305 306 310 312 312 311 309 310
303 301 291 295 299 299 300 301 301 301 301 302 302 302 302 299 297 296 294 292 286 286 287 292 296 298 298 298 299 299 300 300 301 302 301 303 303 303 303 305 305 305 305 306
305 301 297 298 297 295 297 298 297 301 301 307 303 298 296 294 294 291 288 288 285 290 293 296 297 297 297 297 298 299 300 300 301 302 301 301 303 302 302 302 303 303 303 303
302 300 302 299 298 297 297 298 298 302 300 297 298 291 291 296 290 287 287 286 290 295 296 296 297 296 297 298 298 298 299 299 300 301 302 302 302 300 299 298 299 300 300 303

GFSNW_sfc_thetae_048.txt.gz
Theta_e
313 313 313 311 309 307 306 302 294 305 308 296 296 291 292 293 295 298 296 297 294 294 297 297 298 298 301 302 305 304 309 307 304 304 310 311 309 307 307 301 300 303 302 304
312 313 312 311 309 307 306 298 298 306 304 289 290 293 292 294 293 293 294 294 297 297 296 294 297 299 301 302 303 303 307 303 300 303 307 309 306 308 308 307 307 304 299 304
312 312 311 310 309 308 306 299 293 300 301 300 292 289 291 290 294 293 293 292 295 294 295 298 295 296 299 300 301 304 304 305 304 301 304 307 304 306 307 306 303 304 304 307
312 312 311 311 309 307 306 301 295 295 290 292 291 290 290 289 288 293 294 291 290 289 290 293 294 296 298 299 301 302 302 301 302 306 303 302 306 305 306 305 307 303 307 308
312 312 312 311 310 307 303 296 294 296 294 292 290 291 289 289 290 290 290 289 289 291 288 289 289 292 296 295 299 299 301 298 300 300 302 301 300 304 305 306 307 308 308 308
312 312 312 312 310 306 301 303 303 298 292 292 288 289 289 290 292 293 292 292 291 289 290 295 297 298 298 298 296 296 296 297 296 296 302 301 298 303 305 306 308 308 305 311
312 312 312 312 310 308 304 304 300 293 288 290 289 290 291 290 291 290 294 294 291 295 300 299 299 298 298 297 297 298 295 296 296 295 299 290 304 311 309 307 308 310 310 312
312 312 312 312 311 309 304 304 298 293 288 291 291 292 291 292 292 291 293 294 298 300 297 292 290 291 292 294 295 296 298 296 294 292 293 299 303 304 304 305 307 312 311 313
312 312 311 312 312 311 306 304 304 297 289 290 293 291 292 289 290 291 293 297 300 299 294 291 285 285 288 289 293 298 297 297 294 294 290 290 301 307 310 311 302 313 316 316
312 311 312 312 312 312 308 304 305 298 289 294 294 291 291 293 291 289 292 293 294 298 292 288 286 286 291 287 288 292 292 292 289 291 290 296 304 309 315 300 308 320 321 323
311 311 311 311 312 312 310 305 305 299 292 294 296 298 293 294 293 289 292 293 295 294 289 289 291 288 292 290 293 292 292 289 289 290 289 287 304 304 304 312 318 320 321 322
311 311 311 312 312 312 312 304 305 304 296 295 300 301 302 300 298 294 294 293 293 297 293 294 290 290 292 290 287 297 290 294 294 294 293 303 305 306 309 311 312 315 319 321
311 310 311 312 312 312 311 306 302 301 295 295 295 297 304 306 305 305 292 294 296 295 298 293 293 288 293 288 290 292 295 299 295 297 300 302 305 307 310 312 312 315 319 321
310 311 311 312 312 312 311 305 303 302 295 289 295 304 300 305 305 303 303 300 299 298 299 294 291 288 297 292 294 293 297 299 296 297 301 302 304 307 308 309 315 316 319 321
310 311 311 312 312 311 311 309 304 306 298 292 294 303 304 303 302 301 301 299 297 294 293 291 290 294 293 296 295 292 298 296 294 293 301 302 303 307 310 309 309 311 313 317
310 311 311 311 311 310 309 302 305 307 304 293 290 302 301 301 300 299 299 299 297 295 292 290 293 297 293 290 289 297 300 302 303 300 304 304 306 308 309 308 309 311 313 318
310 311 311 311 309 311 304 302 304 307 306 294 290 293 300 300 299 297 297 300 298 295 292 290 291 292 293 289 286 295 299 301 302 304 304 302 305 304 308 309 310 311 317 323
311 311 310 309 308 307 305 308 306 308 301 297 290 292 296 301 296 294 297 293 294 293 290 291 290 292 290 285 292 295 296 299 299 301 301 300 303 304 305 308 311 311 315 323
310 310 310 312 306 303 304 308 306 306 299 290 288 287 288 299 297 300 296 295 287 293 288 288 290 287 285 289 290 291 298 297 296 300 301 300 300 302 306 309 309 316 320 320
311 310 310 303 305 310 307 302 296 296 295 292 286 289 287 293 296 295 295 297 291 288 291 294 287 286 292 298 299 301 308 313 303 298 298 303 305 305 305 308 316 318 318 321
313 311 307 307 310 303 302 298 292 291 289 290 290 291 289 298 291 293 295 292 290 290 293 290 288 287 294 297 298 303 304 309 311 311 311 315 312 310 311 315 317 319 319 318
310 308 308 307 306 305 300 297 297 295 294 302 295 298 294 296 299 296 298 293 294 292 302 292 285 292 297 298 298 301 303 305 306 308 312 314 312 312 316 317 318 318 314 314
313 311 306 305 303 292 288 286 291 293 301 305 304 301 304 302 300 302 302 296 295 301 291 285 290 298 300 299 300 300 303 303 304 305 307 306 306 307 308 309 314 314 313 312
310 303 292 298 296 297 296 297 299 303 303 304 305 305 304 306 302 300 294 298 300 291 285 287 294 297 298 302 303 304 303 303 302 302 304 304 304 302 304 305 306 308 311 314
305 304 294 298 301 302 302 304 303 304 306 307 306 307 304 301 299 299 295 293 287 288 287 291 297 299 300 300 301 302 303 304 305 303 301 302 303 302 301 302 304 305 305 308
306 304 301 302 301 300 301 302 302 305 306 312 308 302 299 296 296 292 288 289 286 288 292 297 299 301 301 301 301 302 303 304 304 305 305 303 302 302 302 302 302 302 303 303
303 302 305 304 303 302 302 303 302 306 304 300 301 294 293 299 293 290 293 289 289 292 298 300 300 300 301 302 301 302 302 302 303 304 306 305 305 304 304 302 303 303 302 301

GFSNW_sfc_thetae_051.txt.gz
Theta_e
313 313 313 312 310 308 307 306 298 309 310 298 300 294 294 294 295 297 296 296 295 294 295 295 296 298 305 305 307 306 311 309 305 308 312 314 312 309 310 304 303 305 305 306
313 313 312 311 310 309 306 303 302 310 307 293 294 296 295 296 294 294 293 293 295 298 295 292 298 300 305 304 306 306 310 306 302 306 310 312 309 311 311 310 309 306 302 306
313 313 312 311 310 309 307 303 296 302 303 302 295 293 292 292 296 295 295 294 296 295 294 297 296 297 302 304 304 306 307 306 306 303 308 310 306 308 310 309 306 306 307 309
313 313 313 312 310 309 308 300 295 299 291 296 295 295 294 291 290 294 296 293 292 291 290 292 291 296 300 304 304 306 306 303 307 309 310 310 309 308 309 307 309 306 309 310
313 313 313 312 311 308 303 296 295 298 294 296 294 293 291 291 291 292 292 291 291 293 291 291 289 293 295 297 302 303 306 301 306 306 309 308 305 309 309 309 309 310 310 311
313 313 313 313 311 307 302 303 302 297 293 294 292 291 293 292 293 294 296 294 293 291 293 297 298 298 299 299 297 297 300 301 303 300 307 306 302 307 309 310 312 311 307 313
313 313 313 313 312 308 308 303 298 291 289 292 292 293 293 293 293 291 293 296 293 296 301 301 300 300 299 299 300 301 298 300 301 298 303 295 307 314 312 310 312 313 314 316
313 313 313 313 312 311 309 306 298 292 287 292 292 293 293 295 295 294 295 296 299 301 298 293 291 293 294 296 298 299 301 298 297 295 299 304 307 309 310 309 309 314 314 315
313 312 312 313 312 311 309 305 304 297 289 289 295 293 294 292 291 293 296 299 302 300 295 292 287 287 291 292 294 299 300 300 296 297 294 295 306 311 312 314 305 315 316 316
311 312 312 312 312 312 309 306 305 298 290 294 295 292 291 296 295 291 295 296 297 300 292 288 288 288 293 289 291 293 293 295 292 294 294 300 308 311 315 301 310 322 322 323
311 311 312 312 312 312 310 308 306 300 293 295 297 298 294 294 295 291 296 295 296 295 291 290 291 291 293 292 294 294 294 292 292 294 293 292 309 307 304 313 317 314 318 321
310 311 312 312 312 312 312 305 307 306 297 297 302 302 304 302 301 296 298 296 296 298 295 294 294 291 293 292 289 298 292 298 296 297 297 306 308 308 311 312 311 314 316 317
311 311 312 312 312 312 311 308 304 302 296 297 297 299 305 307 305 305 293 296 298 298 300 295 294 290 294 289 291 294 298 302 297 297 302 304 306 309 311 311 311 313 314 319
311 311 312 312 312 312 312 305 305 303 297 291 299 307 303 306 306 305 304 300 301 299 298 293 293 291 297 293 295 294 297 299 297 298 301 302 305 307 309 310 312 312 314 316
311 311 312 312 312 312 314 310 307 307 299 293 297 305 305 306 305 304 303 301 299 297 294 293 291 294 294 296 296 294 299 297 294 294 302 303 304 308 309 309 309 311 313 312
311 311 312 312 311 310 311 302 308 309 305 295 291 303 302 303 302 301 301 300 299 300 294 293 295 297 293 290 290 296 299 301 301 299 305 305 307 308 309 309 309 311 312 312
311 312 311 312 310 313 306 303 307 308 307 296 292 294 301 302 301 299 298 300 298 297 292 289 291 292 292 289 286 295 298 299 299 302 303 302 304 305 309 310 311 311 312 313
311 311 310 309 307 307 306 310 308 308 302 298 289 292 297 301 296 293 297 293 294 293 291 291 290 291 289 286 292 293 294 294 294 297 300 302 305 307 307 310 310 309 310 311
310 311 310 312 311 306 307 308 307 307 301 291 290 288 289 298 297 298 295 293 288 294 289 290 289 288 285 287 291 295 300 302 304 304 305 301 301 303 306 307 308 307 308 311
311 311 308 306 309 309 308 305 301 298 296 295 289 292 289 295 296 296 296 295 292 288 292 294 288 287 296 298 299 299 301 303 311 305 302 302 300 303 305 306 308 309 311 314
315 314 309 312 310 306 305 304 302 304 297 296 299 295 293 299 293 294 298 294 293 292 296 295 290 287 295 300 301 301 301 304 305 310 308 306 306 306 308 309 311 311 313 317
313 314 315 309 307 307 303 300 303 302 300 307 304 305 298 301 301 297 302 299 299 293 302 293 286 292 299 302 301 304 303 302 304 305 304 309 309 309 313 311 312 312 314 312
320 315 310 306 306 296 293 289 296 297 303 306 306 306 308 307 304 305 304 297 296 302 293 286 291 298 301 303 303 304 307 304 303 304 305 304 304 305 305 305 311 311 310 310
312 305 295 301 298 300 303 300 302 306 307 307 307 310 308 308 305 303 296 301 299 291 286 287 294 299 302 304 305 304 303 306 305 303 304 303 302 302 302 303 304 306 307 307
307 307 297 301 305 306 306 306 305 307 309 309 308 308 307 304 299 299 297 294 288 289 288 293 298 301 303 303 302 303 302 304 304 306 304 302 303 302 301 302 302 304 304 306
310 307 304 306 304 304 304 304 302 306 307 309 309 303 300 299 300 294 291 290 287 289 292 296 301 303 303 303 303 302 304 304 304 304 305 305 302 302 303 303 302 303 303 302
306 306 309 307 305 303 303 304 303 306 305 300 304 296 294 299 292 291 295 291 296 301 301 301 304 304 303 303 302 302 302 303 304 304 305 304 305 305 303 304 304 303 303 303

GFSNW_sfc_thetae_054.txt.gz
Theta_e
314 314 314 312 310 308 307 306 299 313 311 298 299 295 296 296 296 298 296 295 293 292 292 292 293 293 299 307 307 302 310 306 302 305 313 313 311 308 309 303 302 304 304 305
314 314 314 312 311 309 306 302 303 312 309 293 294 297 296 297 295 295 294 293 294 295 291 289 294 297 303 304 304 302 305 304 299 302 309 313 309 309 309 310 308 305 301 304
314 314 313 312 311 310 306 301 295 302 303 301 296 294 293 293 297 295 296 294 295 293 290 293 291 293 299 302 303 312 307 303 303 301 305 310 307 308 309 307 305 304 306 308
314 314 313 313 311 310 306 300 296 298 292 293 293 295 294 291 292 295 295 293 293 292 289 290 290 294 296 301 306 305 305 301 306 307 309 311 308 307 308 308 309 306 308 310
313 314 313 313 312 309 303 297 294 296 294 295 293 294 291 292 293 293 291 291 292 294 290 291 289 292 294 293 298 299 303 300 305 304 308 309 308 309 309 309 309 309 310 311
313 313 313 313 312 309 302 304 302 295 292 292 291 291 292 293 295 296 296 294 293 292 293 296 297 297 297 297 295 296 299 299 300 298 306 307 303 309 309 310 311 311 308 315
313 313 313 313 312 310 308 307 298 291 287 290 291 293 294 293 294 293 295 296 293 297 301 300 298 298 297 297 298 300 297 298 299 298 302 295 308 315 313 311 313 314 314 316
313 312 312 313 312 312 312 309 298 292 287 291 292 292 293 295 297 295 296 298 299 301 298 292 290 292 293 295 298 298 301 297 296 295 297 304 308 311 311 309 309 315 314 317
312 312 311 312 313 312 313 308 304 297 289 290 294 293 295 292 293 295 296 300 303 299 294 292 286 285 291 290 293 300 299 300 296 297 294 294 306 312 316 315 305 321 317 316
311 312 312 313 313 312 311 307 306 299 290 293 294 291 293 296 295 293 296 298 297 299 292 288 287 287 293 290 290 292 293 294 293 294 294 300 308 311 315 303 309 318 320 321
311 312 312 313 313 313 311 308 307 300 293 295 297 299 295 295 294 290 296 295 295 296 290 291 291 290 292 293 294 293 294 292 291 294 293 293 309 308 306 314 316 314 317 317
311 312 312 312 313 313 312 305 309 306 297 297 302 302 304 301 301 297 298 295 296 295 292 294 293 290 293 292 287 298 291 297 295 297 297 307 306 307 310 312 312 313 313 314
311 312 312 313 312 313 312 309 306 303 297 297 298 301 307 308 306 306 294 298 299 298 299 295 293 290 294 288 290 292 297 300 295 297 301 303 305 307 310 311 310 312 312 313
311 312 312 312 313 312 312 306 305 304 298 292 298 308 304 308 307 305 304 301 303 301 299 294 292 290 296 292 294 293 296 298 296 296 300 303 304 306 307 308 310 310 312 312
311 312 312 312 312 312 315 312 309 308 300 294 298 304 307 307 305 303 304 302 300 298 294 293 291 294 294 295 296 294 299 296 294 294 301 302 303 307 309 308 308 310 310 310
312 312 312 311 311 311 310 302 309 309 306 296 293 303 302 304 303 301 301 301 301 299 294 293 294 296 292 288 288 295 297 299 299 296 302 303 305 308 308 307 309 309 310 311
312 312 312 312 311 312 306 303 307 309 307 297 292 294 301 302 301 299 299 300 298 296 293 290 290 292 292 288 285 293 294 293 295 297 297 297 300 301 305 308 309 311 311 313
311 312 311 309 308 307 307 309 309 310 303 299 291 293 297 301 297 293 298 295 294 294 292 292 289 290 289 285 291 293 296 298 303 306 303 298 301 303 304 307 309 308 309 311
311 311 310 314 309 308 308 308 308 311 304 294 294 289 293 302 298 296 295 294 289 295 289 290 290 287 285 290 295 297 296 296 301 310 308 302 298 301 304 304 306 307 308 311
312 311 312 307 310 310 309 306 302 302 304 302 293 297 295 298 299 297 296 294 292 288 294 295 289 287 297 299 300 301 299 300 303 300 303 305 302 302 302 305 306 309 309 311
313 314 312 313 310 308 305 307 304 309 301 302 303 303 301 304 298 297 299 296 296 294 296 296 291 288 295 301 301 301 303 301 302 303 304 304 306 306 305 306 308 309 309 310
314 315 317 314 306 307 303 302 305 304 301 306 306 308 307 307 304 298 302 300 301 292 299 292 286 294 301 301 301 302 303 303 301 302 302 302 302 304 305 311 309 309 310 311
321 317 310 309 307 296 295 293 299 300 304 306 307 305 307 310 308 305 305 298 297 302 293 286 292 299 302 303 302 302 303 304 304 301 302 304 302 303 303 304 306 307 307 308
314 306 293 303 300 302 302 301 301 304 304 306 308 309 304 309 305 303 296 300 298 291 285 288 296 297 301 303 303 301 300 302 303 302 301 302 302 301 302 303 304 305 304 306
308 308 296 301 305 306 306 305 304 305 306 306 305 308 307 303 299 300 297 293 289 290 288 293 300 301 302 302 302 301 301 301 302 303 302 301 303 301 300 302 302 304 303 304
312 308 305 307 304 303 303 303 302 306 306 307 308 302 300 298 298 294 292 290 288 292 295 299 303 303 303 303 303 303 302 302 303 303 303 304 303 303 302 301 301 302 302 302
308 305 310 308 306 303 304 304 304 307 304 300 301 296 295 300 293 291 296 292 296 299 300 302 305 303 304 305 303 303 302 304 303 304 303 304 304 303 303 301 302 301 301 303

GFSNW_sfc_thetae_057.txt.gz
Theta_e
313 314 314 313 311 309 305 301 294 308 311 297 297 292 294 296 295 296 294 294 291 289 289 287 288 288 293 301 299 293 299 295 294 298 305 310 307 303 300 296 291 293 292 296
314 314 313 312 311 310 304 296 298 308 305 291 290 294 294 296 294 293 293 291 293 292 289 285 289 291 298 300 297 294 297 292 289 295 300 304 304 304 304 299 297 293 292 295
313 314 313 312 311 310 305 298 292 297 300 299 292 290 291 291 297 295 294 292 293 291 288 290 288 290 296 298 298 305 304 294 292 289 296 300 300 304 304 301 295 295 298 297
313 313 313 312 311 310 305 299 293 295 288 290 291 292 291 290 290 295 296 293 292 290 286 288 288 292 292 295 301 299 295 290 295 298 303 304 304 305 304 301 301 298 299 301
313 313 313 312 312 310 302 295 295 295 291 293 291 291 289 289 292 292 290 290 291 290 286 288 284 291 290 290 295 293 294 289 295 297 303 304 304 307 306 305 304 303 302 302
313 313 313 312 312 309 302 303 301 295 291 290 289 289 291 291 293 294 294 293 292 289 291 294 293 294 294 292 292 290 290 290 290 291 301 301 297 304 306 305 307 305 301 304
313 313 313 312 312 311 307 306 299 291 286 289 289 291 292 291 292 291 294 295 292 295 299 298 296 294 293 293 293 295 290 290 291 290 297 289 301 311 311 307 308 309 307 311
311 311 312 312 312 312 308 308 298 292 287 290 290 291 292 293 295 294 294 296 299 299 296 289 286 287 289 292 294 293 295 292 288 288 293 298 305 306 305 304 308 313 315 317
311 312 313 313 313 312 310 308 303 296 289 289 293 291 292 289 291 292 294 300 301 298 291 289 283 282 287 288 291 294 295 295 290 292 289 291 297 304 309 310 301 313 313 316
312 312 313 313 313 313 311 307 305 298 290 293 294 290 291 294 293 289 293 294 294 299 291 286 284 285 292 286 286 288 289 291 288 290 290 296 300 304 313 300 301 310 310 311
311 312 312 313 313 313 310 307 307 299 293 295 298 298 295 295 294 289 294 293 294 293 288 288 287 287 289 289 291 289 289 288 289 290 290 288 303 303 297 304 310 308 309 309
311 312 312 312 313 313 312 305 308 307 297 297 302 302 303 302 300 296 296 293 293 295 290 290 290 287 290 288 285 294 287 291 288 291 288 299 302 302 305 305 304 308 307 308
311 312 313 313 313 313 312 307 305 302 297 297 298 299 305 306 305 305 294 297 298 295 298 292 290 287 291 286 288 290 293 297 291 291 296 298 300 303 303 304 303 306 306 307
312 312 313 313 313 312 312 306 306 304 298 292 297 307 302 307 307 305 305 301 301 301 298 292 290 288 293 288 290 289 293 293 290 290 294 295 299 300 301 303 305 306 307 307
312 312 313 313 312 312 313 309 307 309 300 293 295 302 304 305 304 303 304 302 300 296 293 291 289 292 290 291 291 290 293 291 288 287 293 292 293 298 301 300 301 303 305 306
312 312 312 312 313 311 309 301 307 309 307 297 292 303 302 304 303 300 301 301 299 297 293 292 293 297 292 287 285 292 295 295 295 292 295 295 296 298 300 299 301 302 304 306
312 312 312 313 311 311 305 302 306 309 308 298 293 296 301 303 301 299 298 300 297 296 293 289 289 290 292 287 284 291 294 297 298 301 301 299 301 297 302 302 303 304 306 306
312 312 311 309 308 306 306 307 309 310 303 299 293 295 298 302 298 295 299 295 295 294 292 292 289 290 288 284 290 294 297 297 297 300 304 306 306 305 304 303 302 301 302 304
311 312 311 311 309 308 306 309 309 310 303 296 296 293 293 301 299 297 295 295 289 295 289 290 289 286 285 290 293 293 296 296 295 300 301 303 305 304 303 302 302 301 301 304
312 310 310 306 309 310 310 305 302 301 302 302 292 300 297 300 299 296 293 293 291 288 292 293 288 285 297 299 299 298 299 299 298 297 297 299 300 303 304 301 302 303 303 305
310 310 311 309 310 308 304 304 303 307 297 301 299 300 301 304 297 297 299 295 294 289 293 292 289 287 295 300 300 300 301 300 299 300 302 302 301 301 304 306 304 304 305 304
311 310 318 312 307 305 303 301 305 304 301 307 305 304 305 305 305 297 300 297 297 290 298 290 285 293 298 299 299 300 301 301 300 301 300 301 301 301 302 303 307 308 310 311
318 314 312 309 306 296 295 291 298 298 302 302 303 306 309 308 306 301 301 297 294 299 290 285 291 297 299 299 300 298 301 302 302 301 301 300 299 301 300 301 303 306 306 308
312 310 293 302 302 303 301 299 299 302 302 302 304 308 305 308 303 301 295 299 295 288 284 286 293 297 299 300 300 298 298 301 301 301 301 299 298 298 299 300 302 302 301 304
311 309 294 301 305 304 304 304 303 304 305 304 304 307 306 302 299 299 296 292 287 290 287 292 297 300 300 300 298 299 298 300 300 302 300 302 300 298 297 299 301 301 301 300
314 312 305 306 303 302 302 303 301 305 305 305 306 302 298 296 296 293 290 289 287 292 297 299 301 300 300 301 298 299 300 301 301 301 301 301 301 300 299 299 299 300 300 299
311 306 309 308 305 303 304 305 303 307 302 299 300 294 293 299 292 291 296 291 292 295 297 301 303 301 302 301 299 300 301 302 301 302 302 302 301 303 300 297 298 299 300 300

GFSNW_sfc_thetae_060.txt.gz
Theta_e
313 314 313 312 311 309 304 293 287 300 305 290 289 286 290 295 294 296 291 291 289 286 287 284 283 285 290 298 298 292 296 292 286 292 301 303 305 301 299 294 289 289 290 295
313 313 313 312 310 309 303 291 290 300 298 284 284 289 291 295 293 293 292 290 291 290 285 282 285 289 296 298 296 293 296 292 286 290 294 299 297 299 296 293 293 290 291 295
313 313 313 311 310 310 299 291 285 290 291 290 285 286 288 289 296 294 295 293 293 289 285 285 285 288 294 298 296 301 299 291 289 284 288 294 293 297 300 296 292 291 295 298
314 313 312 312 310 310 299 291 286 289 283 287 288 289 289 288 288 295 294 291 291 288 282 284 284 288 290 294 298 298 295 286 287 289 292 295 296 297 301 297 298 295 297 296
313 313 313 312 311 309 296 289 292 290 291 291 289 288 286 289 290 290 289 289 290 288 283 285 283 287 285 287 294 292 292 286 287 284 293 297 297 302 303 303 301 298 298 298
313 312 312 312 311 307 295 295 296 295 291 290 288 285 289 289 292 292 294 292 290 288 290 293 291 292 291 290 291 289 288 286 284 282 295 297 295 298 303 303 302 300 298 301
311 312 312 312 312 310 305 299 299 292 287 289 290 290 291 291 292 289 293 294 291 294 298 296 292 289 290 292 292 293 288 287 284 283 292 289 298 303 303 306 305 306 307 312
312 312 313 313 313 312 306 305 298 293 287 290 291 291 292 293 292 291 293 295 297 298 295 284 282 282 285 289 291 292 293 289 284 282 289 297 298 299 299 297 301 305 307 316
311 312 312 313 313 312 308 306 304 296 289 289 293 291 292 290 290 290 291 296 296 295 286 284 280 279 285 287 291 294 292 292 286 285 286 289 292 300 306 308 296 306 306 309
311 312 312 313 313 313 309 306 304 298 291 294 294 291 291 294 293 289 289 292 291 295 289 286 284 283 289 285 286 285 286 287 285 287 288 294 296 301 305 294 296 305 307 307
311 312 312 313 313 313 310 306 306 300 293 295 297 298 295 295 294 289 291 287 290 291 286 286 286 285 287 287 288 287 287 287 286 286 286 287 298 299 294 297 301 302 304 304
311 312 313 313 313 313 312 304 308 306 297 297 301 301 302 301 299 295 295 291 289 290 285 286 287 286 288 288 283 293 286 289 287 287 288 295 296 299 304 303 300 301 301 303
312 313 313 313 313 313 312 306 305 302 297 297 297 300 304 306 304 305 294 295 295 293 292 288 287 285 287 282 286 289 291 294 288 288 292 292 294 298 303 300 299 301 301 302
312 313 313 313 313 313 309 304 305 302 297 289 296 306 302 306 305 305 304 301 299 296 292 286 284 282 288 285 287 288 290 292 289 288 290 293 296 297 298 298 301 301 302 301
312 313 313 312 313 312 311 306 303 302 298 290 293 298 300 301 301 303 303 298 296 292 289 289 286 290 289 288 288 288 291 289 288 287 293 293 294 297 300 298 299 300 301 301
312 313 312 312 313 312 309 300 306 304 300 292 287 297 301 302 300 299 298 300 296 296 292 290 292 294 289 286 285 291 294 296 297 293 297 297 301 301 301 299 301 302 302 302
312 312 312 312 311 304 299 298 302 306 301 292 288 291 297 302 300 295 295 297 295 293 292 290 289 290 291 286 284 290 294 297 297 298 299 298 303 302 305 304 304 305 305 303
311 311 310 309 308 305 301 302 307 306 296 294 292 294 295 300 296 293 294 291 292 293 292 292 290 291 288 284 291 292 296 296 296 298 301 301 302 302 303 306 306 303 302 302
311 311 311 307 303 301 300 310 310 305 301 293 293 289 292 300 298 296 295 293 289 294 289 290 290 286 285 291 294 295 297 296 296 298 299 299 299 299 301 302 303 301 301 302
311 307 304 301 302 312 308 300 299 299 297 297 290 295 294 297 297 294 293 293 291 288 292 293 288 286 295 297 298 297 299 299 299 296 294 296 296 297 299 301 304 301 301 302
303 303 303 302 311 302 302 298 293 295 290 295 294 294 293 301 296 295 296 292 292 286 287 290 285 286 292 297 298 298 300 301 300 300 299 299 298 297 299 300 305 304 305 304
306 304 308 303 300 299 295 294 296 294 292 298 296 296 298 300 302 296 298 295 294 288 293 287 285 291 293 296 297 298 298 301 299 301 298 298 299 299 299 300 301 304 305 307
308 305 303 301 298 289 289 286 289 289 293 294 294 297 303 299 298 295 295 293 290 294 287 284 286 294 296 296 296 297 297 300 301 301 300 299 298 299 299 299 300 300 302 303
304 305 289 295 294 293 292 291 291 295 295 297 296 299 299 298 296 297 293 293 291 285 281 283 287 292 296 296 296 294 295 298 300 300 300 299 298 297 298 299 300 299 298 300
305 301 294 298 298 295 296 296 295 296 297 296 296 298 296 293 292 292 289 287 280 287 286 287 292 294 294 294 293 292 294 295 297 299 300 300 298 297 297 299 299 299 298 298
307 304 297 298 295 294 295 295 294 296 296 296 295 292 291 289 289 288 285 284 278 284 289 292 295 292 292 294 292 293 295 296 295 297 298 300 300 298 297 298 298 299 298 297
305 298 300 299 297 295 296 295 295 297 294 290 291 287 286 290 286 285 285 282 285 288 289 293 295 292 293 294 292 293 296 296 294 296 296 298 300 300 298 296 297 298 299 299

GFSNW_sfc_thetae_066.txt.gz
Theta_e
313 313 313 312 310 308 303 290 287 299 297 287 284 283 286 293 291 294 291 289 286 284 284 282 281 283 287 296 293 288 290 284 283 287 296 298 295 293 290 288 288 288 291 294
313 313 312 311 309 308 301 289 287 297 294 281 281 285 288 291 290 291 291 290 290 289 284 281 283 286 294 297 292 289 289 284 279 283 287 292 290 291 287 287 285 289 290 293
313 313 312 310 309 309 296 288 285 288 288 286 282 286 284 286 294 292 292 291 290 288 286 287 283 285 292 295 294 300 295 282 281 279 283 288 287 290 290 286 284 286 292 295
312 312 312 311 309 308 296 288 284 286 282 285 289 284 285 286 287 291 292 289 290 288 284 284 283 286 287 291 296 294 288 280 283 286 289 289 289 289 291 288 288 286 292 295
312 312 313 312 310 306 293 287 287 289 287 287 289 285 286 287 289 289 288 286 290 289 286 286 283 285 283 284 290 287 288 279 282 282 288 289 287 290 293 292 292 291 293 294
312 312 312 312 311 304 292 294 296 295 292 290 288 288 289 289 291 293 293 292 289 286 288 291 291 291 288 286 286 285 286 284 283 278 286 286 285 290 294 295 295 297 294 299
311 312 312 312 312 307 301 300 299 293 288 290 290 291 292 291 291 290 293 293 291 292 294 293 291 289 289 289 288 288 285 285 284 281 282 279 291 299 300 295 295 296 296 298
311 312 312 312 312 311 305 303 299 294 288 291 292 293 292 292 292 291 291 292 293 295 291 284 280 279 279 284 288 285 287 286 283 280 280 287 293 295 293 292 293 297 295 297
312 312 312 313 312 312 308 305 304 297 291 291 294 292 292 289 288 288 290 294 293 294 290 287 280 278 283 282 283 285 287 287 284 286 278 283 293 295 297 299 290 298 297 295
312 312 313 313 312 312 308 304 305 299 292 295 295 292 291 294 292 289 288 291 289 289 284 284 282 282 285 281 281 281 283 285 281 283 282 287 292 294 297 291 290 298 297 296
312 313 313 313 313 313 308 303 305 301 295 293 296 297 295 295 294 289 289 286 286 287 284 283 284 284 286 284 285 285 284 283 283 285 281 282 293 293 290 292 296 298 298 297
313 313 314 313 313 313 310 304 307 306 298 296 298 302 303 302 301 296 295 291 291 291 285 286 288 285 286 284 281 290 283 286 286 285 285 293 295 294 298 299 297 298 299 300
313 313 313 313 313 313 309 305 305 303 297 292 291 298 304 302 304 305 293 295 297 293 292 289 287 285 287 283 283 286 289 292 287 288 291 292 295 299 300 300 299 301 302 303
313 313 313 313 314 313 307 300 300 297 291 288 291 301 296 301 303 305 303 301 300 293 290 286 286 285 290 286 288 287 289 291 288 288 292 293 296 298 299 300 302 303 305 305
312 312 312 313 313 311 305 299 299 297 294 288 293 297 297 296 298 299 298 295 292 292 289 287 287 291 288 289 289 287 291 288 287 286 292 293 294 299 302 301 302 305 305 305
312 312 313 313 312 311 307 296 298 299 298 289 288 299 299 300 296 295 294 295 292 292 291 289 290 293 291 285 285 291 295 295 296 293 297 298 299 300 301 301 303 304 305 306
311 312 312 312 311 303 300 294 299 303 297 289 287 290 301 302 296 293 294 294 292 291 290 290 290 290 290 287 283 292 295 296 296 298 298 295 298 296 300 301 303 305 306 308
311 310 309 310 309 304 298 300 306 301 294 291 286 289 292 301 296 294 292 291 291 292 292 293 290 292 289 285 291 294 296 297 296 297 298 298 298 299 299 301 301 304 304 306
311 311 310 304 300 297 299 308 308 303 298 293 292 290 289 296 298 296 294 293 289 292 289 290 290 286 284 289 291 293 295 296 295 296 297 297 296 297 297 297 298 299 302 304
310 304 302 303 302 309 306 298 299 299 298 296 290 296 292 294 296 295 294 294 288 287 290 294 287 285 291 292 294 295 296 298 297 293 293 294 294 295 296 296 297 298 299 303
300 299 301 300 308 300 301 298 296 295 292 294 294 294 293 297 295 294 296 292 291 287 289 287 284 285 289 294 294 296 296 299 298 298 298 297 297 296 296 296 297 297 298 300
303 302 302 300 300 299 293 290 290 292 290 292 293 292 295 299 301 296 296 293 293 284 292 282 273 288 292 293 294 295 295 298 298 299 297 297 297 297 297 297 296 297 298 299
303 301 298 302 295 284 285 282 286 287 290 291 291 291 299 299 297 296 294 291 288 289 281 275 283 289 292 292 293 294 293 297 299 298 298 297 297 297 297 296 297 297 297 298
300 302 290 293 289 290 290 289 289 292 291 291 289 291 294 293 295 293 286 287 287 281 274 279 285 288 291 292 292 291 290 294 296 298 298 297 296 295 296 297 297 297 295 296
300 300 288 292 294 292 293 293 292 293 291 289 293 292 290 288 288 286 286 284 278 279 278 283 288 290 290 291 290 291 290 292 293 295 297 297 296 295 294 296 297 297 297 297
302 300 295 294 291 292 291 292 292 292 290 289 289 287 287 286 286 285 284 283 277 281 284 287 288 291 291 289 290 291 291 291 291 293 294 297 297 295 295 296 296 297 297 298
301 297 296 295 294 294 294 293 294 292 290 287 287 285 286 288 284 283 283 282 284 285 287 287 288 290 291 291 289 291 292 290 289 289 289 290 295 297 296 295 295 296 297 297

GFSNW_sfc_thetae_069.txt.gz
Theta_e
313 313 312 311 309 308 305 298 296 304 303 295 292 290 290 293 294 297 295 294 291 288 289 287 287 287 290 298 296 290 295 293 286 289 298 300 298 299 301 296 297 300 299 299
312 313 312 311 309 307 303 294 295 303 303 289 289 291 291 293 293 294 293 292 293 293 289 286 288 290 296 298 295 293 296 291 284 286 294 298 296 296 297 296 297 298 296 299
312 313 312 310 309 307 303 297 293 296 296 294 289 288 289 289 296 294 294 292 294 291 289 291 287 289 293 295 296 299 299 291 288 285 288 291 291 293 295 295 295 297 299 303
312 313 312 311 310 306 303 296 291 292 289 291 291 290 289 288 288 293 294 291 290 289 286 287 288 290 291 293 298 298 296 287 289 289 290 290 289 290 292 293 296 295 300 302
312 312 312 311 310 305 301 296 295 295 292 292 291 290 287 288 290 291 289 289 291 291 288 289 287 290 290 289 294 294 294 287 289 286 289 291 289 291 292 293 295 296 298 299
312 312 312 312 310 305 301 301 301 298 292 291 290 290 290 290 292 293 294 293 291 290 292 294 295 296 295 294 291 292 291 289 286 282 289 290 287 292 293 295 300 301 298 303
312 312 312 312 312 309 306 305 302 295 290 292 290 292 293 292 292 290 293 295 292 295 299 298 297 296 295 294 293 294 290 287 288 283 286 280 295 302 302 299 299 300 302 303
312 312 312 313 312 311 309 308 303 296 290 293 293 293 293 293 293 291 293 295 298 300 297 290 287 287 287 290 293 292 293 290 285 281 282 288 293 294 294 295 295 300 299 301
312 312 313 313 312 312 310 309 308 300 293 293 295 293 293 290 290 290 293 299 300 298 294 288 282 282 284 284 285 293 292 293 288 285 280 281 290 294 298 298 294 301 300 300
312 313 313 313 312 312 311 308 309 301 295 299 297 293 291 294 292 289 292 294 294 296 289 285 283 283 287 283 282 282 284 286 282 284 282 287 292 294 297 290 293 298 300 301
313 313 314 313 313 313 311 307 309 303 299 300 299 299 295 296 294 289 294 293 293 291 287 285 285 285 287 285 285 285 284 283 282 284 282 281 294 293 289 292 299 299 301 302
313 313 313 313 313 313 311 305 308 308 300 300 304 304 304 303 301 297 297 293 293 293 289 289 288 286 288 286 282 289 285 287 286 287 289 295 296 295 297 299 299 300 301 304
313 313 313 313 314 313 311 307 307 306 300 300 300 301 306 307 305 307 294 297 298 296 297 292 290 286 288 283 285 287 289 291 288 288 292 293 296 298 300 300 300 302 304 305
312 313 313 313 314 312 309 307 308 304 300 296 299 305 304 306 307 306 305 302 303 299 297 293 291 287 291 288 288 286 288 289 287 288 292 293 297 298 300 301 303 304 307 307
312 312 313 313 313 310 309 308 308 306 301 297 299 302 304 303 304 302 302 300 299 298 294 293 290 292 289 292 291 288 291 288 286 287 293 294 295 299 301 300 300 303 304 305
312 312 313 313 312 310 310 303 307 307 307 299 296 303 302 302 302 300 300 300 299 298 295 291 292 294 291 288 287 293 295 297 295 293 297 297 298 299 300 300 301 304 305 305
311 312 312 312 311 312 306 302 306 306 306 299 296 299 305 303 302 301 301 299 297 298 296 294 293 292 292 290 286 294 295 296 296 297 297 294 297 295 299 300 301 304 308 308
311 310 310 310 310 307 305 308 307 306 302 300 294 296 299 304 298 295 296 294 296 297 297 298 293 295 293 287 293 296 297 297 296 296 298 297 298 298 298 299 300 301 302 304
311 310 309 310 307 305 306 308 309 306 302 296 294 292 294 303 299 297 295 295 292 297 294 294 295 291 287 293 295 295 297 295 295 297 297 297 296 296 297 297 297 297 298 302
310 309 307 304 306 309 310 303 300 300 300 299 292 299 296 301 298 296 295 296 292 288 293 296 289 289 297 298 299 298 298 299 298 295 293 295 294 295 296 296 297 298 298 300
308 306 306 307 309 306 303 299 297 299 295 298 297 297 297 303 298 297 298 292 294 288 290 290 289 289 294 300 299 300 299 301 300 299 298 298 297 296 296 296 297 297 298 298
308 309 307 307 303 302 297 297 297 296 297 300 299 301 298 301 304 298 298 293 293 285 293 291 286 293 299 299 299 299 299 300 300 300 299 298 298 298 297 296 296 297 297 299
311 308 305 303 302 293 293 291 295 295 299 299 300 298 302 302 303 300 297 292 290 296 290 286 292 297 299 299 299 299 299 300 302 300 300 299 298 299 299 297 297 297 297 298
306 304 291 299 296 297 298 298 299 302 299 300 298 299 300 302 298 299 293 294 294 287 284 285 294 298 299 300 299 298 297 299 300 302 301 299 298 298 300 299 300 299 297 297
305 306 295 300 303 301 301 300 299 302 300 299 301 301 301 296 294 294 292 289 285 288 288 293 296 299 300 300 298 298 298 299 299 300 301 301 300 300 300 301 302 302 301 300
307 306 304 304 299 302 298 300 300 300 299 298 298 296 294 292 293 290 287 286 285 290 295 297 298 299 299 299 298 298 299 299 298 297 297 300 301 302 302 303 302 301 301 300
307 306 309 306 303 302 302 301 300 299 297 296 295 290 288 294 289 287 291 290 293 295 297 298 298 298 299 298 297 298 299 298 298 298 298 298 299 300 298 298 300 301 301 301

GFSNW_sfc_thetae_072.txt.gz
Theta_e
313 313 313 312 310 308 309 308 304 310 313 304 302 296 296 293 297 300 298 297 295 293 293 293 292 291 294 299 298 294 298 295 291 294 304 305 304 305 305 300 301 304 303 302
313 313 312 311 309 308 309 305 304 311 311 298 296 297 296 297 296 296 295 295 296 297 293 290 292 293 297 299 297 295 299 293 289 292 296 300 300 304 305 306 306 303 300 302
313 313 312 311 310 308 309 306 302 303 303 302 297 296 294 293 298 296 296 295 297 294 293 296 292 292 295 298 298 300 299 294 291 289 292 296 295 299 301 303 300 302 303 307
312 313 312 311 310 308 308 305 299 299 295 296 297 297 293 292 292 296 297 294 293 293 290 291 291 294 294 296 298 299 298 291 294 294 294 293 293 293 295 298 301 300 304 306
312 312 313 312 311 308 310 304 303 301 297 297 296 294 292 291 293 293 291 289 292 292 289 291 290 292 293 293 297 296 298 291 292 290 293 293 291 294 295 296 299 301 303 304
313 313 313 313 311 309 308 308 306 304 294 296 295 294 293 292 294 296 297 294 294 292 293 297 298 298 298 297 295 295 295 292 290 287 292 291 288 293 295 297 300 301 299 306
313 313 313 313 312 310 311 309 309 301 292 297 296 295 295 294 294 291 295 296 295 298 303 302 301 300 298 298 297 298 293 293 291 287 290 282 294 305 304 301 300 303 306 310
313 313 313 313 312 311 312 312 306 303 295 299 297 296 295 295 295 293 295 296 301 303 300 293 290 290 292 294 296 296 297 291 289 285 286 290 292 297 296 295 299 306 306 310
313 313 314 313 312 311 313 311 311 305 300 296 299 296 295 291 292 292 294 301 304 301 297 292 285 285 288 287 290 297 296 294 289 288 283 282 292 295 298 298 292 303 306 307
313 313 314 313 312 311 315 312 315 310 300 303 302 296 293 296 294 293 295 298 298 300 294 289 288 286 289 285 284 285 289 289 286 287 285 289 297 298 299 288 292 301 303 304
313 314 314 314 313 312 313 309 316 309 305 304 304 302 300 300 297 292 297 297 298 295 289 288 290 287 289 286 288 286 286 283 285 286 284 282 299 299 291 294 298 301 302 303
313 313 313 314 314 313 312 310 314 315 306 306 309 308 308 305 303 298 301 297 296 298 291 292 290 288 289 287 285 290 286 291 289 290 290 299 299 299 301 301 298 299 300 303
313 313 313 314 314 313 312 312 311 309 303 307 307 305 309 310 309 310 299 301 300 298 302 295 293 287 290 285 287 288 290 289 289 291 297 298 296 302 302 301 300 302 304 305
312 313 313 314 314 312 312 314 313 311 307 302 304 310 307 309 311 309 308 305 306 304 302 296 294 290 294 288 290 287 290 290 289 291 296 294 297 299 300 301 303 302 304 305
312 313 313 314 313 311 313 316 315 314 306 302 305 308 309 308 309 306 307 307 303 300 298 295 292 294 292 293 293 287 290 288 287 287 292 293 294 298 300 299 301 303 303 304
312 313 313 314 313 309 314 307 313 315 313 304 302 310 307 305 308 307 306 305 303 303 300 297 296 296 293 290 288 293 295 296 293 291 296 296 297 299 300 298 300 303 304 305
311 312 313 313 312 314 308 308 310 310 314 304 302 304 308 309 304 305 304 305 303 302 302 300 295 296 295 293 288 294 296 296 296 297 297 294 296 295 299 299 300 304 307 308
311 310 310 311 311 310 310 313 307 310 307 307 297 302 303 309 302 297 299 297 301 302 301 303 298 300 297 288 295 297 298 297 296 296 298 297 298 298 297 300 300 302 303 306
311 310 310 313 310 308 309 310 309 309 304 298 298 298 299 308 302 298 297 297 293 303 299 301 299 294 288 295 296 297 299 298 298 298 298 297 296 296 296 296 297 297 299 302
311 312 310 306 309 311 311 306 303 302 303 302 296 305 302 305 302 297 295 297 294 292 298 303 297 291 297 299 300 302 302 302 301 297 295 296 294 294 295 295 296 297 298 300
313 312 311 313 311 308 305 300 300 303 298 303 303 304 302 308 301 301 300 293 297 290 294 294 295 292 296 300 300 302 303 303 302 302 301 300 299 297 295 295 296 297 297 298
313 315 315 313 305 303 302 304 304 302 301 306 304 306 304 307 308 303 300 295 295 288 298 292 289 294 299 300 300 301 303 303 302 302 302 301 301 300 299 297 296 296 297 298
318 314 307 307 309 295 298 294 299 299 305 305 305 302 306 304 304 302 300 295 294 300 293 287 293 299 300 301 301 301 303 303 302 302 302 303 302 302 301 299 300 299 298 298
311 309 293 304 301 303 302 303 303 305 305 304 303 303 302 303 300 304 294 299 298 291 286 288 296 300 301 302 301 300 300 301 301 301 302 301 302 302 303 302 301 300 299 299
310 310 297 304 308 308 309 308 306 306 304 303 302 307 307 300 296 298 295 291 289 291 291 295 299 301 301 301 301 300 300 300 300 300 300 301 301 301 302 303 302 302 301 301
312 311 308 309 307 306 309 309 308 303 304 304 302 298 295 293 295 291 290 289 287 294 297 299 303 302 301 302 302 301 302 301 301 301 301 301 301 301 301 302 302 302 302 301
311 309 314 311 310 308 309 307 304 305 301 297 296 289 289 296 291 290 297 293 295 298 301 302 302 302 302 303 303 302 304 302 301 301 302 301 301 301 301 300 302 302 302 302

GFSNW_sfc_thetae_075.txt.gz
Theta_e
313 314 313 312 310 308 311 313 308 316 317 307 308 302 301 296 301 303 301 301 299 297 297 296 297 296 299 302 302 298 302 298 295 298 304 307 306 306 306 302 302 304 304 305
314 314 313 312 310 309 311 310 309 315 315 302 301 302 300 301 300 300 299 298 299 300 297 293 297 297 301 301 300 298 302 296 292 294 298 302 302 305 307 307 308 305 301 304
314 314 313 311 310 310 310 311 306 308 309 308 303 300 298 297 300 299 300 299 300 298 296 298 294 295 299 300 300 302 301 297 294 292 295 299 298 300 305 306 301 303 305 307
314 314 313 312 311 310 311 310 303 305 300 302 302 301 299 296 296 300 300 297 296 295 293 294 293 296 297 298 301 300 299 293 296 297 298 298 297 298 301 303 305 301 305 308
314 314 314 313 312 310 313 309 308 307 303 302 301 297 297 295 295 297 294 295 295 296 293 294 293 295 296 294 298 297 298 293 295 293 297 297 295 297 298 299 301 302 306 306
313 314 314 314 312 310 313 312 312 308 298 300 301 298 297 295 297 297 298 296 296 295 297 299 301 300 300 299 296 295 296 295 292 289 294 295 291 296 297 298 301 301 300 308
314 314 314 314 313 311 315 312 311 304 299 301 298 296 296 295 296 296 298 299 298 300 305 304 303 301 300 299 299 299 294 294 293 289 292 283 296 302 303 301 301 303 304 307
314 314 314 313 313 312 316 317 311 308 301 303 300 297 297 297 298 297 298 299 303 305 302 296 294 295 294 295 297 298 298 294 290 286 287 292 294 300 300 299 300 309 305 307
314 314 314 313 312 312 316 314 316 311 306 301 302 299 299 295 297 298 298 304 307 304 299 295 289 287 290 290 293 300 298 298 292 289 285 283 294 300 303 304 295 308 309 308
314 314 314 313 312 313 314 315 317 311 306 307 305 301 300 301 300 298 301 301 301 303 295 291 290 289 291 285 286 289 292 293 290 289 287 291 299 302 302 292 295 305 304 305
314 314 314 314 313 313 315 315 319 312 309 308 307 305 301 300 301 298 302 299 300 297 292 293 293 291 292 287 289 289 289 289 289 290 286 284 301 301 295 302 306 304 304 303
313 313 313 314 314 313 313 316 320 318 311 310 313 311 311 308 307 306 303 300 299 298 294 296 296 292 294 290 286 294 288 289 287 292 292 299 304 302 305 306 303 303 304 306
313 313 313 314 314 314 313 316 318 315 311 308 309 308 312 313 311 313 300 304 303 305 304 299 297 290 297 288 290 290 293 295 289 292 297 300 301 304 304 303 303 303 305 306
312 313 313 314 314 314 312 316 318 315 311 304 306 315 312 313 313 311 312 309 307 308 303 298 296 292 297 292 292 289 291 291 290 291 296 296 300 298 299 300 302 303 304 306
312 313 313 314 314 313 313 318 320 320 310 305 305 312 313 314 313 310 310 310 306 305 302 299 297 299 297 296 294 290 291 287 287 286 291 290 293 298 299 299 300 302 303 305
312 313 314 314 314 312 313 311 319 321 317 307 302 314 311 311 311 308 307 309 307 303 299 300 303 300 297 292 290 294 296 295 295 291 296 295 296 298 300 298 300 301 303 305
312 313 313 314 313 315 310 308 312 311 316 306 305 303 312 311 310 306 304 307 306 304 301 298 302 300 299 296 291 296 297 297 297 298 298 293 295 294 297 297 300 302 304 307
311 311 311 313 312 311 311 315 309 311 309 308 301 304 306 311 303 300 301 299 300 303 302 301 297 302 300 291 297 298 300 299 298 298 299 297 296 296 295 297 298 298 299 303
311 311 311 314 310 309 313 310 309 315 308 301 301 303 300 311 304 301 298 299 295 302 302 300 301 298 287 296 298 297 299 299 299 298 298 298 296 294 294 294 295 295 297 300
312 312 309 306 313 312 312 310 306 305 306 304 300 308 301 308 305 299 298 297 296 294 298 304 299 297 301 299 301 301 300 301 301 297 296 296 296 294 293 293 295 296 296 299
315 314 311 314 312 311 307 302 303 305 300 306 306 307 302 310 303 301 303 297 298 292 298 298 297 296 297 301 300 303 302 302 301 301 300 300 299 298 296 296 296 296 297 297
315 317 319 314 307 305 304 306 308 306 302 306 305 304 306 308 311 304 302 296 299 290 302 297 289 298 301 301 302 301 304 304 302 302 301 300 300 301 300 299 298 296 297 298
321 314 309 307 311 297 301 297 301 299 304 303 302 301 307 309 309 303 300 293 292 301 296 289 297 301 302 302 303 302 304 303 303 301 302 301 301 302 302 300 301 299 298 299
314 309 296 306 303 304 303 301 307 309 309 306 304 303 306 303 301 300 294 299 299 293 289 290 298 302 303 301 303 302 301 302 301 302 302 301 301 301 302 302 302 301 301 301
312 313 300 305 309 309 311 311 310 311 310 303 302 305 301 299 296 298 296 293 290 293 294 297 301 304 302 301 302 302 302 301 301 301 302 302 302 301 301 302 302 302 302 301
314 313 308 309 310 308 309 309 309 312 312 309 305 301 297 297 298 293 292 291 290 294 297 301 304 304 303 303 303 303 303 303 302 301 302 302 302 301 301 302 302 303 302 303
312 309 311 309 312 308 310 311 310 314 306 302 302 295 294 302 295 293 297 295 297 299 301 303 305 304 304 303 303 303 303 303 303 303 303 302 303 302 302 301 303 302 303 304

GFSNW_sfc_thetae_078.txt.gz
Theta_e
314 314 314 313 311 309 313 316 307 317 319 307 309 302 303 297 303 305 303 302 300 299 300 298 298 297 300 303 302 297 301 297 293 297 304 307 307 305 305 300 300 303 303 303
314 315 314 312 311 310 310 312 310 317 316 302 302 303 301 303 302 301 301 300 301 301 298 295 297 298 302 302 300 298 300 296 291 293 298 302 300 302 304 304 305 302 299 302
315 315 314 312 311 311 311 312 305 310 310 309 304 301 300 299 302 301 301 300 300 298 297 299 295 296 299 301 300 303 300 295 293 290 295 298 297 299 302 302 300 301 303 306
315 315 314 313 312 311 313 311 304 307 301 302 303 303 301 298 297 301 302 299 298 296 294 295 294 297 297 299 301 300 298 291 294 295 297 297 297 298 299 298 302 300 303 307
315 315 315 314 312 310 314 308 307 308 305 305 303 298 299 297 297 299 296 296 296 297 294 296 293 295 296 295 299 298 299 292 294 292 296 296 295 298 299 299 301 304 305 305
315 315 315 315 312 311 313 315 313 309 300 303 301 299 299 297 299 299 300 298 297 297 298 300 301 301 300 299 297 295 295 294 292 288 294 294 290 296 298 299 301 302 299 305
315 315 316 315 313 312 316 315 314 308 301 302 299 299 299 297 299 298 299 300 298 302 306 305 304 303 301 300 299 299 294 293 293 287 290 283 295 302 302 299 301 302 303 305
315 315 315 315 314 313 316 317 314 309 302 303 301 300 299 300 301 299 299 301 303 306 302 297 295 296 297 297 299 298 299 294 291 286 285 290 294 300 300 299 299 307 307 309
315 315 316 315 315 314 317 317 319 313 306 302 304 301 301 299 299 300 300 305 307 305 299 295 290 288 290 289 292 299 299 299 292 289 284 282 294 300 304 302 295 306 306 305
314 315 315 316 316 315 315 317 321 315 306 308 306 301 300 303 301 300 302 302 301 305 296 293 292 289 292 286 286 289 292 290 289 290 287 290 299 301 304 289 294 306 306 306
314 314 315 315 316 315 314 316 320 314 309 309 309 307 305 304 303 299 303 301 301 298 293 293 292 291 292 288 290 289 289 288 288 290 287 284 302 301 294 301 304 305 305 306
313 314 314 315 315 315 314 316 320 319 312 311 314 313 312 309 308 306 305 301 299 300 296 296 297 293 294 291 286 295 288 290 286 289 291 299 301 300 302 305 304 305 305 305
313 314 314 314 315 315 313 316 319 317 312 311 311 309 314 315 313 313 304 305 304 304 305 299 298 293 297 289 291 291 294 296 290 290 294 295 297 301 302 301 301 303 305 305
312 313 314 315 315 315 313 315 319 316 313 304 306 316 313 315 314 312 311 309 309 307 305 299 299 294 299 294 293 291 295 294 291 290 295 293 297 296 299 299 301 302 303 305
312 314 314 315 315 315 314 317 319 320 310 305 307 312 314 314 314 311 310 308 306 303 303 299 297 298 296 297 297 290 294 290 287 288 292 290 291 296 297 297 298 299 300 301
312 313 314 314 315 314 315 312 318 317 317 308 302 313 313 313 313 310 309 308 307 304 300 301 301 302 298 294 291 298 298 297 296 292 296 296 296 296 298 296 296 298 300 301
312 313 313 314 314 314 312 310 313 312 316 306 304 304 311 313 312 310 309 309 306 304 304 301 299 300 299 297 292 298 300 299 298 298 299 295 296 293 296 295 296 299 302 303
311 312 312 313 313 312 311 316 311 312 310 308 302 303 308 313 305 302 307 304 302 303 304 303 299 303 301 293 297 300 301 301 300 298 300 299 298 298 296 295 296 295 296 299
311 312 311 314 310 309 313 312 311 313 309 301 302 301 297 311 307 303 300 301 294 302 301 302 301 299 287 296 299 299 300 300 300 299 299 299 297 297 296 295 294 294 294 297
312 312 311 307 313 313 312 311 306 305 306 305 301 308 302 307 305 300 298 297 295 294 300 303 300 296 302 302 301 303 302 302 302 299 298 297 297 297 296 296 296 295 296 297
313 313 311 317 313 313 308 302 301 304 300 304 305 306 300 308 302 301 302 297 298 292 297 296 296 295 299 302 301 304 303 304 302 303 302 302 301 299 298 297 296 296 297 297
315 314 320 319 309 305 302 304 306 304 299 305 305 304 306 307 310 305 300 294 297 289 299 295 290 299 302 302 302 302 304 304 303 303 302 302 302 302 301 299 297 297 298 298
320 314 309 308 309 297 299 294 302 297 304 307 305 303 307 305 303 301 298 292 291 301 293 290 295 303 302 303 303 302 304 304 302 301 302 301 303 303 302 301 301 300 300 299
313 310 297 306 303 301 300 303 303 309 310 308 307 304 303 305 301 300 294 298 298 292 289 291 300 302 302 303 304 302 302 303 301 301 302 302 301 302 303 302 303 301 300 300
312 311 299 301 305 308 310 314 310 311 312 308 305 306 304 302 299 301 297 293 291 293 292 291 303 304 304 303 302 302 302 302 302 302 301 302 301 302 302 303 303 303 301 300
314 312 308 314 308 307 310 310 307 311 309 309 307 300 298 297 298 295 293 291 290 295 300 302 303 304 304 305 303 303 304 304 303 303 303 302 302 302 302 304 303 303 304 301
311 306 314 311 312 308 309 309 308 312 306 301 303 296 295 301 296 293 298 295 296 300 302 303 306 305 304 303 303 303 304 305 302 303 304 303 303 304 303 301 304 305 304 305

GFSNW_sfc_thetae_081.txt.gz
Theta_e
314 315 314 313 311 309 310 311 304 312 315 303 304 298 300 299 301 303 301 301 299 296 297 295 294 293 296 300 299 294 295 289 286 291 299 301 298 296 297 293 291 294 293 296
315 315 314 313 311 310 307 307 308 314 312 298 298 301 300 301 299 298 299 298 299 298 295 291 295 297 300 301 299 293 293 288 283 287 291 296 294 297 297 298 294 291 291 295
315 315 314 313 312 311 308 308 301 308 308 305 300 299 298 297 301 299 301 298 299 296 293 294 292 295 299 300 299 304 297 286 284 282 287 292 291 294 296 295 291 293 295 298
315 315 314 313 312 310 309 310 302 305 297 300 300 300 299 297 295 300 300 297 296 294 290 292 292 295 295 298 304 297 292 284 287 290 292 293 292 293 294 293 295 291 294 298
315 315 315 314 312 310 312 306 303 305 301 302 301 299 297 296 297 297 295 294 296 296 290 292 290 292 292 291 295 292 294 286 289 288 293 293 291 293 295 295 296 295 296 301
315 316 316 315 313 311 313 314 313 308 301 299 297 295 296 297 299 299 299 297 295 295 296 298 297 296 295 294 291 290 289 289 285 281 290 290 286 291 293 295 297 297 293 302
315 316 316 316 314 311 313 315 312 306 298 299 298 299 299 297 298 296 299 299 295 300 302 301 299 299 298 297 295 294 289 287 288 282 285 277 288 296 299 298 300 302 303 306
315 316 317 317 315 313 313 317 313 308 299 301 300 300 299 300 300 298 299 300 302 302 299 293 291 293 293 294 295 296 295 291 285 281 282 286 290 297 297 293 295 302 301 303
315 316 317 317 316 314 314 317 319 313 305 299 304 301 300 296 296 298 301 305 303 301 296 292 285 285 288 287 290 294 294 293 288 286 281 279 291 299 302 300 289 302 302 301
314 316 316 317 317 315 312 316 320 315 307 306 306 299 299 301 300 297 300 301 300 301 293 289 287 287 290 283 283 285 286 288 284 284 283 288 295 300 302 286 290 300 301 302
313 315 316 317 317 316 312 315 321 313 309 308 310 307 304 303 301 296 300 298 299 295 291 290 290 288 289 285 287 288 286 283 282 285 284 282 296 298 292 296 299 300 301 301
313 314 316 316 316 316 314 314 321 320 312 309 315 314 314 310 308 302 301 298 298 297 292 293 293 290 292 289 285 293 287 287 283 285 287 295 295 293 297 299 298 298 298 299
312 313 315 316 316 316 314 311 316 317 311 310 310 309 312 312 310 310 301 302 303 301 302 296 294 289 293 285 287 290 293 293 286 287 291 292 293 294 296 297 296 297 298 299
312 313 314 315 316 315 314 310 315 315 311 304 306 314 311 315 312 311 310 306 306 304 303 298 295 291 296 290 291 288 291 290 288 287 291 291 294 294 295 296 297 298 299 299
312 313 314 315 315 315 313 314 317 318 310 302 304 311 313 312 311 310 309 306 304 302 299 297 294 297 293 293 294 291 293 288 285 284 290 291 291 295 296 295 295 296 296 296
312 313 314 315 315 314 312 311 315 315 316 307 300 312 310 311 311 309 307 307 306 303 300 298 299 300 294 290 289 295 296 296 295 291 295 295 296 297 297 295 295 295 296 297
311 312 314 314 313 312 309 307 312 311 316 306 301 303 309 312 310 307 307 307 304 302 301 298 299 298 296 293 288 296 297 298 297 298 296 294 297 293 296 297 296 296 296 298
310 312 313 313 313 311 309 315 312 314 310 307 300 302 305 311 304 301 306 303 301 301 300 301 299 299 297 289 296 297 300 300 298 298 299 297 300 298 297 298 297 295 293 295
310 312 312 311 309 308 311 314 313 311 307 300 301 298 297 310 305 302 300 301 294 300 298 299 300 294 285 291 295 297 299 299 298 300 299 299 298 298 298 297 296 293 293 295
311 310 308 305 312 314 313 306 304 304 305 304 298 304 299 306 304 298 296 297 294 292 297 302 296 292 297 300 301 301 301 301 301 297 296 297 296 297 297 297 296 295 295 296
310 310 309 312 314 312 307 301 300 301 297 302 302 304 300 308 297 297 297 290 296 290 294 294 292 291 298 302 302 302 302 303 302 301 300 300 299 298 298 298 297 297 297 296
312 311 316 317 308 305 301 301 303 299 298 305 302 304 305 305 305 293 296 291 295 288 299 294 288 296 301 301 301 303 303 304 302 302 301 301 301 300 300 299 298 298 298 298
318 313 310 307 307 297 297 293 297 297 303 307 307 302 307 303 305 300 297 292 291 300 292 287 292 299 302 302 302 302 304 303 302 302 303 304 302 303 301 300 300 300 299 299
311 309 294 304 298 299 300 300 303 306 307 307 306 305 304 303 299 300 293 297 297 291 286 288 289 298 300 302 302 303 302 302 301 301 302 302 301 301 302 302 301 299 298 298
310 311 296 303 308 309 309 310 310 311 312 307 306 306 304 301 298 300 295 293 290 291 290 294 294 300 302 302 302 301 302 301 301 301 300 301 300 300 300 302 301 301 300 298
312 312 306 310 308 307 307 308 306 310 311 310 307 301 298 297 296 294 291 290 289 293 298 301 302 301 302 301 302 303 302 302 301 300 301 301 301 300 299 301 301 301 301 300
312 310 314 310 307 307 306 307 307 311 305 300 302 296 295 300 294 293 297 293 296 300 301 303 303 301 302 303 303 303 303 302 301 301 301 302 301 301 301 299 300 302 301 302

GFSNW_sfc_thetae_084.txt.gz
Theta_e
315 315 315 314 311 309 306 301 295 306 307 297 293 290 294 299 297 299 297 297 295 292 292 290 289 290 293 299 296 291 290 285 283 288 295 297 294 290 288 285 287 289 288 291
315 315 315 313 311 309 300 299 300 307 305 290 289 293 296 297 296 295 295 294 295 294 291 288 292 294 298 300 295 289 290 283 280 283 287 291 290 293 289 289 287 287 289 291
315 315 314 313 311 310 301 299 293 298 298 294 292 291 293 293 300 297 298 295 294 292 289 290 289 292 297 299 298 305 295 282 281 278 283 287 287 291 293 287 283 285 287 291
315 316 315 313 312 310 304 299 295 295 291 293 294 293 294 294 292 296 296 293 294 290 286 287 288 291 291 296 301 294 289 282 285 286 290 291 290 291 292 289 288 284 289 292
315 316 315 314 312 310 305 297 296 297 292 293 293 292 290 293 294 294 291 291 294 292 287 287 286 288 287 286 291 287 290 284 284 284 290 290 288 290 292 292 294 296 295 298
315 316 316 315 313 309 303 304 303 298 294 291 290 289 291 294 295 296 296 294 291 292 293 294 292 293 291 290 287 286 287 285 282 279 287 286 281 288 292 294 299 299 296 299
315 316 316 316 314 310 304 305 303 295 291 293 293 296 297 296 295 292 296 294 289 295 297 296 293 291 291 291 291 288 284 284 283 279 281 276 284 293 299 297 298 299 299 300
314 316 317 317 315 313 305 307 305 299 290 296 297 296 296 295 294 294 295 297 297 296 294 288 286 288 290 290 291 290 290 286 281 279 278 283 288 294 294 291 294 299 296 300
314 316 317 317 316 313 306 307 309 304 294 293 301 297 296 290 289 292 296 299 298 296 290 288 280 280 284 284 287 289 289 289 285 280 278 278 286 295 299 298 288 299 300 299
313 315 316 317 317 314 306 306 309 306 298 298 297 293 293 294 292 291 293 295 294 294 287 281 279 278 285 275 278 281 281 282 279 280 279 285 292 296 299 284 286 298 299 297
313 314 316 317 316 316 307 306 310 305 299 300 302 303 298 297 294 290 294 293 293 289 286 284 281 279 283 277 283 282 281 279 275 279 278 279 293 294 288 293 296 297 298 298
313 314 315 316 315 315 312 305 311 311 303 303 308 307 308 304 302 296 294 293 291 291 287 287 285 283 282 282 279 288 282 284 280 282 282 291 292 291 293 293 292 293 294 296
312 313 314 316 315 315 312 303 305 307 301 301 302 303 307 305 304 303 295 295 297 295 295 289 289 284 286 278 280 285 287 289 282 284 287 290 291 293 293 293 292 294 295 296
312 313 314 315 315 314 314 303 305 305 303 295 299 308 304 308 304 304 303 301 299 298 296 291 289 285 290 285 286 283 287 288 284 284 288 288 292 291 293 295 294 294 295 296
312 313 314 315 315 313 309 305 307 309 305 296 297 303 309 306 304 305 304 301 298 296 292 291 291 291 289 287 288 281 288 285 281 281 287 286 287 291 294 293 293 295 293 294
311 312 313 314 313 312 306 303 308 308 307 299 293 302 303 303 304 303 302 302 299 298 295 293 294 298 292 283 281 290 291 291 289 288 291 291 292 294 296 294 295 297 296 296
310 312 313 313 312 304 302 302 307 310 309 303 297 295 303 305 306 305 303 303 301 299 295 293 293 295 291 285 280 291 293 294 293 293 292 292 293 293 295 295 296 297 297 297
310 311 312 311 311 308 303 307 309 308 304 304 296 294 300 305 300 299 303 300 299 299 297 298 295 293 292 286 290 293 295 295 294 295 295 295 294 295 296 295 298 294 294 295
310 311 312 306 303 301 305 315 313 310 306 298 296 293 292 305 299 300 300 300 293 300 295 296 297 291 286 292 292 293 296 295 296 297 297 296 295 295 296 295 296 292 294 295
311 306 302 300 307 315 313 306 303 302 303 302 296 299 294 300 300 297 293 293 288 286 293 300 294 291 297 296 295 296 297 297 298 294 292 294 294 294 294 294 294 296 296 295
303 302 306 310 315 309 305 299 297 298 293 294 295 296 293 305 296 294 294 287 291 288 291 291 290 288 295 299 298 299 298 298 297 297 297 297 295 295 295 295 296 297 297 295
305 305 310 311 306 303 299 298 301 296 295 297 297 297 298 298 300 293 293 290 293 288 294 291 286 291 296 298 298 298 298 300 300 299 299 298 298 297 297 296 295 296 298 298
307 305 307 304 302 293 295 287 295 295 297 302 301 297 298 298 296 297 295 291 289 294 286 285 288 293 299 300 300 298 299 300 299 299 300 299 299 299 298 297 297 297 298 298
303 305 292 300 297 298 295 296 296 300 301 301 298 296 295 296 294 297 292 294 293 287 279 284 287 293 298 299 296 297 297 298 298 298 300 300 298 297 299 299 299 297 297 297
304 306 297 302 305 303 302 303 303 306 303 301 297 297 296 293 293 295 291 290 284 286 283 288 293 295 297 298 297 296 297 296 297 298 300 299 298 297 296 298 298 298 298 297
307 307 305 303 302 301 305 302 301 300 301 301 297 293 291 290 291 289 288 287 283 286 290 294 295 295 297 296 296 298 298 297 296 298 295 298 299 297 295 298 298 298 299 297
307 304 307 307 303 304 303 299 298 300 296 292 293 290 290 292 289 288 290 288 292 293 294 295 295 295 294 294 295 297 298 297 297 300 299 298 298 296 295 295 296 297 298 299

GFSNW_sfc_thetae_087.txt.gz
Theta_e
315 315 315 314 312 309 304 301 295 307 304 295 289 289 292 298 295 297 295 294 292 290 291 288 288 288 292 298 294 289 288 284 282 285 292 295 293 287 285 283 283 285 286 292
315 316 315 313 311 309 301 299 298 305 302 289 288 291 295 295 295 294 294 292 293 292 288 286 290 292 297 297 293 287 289 281 278 281 286 290 287 290 286 285 283 282 283 289
315 316 315 313 311 310 302 296 292 296 296 291 291 289 290 291 298 295 295 293 292 290 287 288 287 289 296 298 298 304 293 280 279 277 280 285 286 289 290 285 282 283 285 287
315 316 315 313 311 309 302 296 292 293 289 291 291 291 292 292 291 295 294 292 292 288 284 285 286 289 290 294 297 293 287 281 283 283 287 289 288 288 289 286 286 283 288 297
315 316 316 314 312 309 302 296 295 294 289 290 290 290 289 292 293 292 289 289 293 290 286 286 285 287 286 285 290 288 287 283 283 281 288 287 285 290 291 292 295 292 294 295
315 316 316 315 312 308 302 302 301 295 293 289 288 287 290 293 293 295 295 292 289 289 291 293 291 291 290 288 286 284 285 283 280 277 285 283 281 287 293 295 295 296 292 297
315 316 317 316 313 309 304 303 301 294 289 291 291 294 295 294 293 291 295 293 288 292 294 294 292 293 290 291 288 286 284 283 281 278 279 275 282 295 298 295 296 296 296 298
314 315 317 317 314 312 306 304 303 295 289 294 295 295 294 293 293 292 293 296 295 295 293 287 285 286 287 288 289 288 286 283 279 278 277 281 288 291 293 289 291 297 296 297
314 315 317 317 315 313 305 304 306 300 293 293 300 295 294 289 288 291 295 297 295 294 287 286 280 280 283 283 285 287 288 286 284 279 278 277 285 292 296 296 284 296 297 295
313 314 316 316 316 314 305 305 305 303 295 296 295 292 292 293 290 289 291 294 293 293 285 279 277 278 283 275 278 279 278 279 278 278 277 284 291 293 295 283 283 295 296 295
313 313 315 316 315 315 306 306 307 303 298 299 301 301 297 295 292 289 292 291 291 288 284 283 279 278 282 275 279 281 279 276 274 277 281 279 293 293 286 289 290 292 293 294
312 313 314 315 315 315 310 304 307 307 301 301 305 305 305 304 301 295 291 291 290 289 286 285 283 280 281 279 275 285 279 283 279 281 281 289 291 289 291 290 289 289 290 292
312 313 314 314 315 314 309 300 302 303 299 300 300 302 307 302 303 302 294 292 295 292 292 288 287 283 283 278 279 282 286 287 281 284 285 289 290 292 292 293 291 292 292 293
312 312 313 314 314 314 311 301 302 303 300 293 297 307 302 305 302 302 301 299 297 295 293 288 287 284 289 283 284 282 286 287 283 282 287 287 290 291 292 293 294 293 294 294
311 312 313 314 314 312 306 302 304 306 302 294 295 301 304 305 301 302 301 299 296 294 292 289 288 289 288 285 286 279 287 285 282 281 287 287 287 291 293 292 293 293 293 294
310 311 312 313 313 311 305 301 306 306 305 297 292 299 302 302 302 301 300 301 299 297 294 292 293 295 290 283 281 288 289 289 290 288 288 289 290 292 293 293 294 294 296 297
309 310 311 312 311 303 301 300 306 309 309 302 294 293 301 305 303 303 304 304 301 300 297 292 292 292 293 286 283 290 291 292 292 290 292 290 292 291 294 294 296 297 299 298
309 310 311 310 309 307 303 306 309 307 306 303 296 294 298 304 300 299 303 300 300 300 298 298 295 295 294 287 291 291 293 293 292 293 294 294 292 292 293 294 295 295 296 297
309 310 311 305 302 300 305 315 312 310 306 298 296 290 288 301 298 300 299 298 292 297 292 294 296 292 287 292 292 292 295 294 295 297 295 294 293 294 294 294 294 292 295 297
310 305 302 299 304 315 314 305 302 302 302 301 295 294 294 297 297 296 293 291 287 286 291 298 293 290 296 298 297 296 295 298 297 293 291 292 292 293 293 293 293 293 294 297
302 300 300 306 314 306 302 296 295 297 292 292 293 293 295 304 297 292 294 289 290 288 291 289 287 288 294 298 299 296 296 297 297 297 296 295 295 293 293 294 294 294 294 296
304 304 306 307 302 300 299 299 299 296 291 295 294 296 297 300 297 293 290 290 292 287 292 290 284 287 293 295 299 299 297 298 300 299 298 297 297 296 295 294 294 293 294 297
305 303 306 302 300 290 291 286 291 291 295 297 296 293 296 295 294 294 293 290 286 291 284 285 285 290 294 296 297 299 300 300 298 298 298 299 297 298 297 296 295 293 294 295
302 302 292 300 294 295 294 294 297 299 298 297 295 293 293 293 292 293 289 290 290 285 278 283 286 289 293 295 297 296 296 297 298 298 299 298 298 297 297 297 297 295 294 295
302 304 295 300 302 300 300 300 299 301 300 298 295 294 294 291 290 290 288 288 283 283 281 286 289 291 292 293 294 294 295 296 295 295 296 297 299 297 297 297 297 296 295 295
303 304 302 300 301 299 301 300 299 299 299 299 295 291 289 289 289 288 286 285 282 285 288 291 291 292 293 292 294 294 295 295 295 295 295 295 297 297 296 296 298 296 296 295
305 302 303 306 300 299 300 296 296 297 294 290 291 289 288 290 287 286 288 286 289 294 295 294 292 292 291 293 295 295 296 297 298 295 296 295 296 297 296 295 295 295 297 297

GFSNW_sfc_thetae_090.txt.gz
Theta_e
315 315 315 314 312 309 304 299 293 304 301 293 287 287 290 296 294 295 293 292 291 289 289 287 286 287 290 295 292 287 288 283 281 283 290 292 290 286 284 285 283 283 287 291
315 315 315 313 311 309 300 297 295 302 300 288 286 290 292 294 293 292 292 291 291 289 286 286 289 291 296 297 292 285 287 280 277 281 285 288 287 289 284 283 282 281 287 291
315 315 315 313 311 309 302 295 291 295 294 289 289 287 288 290 296 293 293 292 291 288 286 287 285 288 294 295 298 303 292 280 278 278 280 284 285 288 288 284 282 282 285 293
315 315 315 313 311 309 300 294 291 291 288 290 289 289 290 291 290 293 292 291 291 287 283 285 285 288 289 293 296 291 287 281 281 282 286 287 287 287 287 285 285 284 287 298
315 316 316 314 312 309 301 297 294 291 288 289 288 289 286 290 290 290 288 289 291 289 285 285 284 286 285 285 289 286 286 284 282 281 287 286 287 291 291 293 294 292 295 293
315 316 316 315 312 308 301 300 298 294 291 288 286 286 288 291 291 293 293 291 288 288 289 291 290 289 287 287 286 283 283 282 279 276 284 283 280 286 293 293 294 294 291 295
314 316 316 316 313 308 304 301 298 292 288 290 290 292 293 292 292 290 293 291 288 291 294 293 292 290 289 290 287 285 283 281 279 277 278 274 281 294 297 294 295 296 296 297
314 315 317 317 315 312 305 302 300 293 289 292 293 293 293 292 292 291 292 294 293 294 292 286 284 284 285 288 287 287 284 283 279 278 276 280 286 291 292 289 291 296 295 296
314 314 316 317 315 312 305 302 303 297 293 292 298 293 292 289 287 290 293 295 293 293 287 285 279 279 281 282 284 285 286 285 283 278 278 277 284 292 295 295 285 295 296 295
313 314 315 316 316 314 305 304 303 300 294 295 295 292 291 291 289 289 290 292 292 291 284 278 277 277 282 275 279 280 277 279 279 278 278 283 290 293 295 284 284 295 295 294
313 313 314 315 315 315 306 305 304 302 296 297 299 299 294 292 291 289 291 291 290 287 283 282 278 277 283 274 278 280 279 277 276 279 281 279 293 292 288 289 292 293 292 293
312 313 314 315 315 315 308 303 304 305 301 299 303 303 302 303 300 294 290 290 289 289 285 283 281 278 281 279 275 283 278 282 279 281 282 289 291 289 292 291 289 290 291 292
312 312 313 314 315 314 307 299 300 302 299 298 299 300 304 301 302 301 294 291 293 290 291 287 285 283 282 277 279 282 285 286 281 283 285 289 291 292 293 292 291 292 292 292
311 312 313 314 314 313 309 300 300 302 298 293 296 305 301 305 300 301 300 298 295 294 292 288 287 283 288 282 283 281 285 286 283 283 286 287 291 291 292 292 294 293 294 294
311 311 312 313 313 311 304 301 302 304 300 293 295 300 302 301 300 301 299 299 297 294 291 289 287 288 287 284 286 279 286 284 282 282 288 287 287 291 293 292 292 294 293 293
310 310 311 312 312 309 304 300 304 305 303 296 292 298 301 305 302 300 299 301 300 297 294 293 292 294 289 283 282 289 288 289 290 289 289 290 291 292 293 292 293 294 294 295
309 309 311 311 310 302 300 299 304 308 307 302 292 293 300 304 303 301 301 303 301 300 297 295 294 293 291 285 284 293 290 292 292 291 292 290 292 291 293 293 295 297 297 297
309 309 310 310 309 306 303 307 309 308 305 303 291 291 295 301 296 295 302 300 300 297 298 298 296 295 294 287 293 295 294 294 292 292 293 293 293 293 294 294 295 294 294 295
309 310 310 304 302 300 306 314 312 309 305 296 293 289 291 303 298 299 296 295 292 295 292 293 293 288 285 291 295 295 295 294 295 294 293 293 293 294 294 294 294 293 293 294
310 304 301 299 305 315 311 303 299 300 297 296 293 292 291 298 298 295 293 292 289 287 292 297 292 290 297 298 297 296 296 296 296 294 292 293 293 293 294 294 295 294 294 295
301 300 300 304 312 304 299 294 293 293 290 291 292 291 293 303 292 292 293 289 291 287 290 290 287 286 291 296 297 300 297 296 298 299 298 296 296 294 294 294 295 295 295 294
303 303 305 306 302 299 298 294 294 291 290 292 292 294 299 301 298 291 288 291 291 287 294 290 284 286 291 294 296 297 296 298 299 298 298 298 298 297 295 295 294 294 296 296
303 302 302 302 300 289 289 286 290 290 293 295 296 292 297 294 292 291 293 290 285 290 285 280 284 288 292 293 295 297 298 298 299 299 299 299 299 300 298 296 295 295 295 295
300 301 292 299 292 293 292 292 293 297 296 295 294 291 292 291 291 290 287 289 289 285 277 283 287 289 291 293 295 296 296 297 297 298 299 299 298 297 299 298 296 296 294 295
300 302 295 299 300 298 298 298 297 298 298 296 293 293 292 290 289 289 287 287 284 283 281 285 290 291 291 292 294 294 294 295 295 295 295 297 297 297 298 300 298 296 295 294
301 300 302 301 302 299 297 297 297 298 297 296 294 290 288 287 288 287 286 285 282 285 287 290 291 291 291 291 293 295 296 296 295 295 297 297 297 297 298 298 298 297 296 295
301 300 302 305 298 298 298 296 294 296 293 290 290 288 287 289 286 285 287 285 288 290 292 292 292 292 292 293 294 296 296 296 295 294 295 296 298 298 297 296 297 297 297 296

GFSNW_sfc_thetae_093.txt.gz
Theta_e
315 316 315 314 312 309 308 307 302 310 309 301 297 296 296 296 297 299 298 298 295 293 293 292 292 292 295 300 297 294 296 295 291 292 296 297 297 294 294 297 295 296 301 299
315 316 315 314 311 309 310 306 304 310 309 296 296 297 297 298 297 296 296 295 296 295 293 291 293 295 298 301 299 294 295 291 289 290 294 296 294 294 295 294 296 296 296 298
315 316 315 313 311 309 307 305 300 304 302 298 297 296 295 295 298 296 298 296 296 295 293 295 293 294 297 299 301 302 298 291 289 290 291 293 291 291 293 294 295 294 297 301
315 316 315 314 311 309 309 303 298 298 296 297 297 297 296 294 294 297 298 296 295 294 292 293 292 294 296 298 299 297 297 290 291 291 292 292 290 290 291 293 294 294 300 300
315 316 316 314 312 309 309 306 303 299 297 296 297 295 295 294 294 295 294 294 295 296 293 294 292 294 295 294 297 295 295 291 292 289 291 292 291 294 294 295 297 300 303 300
314 315 316 315 312 310 310 307 305 304 295 295 295 296 295 295 296 297 297 297 296 295 296 298 297 297 297 297 296 293 294 292 290 286 289 290 287 293 296 297 299 301 300 300
314 315 316 316 313 310 313 310 306 303 296 297 296 297 297 296 297 295 298 297 296 297 302 301 300 299 298 298 296 295 293 292 292 287 288 281 291 300 300 298 299 302 301 302
314 315 316 317 314 311 313 311 309 304 298 299 298 298 297 298 299 297 297 299 300 302 300 296 293 293 294 294 295 295 295 294 289 287 286 287 292 297 298 297 295 301 301 301
314 314 316 317 315 312 313 311 310 307 303 300 302 299 299 297 297 298 299 301 302 301 298 294 288 287 290 289 291 295 294 296 293 288 285 283 291 297 301 301 291 301 302 300
313 314 315 316 316 313 314 312 311 310 304 304 303 300 299 299 298 298 299 300 299 300 296 292 290 289 289 287 288 289 291 293 290 289 287 290 296 297 300 289 293 301 300 298
313 313 314 315 315 315 313 312 312 311 308 307 304 304 300 299 300 298 299 298 298 297 293 292 292 292 290 287 289 290 290 289 289 289 287 284 299 297 294 298 301 300 298 297
312 313 313 314 315 315 310 312 310 312 310 307 309 309 308 307 306 303 298 299 298 300 295 294 293 291 289 291 288 292 289 293 292 292 292 296 300 297 300 300 299 297 298 298
311 312 313 314 314 314 310 309 309 311 309 308 308 307 310 310 309 309 304 301 301 299 301 296 296 292 294 290 291 292 294 294 294 291 295 296 299 299 300 300 298 299 299 299
311 312 312 313 314 313 310 310 310 311 307 302 303 310 310 312 309 308 307 305 302 301 302 298 296 294 295 293 293 293 295 295 294 293 295 295 297 300 301 300 299 299 299 299
310 311 312 313 313 310 310 311 311 312 308 302 304 308 309 310 307 306 306 305 303 299 297 297 295 296 295 294 294 292 296 295 294 294 299 299 297 301 302 300 299 299 299 299
309 310 311 312 312 309 313 309 313 313 311 306 300 307 307 308 308 306 305 306 304 302 300 297 299 299 296 293 291 297 298 299 302 299 301 299 300 300 301 301 301 300 300 301
308 308 310 311 310 310 308 307 311 310 310 306 301 301 306 309 308 308 307 307 304 303 299 297 296 296 297 293 290 296 297 300 300 299 299 297 298 299 301 301 302 301 302 303
308 309 310 310 308 309 310 313 311 311 310 308 300 300 303 308 304 302 304 303 302 298 297 297 295 296 294 288 297 300 301 300 299 298 300 301 302 302 302 302 302 301 302 303
309 310 310 310 310 310 311 314 313 313 310 303 300 297 296 307 303 302 300 299 293 297 294 294 294 290 286 293 296 299 301 300 300 301 300 300 299 301 301 301 301 301 302 302
310 309 309 307 311 314 313 311 307 306 305 305 298 301 300 305 304 297 298 297 294 291 295 298 294 294 300 302 302 301 303 303 302 299 299 300 300 302 303 302 304 304 303 302
309 308 308 312 313 312 308 302 301 302 299 301 301 301 301 305 299 295 298 294 293 289 293 293 289 291 298 301 302 304 305 304 302 304 305 304 304 303 303 303 303 303 303 302
308 309 311 312 309 305 301 300 300 299 298 300 301 303 302 303 302 298 297 293 294 287 296 291 288 297 300 301 301 302 302 303 303 304 304 304 304 304 303 304 303 303 303 303
309 309 308 303 302 293 295 293 298 300 302 303 302 301 304 302 303 298 296 291 292 297 292 286 294 301 301 301 302 302 304 304 304 304 305 305 305 305 304 304 303 303 303 302
307 305 292 299 298 301 301 302 303 306 305 304 304 301 302 301 299 300 293 297 295 291 287 289 299 301 300 301 303 302 302 303 302 302 303 303 304 304 305 305 304 303 301 301
305 307 296 302 307 307 307 307 306 307 307 305 302 301 302 300 297 298 295 291 289 291 291 297 301 301 301 301 302 301 302 302 302 303 302 301 302 302 303 304 305 303 301 301
305 304 303 306 305 306 306 307 307 307 306 305 304 300 296 296 297 293 291 289 288 294 298 302 303 301 302 302 302 301 302 302 302 302 302 302 302 302 301 304 304 303 302 300
305 307 311 309 308 308 307 306 305 307 306 300 300 294 292 297 294 292 296 293 296 300 301 303 303 303 303 303 301 301 301 301 301 301 301 301 303 303 301 301 303 304 303 302

GFSNW_sfc_thetae_096.txt.gz
Theta_e
315 316 316 314 312 309 310 315 308 317 318 309 310 303 301 298 302 305 303 303 301 299 298 298 298 297 299 303 302 300 303 303 299 299 301 302 303 303 305 301 301 304 304 304
315 316 315 314 311 310 317 313 311 318 316 303 301 303 301 302 300 301 301 300 302 302 299 296 298 299 301 303 302 301 302 301 295 296 300 301 300 302 304 305 306 303 300 304
315 316 315 313 311 310 315 312 305 309 310 310 303 301 299 298 302 301 302 301 302 301 299 302 299 298 299 303 302 302 302 301 297 295 297 301 298 297 300 303 301 303 303 304
315 316 315 314 312 310 315 312 304 306 303 303 304 303 301 298 297 301 302 300 300 300 298 299 298 299 300 301 301 302 303 297 299 297 297 297 296 296 296 299 302 301 307 305
315 316 316 315 312 309 318 310 308 309 305 303 303 299 299 297 298 299 298 299 299 301 299 300 298 300 301 300 301 302 302 297 298 294 295 295 295 297 298 298 301 305 307 301
315 316 316 315 312 312 317 318 314 310 298 301 301 300 299 299 300 300 302 301 301 299 300 303 304 304 303 303 302 298 298 298 296 293 294 294 291 297 298 300 303 307 304 307
315 316 316 316 314 312 321 318 314 308 301 305 301 299 300 299 300 298 300 301 301 302 307 306 305 304 303 303 302 302 297 298 296 296 293 286 297 303 302 301 303 308 309 309
314 315 316 317 315 312 321 322 317 310 304 304 302 300 300 302 302 300 300 302 305 308 304 300 296 297 297 298 301 301 302 298 294 291 290 293 295 300 300 300 300 306 308 309
314 315 316 317 315 313 322 320 321 314 308 304 305 303 301 302 301 300 302 305 308 306 303 299 291 292 293 293 295 301 300 301 296 293 289 286 297 302 306 305 296 307 308 308
313 314 315 316 316 314 319 319 322 317 308 309 308 305 304 305 303 303 303 303 303 306 300 295 295 296 297 292 292 294 296 296 293 293 291 295 301 304 306 292 299 308 308 307
312 314 314 315 315 315 317 319 322 317 310 312 310 309 306 306 305 301 305 302 303 302 297 298 297 296 297 293 296 296 296 294 295 295 291 289 304 302 297 305 308 307 306 304
311 313 314 315 315 314 312 317 321 320 313 313 316 314 313 311 310 308 307 305 303 307 302 302 303 298 299 297 294 299 294 298 298 297 298 302 305 304 307 307 306 304 304 303
311 312 314 314 314 314 312 317 319 318 313 312 312 311 316 318 315 316 306 308 308 306 309 304 302 296 301 295 296 297 299 301 296 296 300 301 304 305 306 304 304 304 304 304
310 311 312 314 313 312 311 319 319 318 314 306 307 317 313 317 316 315 315 312 309 309 306 302 300 298 302 298 299 299 302 301 299 298 301 301 304 305 306 305 304 303 304 304
310 310 312 313 312 311 318 321 320 321 313 306 308 313 315 315 314 312 312 312 308 307 303 299 298 303 300 302 299 298 302 300 298 297 301 302 301 306 307 305 304 304 304 303
309 310 311 312 311 309 318 313 320 321 318 310 303 313 312 313 313 312 311 310 307 305 302 301 302 303 300 296 294 300 304 304 305 301 304 304 306 305 306 305 305 305 305 305
308 309 311 311 311 316 313 311 315 312 319 310 305 304 312 313 312 312 310 311 304 304 299 297 297 299 298 292 291 298 301 303 304 305 305 302 304 302 305 305 305 304 305 305
308 310 310 311 310 310 314 318 314 316 315 313 306 304 307 312 308 305 310 306 307 304 298 299 296 297 295 289 296 301 303 304 303 305 305 306 306 306 305 306 306 305 304 305
309 310 311 316 315 315 316 314 314 321 315 309 309 302 298 313 308 308 307 307 298 304 298 299 298 293 288 297 301 300 301 300 302 304 306 305 304 305 306 306 305 304 304 305
310 313 315 311 317 313 314 314 312 312 313 313 308 309 303 309 308 304 304 305 298 293 300 303 299 296 303 305 306 306 303 306 307 303 302 303 303 304 305 305 307 307 307 307
315 314 313 318 314 316 314 308 307 309 305 309 310 308 305 312 300 300 305 297 299 291 295 295 294 296 300 303 305 309 309 308 307 308 305 306 305 305 305 306 307 308 307 306
312 316 318 319 313 310 305 306 305 305 302 307 307 307 309 309 310 301 301 295 298 290 301 295 292 301 303 305 305 306 305 306 306 307 306 307 307 308 308 307 307 307 308 308
318 315 310 308 308 296 299 295 300 302 307 309 307 305 309 306 307 303 300 292 292 303 293 290 296 302 305 306 306 307 307 307 306 306 308 308 307 308 307 306 308 308 308 308
312 308 294 304 303 306 307 306 306 310 312 310 310 307 306 308 302 303 295 298 299 293 291 291 299 304 306 307 307 306 305 305 305 305 306 305 306 306 307 308 308 308 307 307
307 311 299 306 313 314 313 313 311 312 315 310 308 308 307 304 301 303 300 294 291 294 293 298 302 307 308 307 306 306 306 304 303 303 303 304 305 305 305 307 309 308 308 306
308 309 309 313 310 308 309 308 307 312 312 314 310 304 300 299 301 296 293 291 290 296 302 304 307 307 307 307 306 306 305 303 301 301 302 302 302 303 304 307 307 307 306 305
308 311 315 314 313 311 310 309 309 314 309 305 305 295 294 302 296 293 300 295 297 301 304 307 308 308 307 307 306 305 304 302 302 302 303 303 304 304 304 303 306 305 306 306

GFSNW_sfc_thetae_099.txt.gz
Theta_e
316 316 316 315 312 310 308 316 309 321 321 309 310 306 306 299 305 308 306 306 303 301 301 301 301 300 303 305 307 305 308 306 301 302 307 308 309 308 309 303 303 306 305 303
316 316 315 314 312 310 318 314 313 319 317 305 304 306 304 305 304 304 305 304 305 306 302 299 302 302 304 305 305 305 307 303 299 299 303 306 305 308 309 309 309 305 302 304
316 316 315 313 312 311 315 314 308 311 314 312 306 303 302 301 304 303 305 305 307 305 303 306 301 301 303 305 304 305 308 303 302 296 300 304 302 303 306 307 303 305 306 306
316 316 315 314 312 311 315 315 307 311 306 306 306 306 303 300 300 303 305 303 304 304 302 302 302 303 303 304 303 306 306 300 302 302 301 302 302 302 301 303 305 303 310 308
316 316 316 315 313 310 319 313 310 309 308 306 306 300 302 300 300 302 300 301 302 303 303 304 302 304 304 304 305 306 306 301 302 300 300 300 299 301 301 302 304 305 312 307
315 316 316 316 313 312 318 319 315 313 301 304 303 304 302 301 302 303 304 303 303 302 303 307 308 309 308 307 305 303 304 302 300 296 301 299 296 300 302 303 304 306 307 312
315 316 317 317 314 312 323 319 317 310 305 306 303 302 302 301 303 301 302 304 304 306 310 308 307 307 306 305 305 305 301 302 301 296 299 289 300 306 304 303 305 309 315 314
314 316 317 317 315 313 322 323 318 312 307 306 303 302 303 304 303 303 302 305 308 310 307 303 299 299 300 301 302 303 304 302 297 294 294 297 299 302 302 302 303 310 313 313
314 315 316 317 316 314 322 322 325 316 309 306 307 304 304 304 303 303 305 308 312 308 304 300 294 294 297 296 298 303 303 303 299 297 291 290 300 304 307 307 297 310 314 314
313 315 316 316 317 315 318 322 326 318 310 311 309 307 307 309 306 305 306 305 305 308 302 297 297 298 300 296 295 297 297 298 294 295 294 298 305 307 307 295 300 310 312 312
312 314 315 315 316 316 316 321 324 318 312 314 312 310 308 309 307 303 308 305 305 304 299 299 300 299 302 298 300 299 298 297 296 297 294 291 307 305 298 308 312 311 311 312
312 313 314 315 315 315 314 319 323 323 315 315 317 317 316 313 313 309 310 307 307 308 302 305 305 302 302 300 296 303 297 301 300 300 299 308 308 308 312 311 310 310 310 308
311 312 314 315 315 315 314 319 322 320 313 314 313 313 318 319 317 317 307 311 311 311 311 305 303 299 302 297 298 300 303 305 301 301 303 305 306 308 311 310 310 308 308 308
311 311 313 314 314 314 313 320 321 319 314 307 310 319 315 319 319 317 316 315 316 314 309 303 301 299 305 300 301 302 304 305 302 301 304 305 306 308 309 308 308 307 307 307
311 311 312 313 314 313 316 325 325 324 316 307 306 314 317 318 318 316 316 315 313 309 305 301 300 303 303 302 303 301 305 303 301 299 305 305 306 309 310 309 307 307 306 306
310 310 311 312 313 313 320 316 323 324 321 312 301 314 313 316 317 315 314 315 315 314 309 305 304 307 304 300 297 303 306 308 307 305 309 307 309 309 310 309 309 309 307 307
309 309 311 312 312 316 316 313 316 313 322 313 303 303 312 315 312 312 311 312 312 310 301 298 297 298 301 294 295 304 306 308 308 309 308 305 306 305 307 307 308 306 308 308
309 310 311 312 311 311 317 319 317 316 318 315 305 302 305 314 307 309 313 310 307 305 302 303 299 298 297 291 301 305 304 305 306 307 308 307 308 308 307 308 308 306 305 306
310 311 312 316 316 315 318 316 316 324 318 310 309 302 300 312 307 310 307 310 301 306 301 300 300 296 288 299 304 303 306 303 304 306 305 305 306 307 307 307 306 305 305 307
310 314 317 311 317 311 315 318 315 315 314 313 308 311 301 311 305 303 302 303 300 300 300 307 299 299 304 306 307 308 309 309 308 303 303 305 304 305 305 305 307 307 307 307
318 316 314 321 314 319 314 308 308 310 306 310 310 308 307 313 302 300 306 301 299 293 298 298 297 297 302 304 305 308 310 310 310 309 308 309 307 306 304 306 307 308 308 308
315 319 320 322 318 311 304 304 307 305 302 308 307 308 310 310 312 304 306 296 300 291 304 298 294 302 306 305 305 307 306 308 308 308 307 307 307 309 309 309 306 305 307 310
322 317 313 308 310 297 301 297 302 303 307 309 309 306 311 310 308 301 303 294 297 302 299 293 297 306 307 307 307 307 307 307 307 307 307 308 308 309 308 308 308 310 308 309
313 309 297 305 304 306 307 307 307 310 311 310 309 308 307 308 303 302 296 299 302 294 292 294 301 306 308 307 308 307 306 306 304 305 306 307 307 307 308 308 308 307 308 309
310 311 301 307 311 314 313 311 310 310 315 311 308 308 308 303 301 303 300 296 292 295 295 300 306 309 308 307 306 305 305 306 305 304 303 304 304 305 305 307 307 310 310 309
310 311 309 312 311 310 310 309 309 311 311 312 309 304 301 300 302 297 295 293 291 296 301 304 308 309 309 308 307 307 307 305 304 303 303 303 303 303 303 305 306 307 309 307
309 310 314 313 312 311 311 311 312 312 309 306 307 298 297 303 298 295 300 296 299 302 304 307 311 309 310 309 309 307 306 305 304 304 304 303 303 304 304 303 306 307 309 308

GFSNW_sfc_thetae_102.txt.gz
Theta_e
315 316 316 315 312 310 311 316 308 322 321 308 310 305 306 301 306 308 306 306 304 303 303 301 300 300 304 307 307 304 309 305 301 303 309 310 309 308 309 303 303 306 305 305
315 316 315 314 312 311 316 314 314 318 316 304 305 307 304 306 305 305 305 304 305 305 303 299 302 303 306 306 306 304 307 303 298 300 304 307 305 308 309 309 308 304 301 306
316 316 315 314 312 312 315 314 307 311 311 311 307 303 303 302 305 305 306 306 307 304 303 304 301 302 304 306 306 311 310 302 301 295 300 304 302 305 307 306 302 304 307 307
316 316 315 314 313 311 315 315 308 311 305 306 306 306 304 300 300 303 305 304 304 304 300 301 302 304 304 305 303 307 305 299 302 303 304 303 304 303 305 303 305 303 308 309
316 316 316 315 313 311 320 311 310 309 307 306 306 300 303 300 300 303 301 301 303 305 303 303 301 304 304 303 306 305 306 299 302 300 303 302 300 303 303 303 303 311 312 310
316 317 316 316 314 313 320 317 314 312 302 305 304 305 304 302 303 304 305 304 303 302 305 308 309 310 309 308 306 304 304 302 299 295 301 300 296 301 302 303 305 307 308 313
315 317 317 317 315 313 321 318 317 310 304 305 304 303 303 302 304 302 303 305 305 308 309 308 308 307 306 306 305 307 302 302 301 296 299 290 300 307 306 303 305 309 315 316
314 316 317 317 316 314 320 321 318 313 306 306 304 302 303 305 303 303 303 306 309 310 306 302 298 299 300 301 303 303 304 302 297 294 294 298 301 304 302 301 301 314 315 316
314 315 316 317 316 314 320 322 323 318 309 306 308 304 305 304 304 304 305 308 311 308 303 300 295 294 298 296 299 304 303 303 299 297 291 289 299 305 307 306 297 310 316 315
313 315 316 317 317 315 315 322 325 319 311 311 310 308 308 308 306 304 307 306 305 307 301 297 297 297 302 297 296 297 297 298 294 295 294 298 305 307 307 295 300 311 316 316
313 314 316 316 317 316 315 322 325 317 314 314 314 311 309 309 307 302 308 306 306 304 299 298 299 300 302 300 300 300 298 296 295 296 293 290 308 306 300 309 312 312 313 313
312 313 315 316 317 316 315 319 322 322 315 314 318 316 316 313 313 309 309 307 308 307 302 303 303 300 301 300 296 303 296 302 299 300 300 309 309 309 312 313 313 313 313 312
312 312 314 315 316 316 315 319 322 319 314 313 314 313 318 320 318 317 306 311 313 311 312 305 303 299 303 297 298 300 303 306 301 302 306 307 308 310 311 312 311 311 311 310
311 312 313 315 316 315 314 321 321 319 315 309 309 319 316 319 318 317 316 314 316 314 311 305 301 298 304 300 302 301 303 304 302 302 305 306 306 308 309 309 311 310 310 309
311 311 312 314 315 314 316 323 324 324 317 308 308 316 317 319 318 316 316 314 312 309 306 304 301 306 304 304 303 301 305 304 303 299 306 306 307 309 310 309 308 308 308 307
311 311 311 314 314 313 318 317 323 323 322 318 306 315 312 316 317 315 314 312 311 311 313 307 307 309 304 301 300 304 307 308 310 305 310 310 309 311 311 309 309 309 308 308
310 310 312 314 313 315 316 314 317 314 322 313 305 306 313 316 314 313 312 313 309 309 306 304 303 301 302 300 297 304 307 309 309 310 310 307 308 307 310 310 311 311 310 309
310 311 312 313 312 312 316 319 316 316 320 315 304 304 308 314 308 309 313 311 307 307 303 304 301 301 298 292 301 305 307 309 308 308 309 309 309 310 308 309 308 307 306 307
311 312 313 317 315 318 318 317 317 324 319 310 307 303 302 312 308 308 308 309 301 307 303 302 302 300 290 299 303 305 307 306 306 308 307 308 306 307 308 307 306 305 306 306
311 314 318 314 319 313 315 316 316 316 314 312 307 310 303 309 308 306 303 306 302 298 301 304 299 299 305 308 309 308 308 309 308 304 303 306 305 306 307 306 307 308 307 309
318 317 314 321 315 319 317 310 307 309 305 309 309 309 306 311 304 303 306 302 301 295 299 298 297 297 304 307 305 308 311 310 309 309 310 310 309 307 307 308 309 309 309 309
314 316 322 322 316 313 308 307 308 304 303 308 307 307 308 309 310 305 305 299 300 293 303 297 295 302 308 307 305 306 308 307 307 308 308 307 307 308 307 309 309 308 312 312
322 318 312 311 311 297 302 299 302 303 307 309 308 306 309 310 308 304 303 296 295 304 296 296 298 307 309 308 308 307 308 309 308 307 308 308 308 310 310 309 310 308 310 310
313 308 295 305 304 306 307 306 307 311 310 309 310 307 306 308 303 303 297 301 301 294 294 294 302 308 309 308 308 307 306 307 306 306 307 306 307 307 309 309 308 307 306 301
309 311 300 307 311 313 313 311 310 310 312 311 308 307 307 304 302 303 300 297 293 295 295 299 306 311 310 308 307 306 307 307 305 305 304 304 304 303 304 307 310 310 306 302
311 311 310 313 310 310 310 309 309 311 310 311 309 305 302 301 301 299 296 294 292 296 301 306 311 311 310 309 308 307 307 307 305 304 304 303 304 304 304 306 306 306 307 302
309 309 314 312 312 312 312 312 311 314 309 306 307 300 298 303 297 296 301 297 300 304 304 310 315 313 311 309 308 307 307 305 305 304 305 304 305 305 304 304 305 306 306 307

GFSNW_sfc_thetae_105.txt.gz
Theta_e
315 316 316 315 312 311 312 312 303 318 319 302 306 301 305 304 304 307 305 305 304 301 301 299 297 300 301 305 303 299 301 299 297 298 305 305 302 299 299 294 293 300 303 302
315 316 315 314 312 311 310 307 311 317 310 297 302 305 303 304 303 303 304 303 304 303 300 298 301 302 306 305 304 298 300 295 291 294 297 300 297 301 298 298 298 296 296 303
315 316 315 313 312 312 309 309 306 308 307 307 303 300 301 300 304 303 304 304 304 302 299 301 299 301 304 304 302 315 308 297 295 289 293 299 296 300 301 297 293 302 305 306
315 315 315 314 313 312 310 313 306 309 302 302 302 303 302 301 299 303 304 304 303 300 297 299 300 303 300 303 307 304 299 294 297 297 301 301 299 299 301 296 299 301 305 306
315 315 316 315 314 311 315 311 305 307 303 305 302 300 299 300 300 302 300 299 302 301 300 300 299 302 298 297 301 298 301 294 297 294 300 300 297 299 301 300 309 309 309 306
315 316 316 315 314 312 317 317 316 311 303 301 300 301 301 301 302 303 304 302 302 300 300 303 302 303 304 303 299 299 298 297 294 290 298 297 292 296 298 298 300 311 305 309
315 316 317 316 315 313 314 319 314 310 304 303 301 302 303 302 302 301 302 304 303 305 305 304 300 299 301 301 299 299 296 296 295 291 294 284 294 304 302 299 301 312 313 314
315 316 317 317 316 314 314 321 316 313 305 305 302 303 304 303 302 301 304 304 305 305 302 296 293 292 292 297 298 296 297 294 291 287 288 293 298 302 299 297 307 315 313 314
315 315 317 317 316 314 315 322 322 316 310 303 307 304 307 300 301 301 304 307 307 304 298 295 290 289 295 294 296 296 297 296 292 290 286 285 296 302 305 302 299 314 315 314
314 314 316 317 317 315 313 318 324 316 310 310 309 304 305 306 303 301 303 304 303 302 295 291 292 294 300 292 294 291 291 291 288 288 288 295 302 304 305 292 296 309 315 312
314 314 315 316 317 317 314 317 325 315 311 311 312 311 307 307 305 300 305 303 303 300 295 294 295 296 297 295 295 294 293 290 288 289 286 288 306 305 299 303 308 310 311 309
313 314 315 316 316 316 315 318 323 323 314 312 315 314 316 314 311 305 305 305 306 304 300 299 300 296 298 296 290 297 289 296 293 294 295 303 306 305 307 309 307 308 308 308
313 313 314 315 316 316 314 317 322 318 315 313 312 311 316 316 314 314 304 308 310 308 309 303 301 297 298 292 294 296 297 301 295 297 304 303 305 307 308 309 307 308 309 309
312 313 313 314 315 315 314 318 322 320 316 306 309 317 314 318 316 315 314 310 313 310 308 301 297 295 302 297 299 296 300 299 297 296 299 302 305 306 306 306 308 307 307 305
312 312 312 314 315 314 313 318 323 324 315 306 308 313 315 317 317 315 315 313 310 308 304 301 299 303 300 301 300 297 302 297 297 294 302 300 302 305 308 305 304 306 304 304
312 312 312 313 314 313 317 317 320 319 321 314 302 313 313 315 314 313 312 311 310 308 305 303 305 306 299 295 294 302 305 307 307 302 306 305 307 308 309 306 306 306 303 303
311 311 312 313 313 312 316 312 315 313 322 314 304 304 313 314 314 311 309 310 307 306 303 300 301 299 300 297 292 301 303 305 306 307 306 303 306 303 308 309 310 309 307 305
311 311 312 312 312 311 316 320 313 314 319 314 304 305 305 314 307 306 311 306 306 304 301 301 299 299 297 291 297 302 304 305 305 305 306 305 306 306 307 307 307 305 305 306
311 312 313 315 314 318 318 320 318 321 320 310 309 303 301 311 306 307 306 308 300 304 300 300 300 296 286 293 298 302 303 305 302 304 305 306 305 303 305 305 306 304 304 303
312 312 315 314 318 315 318 318 315 317 317 315 308 310 302 308 306 304 303 303 300 296 300 303 297 297 301 303 304 306 306 306 306 300 302 303 304 304 304 305 306 305 304 306
315 317 316 322 318 320 316 310 309 311 307 310 308 308 304 311 302 301 304 300 299 293 297 296 295 295 302 306 306 308 308 308 306 306 306 307 306 304 304 306 308 306 306 306
310 310 318 322 316 312 306 306 309 306 302 309 305 308 309 308 310 303 304 298 298 292 302 296 292 300 305 306 306 306 309 309 308 308 307 307 306 306 305 305 305 306 308 308
321 316 313 310 310 295 300 299 302 303 308 310 309 305 308 309 308 302 301 296 293 302 294 291 295 303 308 307 306 307 309 309 307 307 307 306 308 309 305 303 308 308 305 306
314 309 292 303 302 305 307 307 309 312 311 310 308 307 306 308 303 303 297 299 299 293 291 293 301 305 304 307 307 306 305 306 306 306 307 306 308 306 307 305 306 306 303 303
310 310 298 305 310 313 312 313 312 312 312 310 309 309 308 304 302 303 301 297 293 295 293 298 304 306 306 306 305 304 305 305 303 304 302 303 303 303 303 304 304 306 304 302
310 310 307 312 310 310 311 311 308 311 311 312 311 306 303 301 302 299 297 294 293 297 301 306 309 309 308 306 307 307 306 304 303 302 302 303 302 301 301 302 303 303 303 301
308 308 312 311 312 310 313 316 313 315 309 305 308 302 300 304 298 297 301 298 301 305 307 308 309 310 309 308 307 306 306 304 302 303 302 302 303 303 302 300 302 303 303 302

GFSNW_sfc_thetae_108.txt.gz
Theta_e
317 315 315 314 312 310 309 305 298 310 310 299 295 293 300 303 300 303 302 302 299 297 298 296 295 297 301 307 301 296 297 293 290 295 303 302 300 297 296 292 292 296 298 304
317 315 315 314 311 310 304 301 302 313 306 292 292 299 300 300 299 298 299 300 301 302 297 293 298 301 308 308 300 293 297 290 288 292 295 301 295 298 295 293 293 296 295 303
317 315 315 313 312 311 304 302 300 301 299 297 296 294 295 295 301 300 300 300 299 300 296 297 297 300 304 304 301 315 304 290 291 287 291 296 295 296 297 293 293 299 301 307
317 315 315 314 313 311 305 306 302 299 295 296 294 296 296 296 294 299 298 297 298 296 291 295 296 300 300 301 307 301 297 292 293 297 298 298 298 296 297 297 298 294 304 306
316 315 315 315 313 311 309 303 301 303 297 295 296 295 292 296 296 297 294 296 298 299 294 295 294 296 294 294 298 296 295 293 296 295 299 298 295 297 299 308 308 307 307 306
316 316 316 316 314 310 308 311 308 305 300 299 294 293 295 298 298 299 300 301 297 296 297 300 300 302 299 297 296 295 294 293 292 290 296 294 289 294 294 299 309 309 303 307
316 315 316 316 315 312 306 311 307 303 300 297 296 300 300 298 297 296 298 300 296 298 300 299 297 294 297 296 294 295 292 292 292 290 293 285 294 299 299 302 311 311 310 312
316 315 316 317 316 314 307 311 308 305 299 301 299 300 299 297 295 296 299 300 299 297 295 291 288 288 290 293 295 292 293 290 287 286 288 292 297 300 298 304 305 313 312 313
316 315 316 317 316 314 307 310 311 308 301 298 305 301 301 294 294 294 298 301 300 298 291 289 284 285 289 290 293 292 292 291 289 287 285 285 295 301 305 306 296 313 315 313
316 314 315 316 317 315 308 308 313 308 302 302 302 298 298 300 296 294 296 298 298 296 288 286 284 286 294 285 288 288 286 286 285 285 285 292 299 305 306 292 293 311 315 314
316 314 314 315 316 316 310 308 313 306 302 304 307 306 302 300 297 293 297 297 298 296 290 290 290 288 291 288 292 292 289 283 283 284 283 284 304 304 297 301 305 309 309 306
316 314 315 315 316 316 314 309 314 314 305 303 308 309 310 307 303 299 297 298 297 299 294 293 293 291 292 289 284 293 287 292 290 291 291 299 302 303 305 307 306 306 305 306
315 314 314 314 315 315 313 308 311 309 305 304 305 305 310 311 307 306 298 300 303 300 302 297 296 291 293 286 289 292 295 296 293 294 298 300 301 303 305 306 307 307 307 308
313 313 314 314 314 314 314 307 312 310 307 300 301 312 309 312 313 312 308 304 305 302 300 295 290 292 297 291 293 294 297 297 292 292 296 299 302 302 303 304 305 306 307 306
312 312 313 313 314 313 309 307 312 311 308 299 300 306 307 309 310 309 308 305 303 300 297 295 293 295 294 295 294 290 296 294 291 291 298 297 300 302 304 302 303 303 303 301
311 312 312 312 313 312 311 308 312 310 311 305 296 305 305 307 307 306 305 303 301 300 297 295 296 297 294 290 287 297 299 300 300 298 301 302 302 304 306 301 302 303 302 301
311 311 311 311 311 306 308 306 310 308 312 304 296 298 304 308 305 303 302 302 299 298 295 293 293 293 293 289 284 296 298 302 302 302 300 300 302 299 304 305 306 306 303 301
310 310 311 311 310 310 309 311 310 309 311 305 296 297 300 306 299 298 302 298 298 297 294 294 292 292 290 288 292 295 298 301 301 301 301 300 301 302 303 303 304 303 301 301
311 311 311 310 307 308 309 318 316 310 311 302 299 294 293 303 298 298 299 299 292 296 292 293 293 289 285 288 291 295 298 299 299 300 302 301 299 301 301 302 302 301 301 301
310 310 311 307 310 318 316 311 306 307 308 306 298 300 299 300 297 295 295 294 291 285 292 296 290 289 294 293 295 297 300 301 301 297 295 297 297 300 300 300 302 303 303 303
309 311 307 312 316 311 307 302 301 302 300 300 300 299 298 303 297 294 296 292 291 286 290 290 286 287 294 300 298 300 302 302 302 301 301 302 302 301 300 304 306 306 305 305
304 304 306 310 308 303 300 298 301 297 295 299 297 299 299 299 299 295 295 290 291 287 296 293 283 292 297 301 302 303 302 303 304 304 303 303 304 303 302 301 303 304 306 304
309 308 305 303 302 293 297 294 296 295 300 301 300 297 299 299 297 293 293 290 288 296 290 284 289 293 300 299 300 302 304 304 303 304 305 304 304 305 303 304 304 304 303 304
307 304 292 297 295 299 299 301 304 305 303 302 300 298 298 298 294 295 290 293 293 289 285 289 293 297 301 301 302 301 301 302 301 301 303 304 302 301 303 301 300 301 300 301
305 304 295 299 303 304 308 308 305 301 307 303 300 299 299 296 296 295 294 292 290 291 288 292 297 299 300 300 300 300 300 299 297 297 297 299 299 298 298 299 298 298 301 299
306 304 302 304 303 303 305 306 307 301 302 301 301 297 298 295 295 294 293 292 289 291 294 296 300 301 301 301 300 300 298 297 295 297 297 297 297 296 296 298 299 298 299 299
304 301 304 304 303 304 306 309 307 302 299 295 297 296 295 298 294 293 296 292 294 296 300 303 304 303 302 302 301 299 298 296 296 295 295 295 297 297 296 295 297 297 298 298

GFSNW_sfc_thetae_111.txt.gz
Theta_e
318 316 315 314 312 310 306 299 295 307 308 300 293 292 298 302 297 302 300 300 297 295 296 294 293 294 299 305 300 294 295 291 290 294 300 300 297 295 294 291 290 297 296 302
318 316 315 313 311 310 303 298 297 308 305 294 292 294 298 297 297 297 298 298 299 297 293 291 296 298 304 304 299 293 294 289 288 292 296 297 294 295 292 291 295 295 295 302
318 315 314 313 312 311 304 299 296 299 299 295 293 294 294 293 299 297 298 298 298 295 294 295 293 298 302 302 298 314 302 289 290 287 289 292 292 296 294 291 294 297 301 307
318 315 315 314 312 310 304 303 299 297 294 294 292 293 294 294 293 296 297 297 298 294 291 293 295 298 298 299 306 299 295 289 290 296 296 295 295 295 296 292 295 295 304 306
318 315 315 315 313 310 306 300 299 300 296 294 293 292 290 295 294 294 294 294 296 296 293 294 293 296 294 295 297 295 293 289 292 292 300 296 293 295 297 306 308 306 308 306
318 315 315 315 313 309 306 307 305 302 299 296 292 291 293 297 296 298 299 298 295 294 294 296 298 298 297 295 293 294 293 290 289 286 297 295 290 293 294 305 308 308 303 309
319 316 316 316 315 311 302 307 305 301 296 295 294 297 298 296 296 295 297 298 293 296 297 296 294 292 296 294 293 294 292 290 288 286 291 285 295 300 301 307 309 309 309 312
319 316 316 317 316 314 304 306 305 302 297 300 300 300 297 296 294 295 297 298 297 296 294 290 287 287 289 292 291 291 292 289 286 284 285 292 297 299 297 298 304 312 311 313
318 316 316 316 316 314 305 305 308 306 296 296 302 299 298 293 292 293 296 299 297 295 289 288 282 283 285 288 290 290 290 289 287 284 283 284 294 301 305 304 295 311 314 312
317 316 314 316 317 315 307 306 309 306 297 300 298 297 297 297 294 292 294 297 299 293 286 284 282 284 292 283 286 285 284 285 283 283 283 290 300 304 306 292 292 312 315 313
316 315 314 315 316 316 308 308 310 305 300 300 305 305 300 299 295 292 294 295 296 293 289 289 288 286 289 286 289 288 286 283 282 282 282 283 302 303 296 300 301 309 312 312
316 314 314 315 315 315 312 306 312 310 302 302 305 306 306 305 303 297 294 295 296 297 292 291 291 290 290 287 283 292 286 290 289 288 288 297 300 302 305 307 305 307 306 307
316 314 313 314 314 315 311 306 308 307 302 302 303 303 309 310 307 304 298 298 300 298 299 294 292 289 291 285 288 290 293 294 292 292 296 298 300 302 305 305 305 307 308 308
316 313 313 313 313 314 311 304 307 307 304 297 299 309 306 311 309 309 305 302 301 300 297 291 290 290 293 290 291 290 295 295 290 291 295 297 300 300 303 306 306 307 307 308
315 312 313 313 313 312 307 305 308 308 305 297 298 303 306 304 306 306 305 303 300 297 295 294 292 292 292 292 291 288 293 293 290 290 296 294 296 300 303 305 305 305 305 303
312 311 311 312 312 311 311 305 309 307 309 300 295 301 303 304 305 303 302 301 299 298 295 293 293 295 292 288 286 295 296 298 297 297 299 299 301 302 303 300 301 303 303 305
310 310 310 311 310 307 308 305 309 308 309 300 295 296 302 305 303 301 300 299 297 296 292 292 291 291 292 287 282 295 296 299 300 300 300 298 301 299 302 303 304 304 301 302
310 310 311 310 310 309 309 310 309 308 309 302 295 295 298 303 298 297 299 296 296 294 292 291 290 290 287 282 290 294 296 298 300 300 300 298 299 301 302 302 302 300 299 299
310 311 311 310 308 307 308 317 312 309 308 300 297 294 292 301 296 296 297 295 291 293 290 290 291 288 283 286 289 293 297 298 298 300 300 300 299 299 300 300 300 299 299 299
310 309 309 305 309 317 316 309 304 305 305 303 297 298 295 298 295 293 293 292 289 283 290 294 288 287 292 293 292 294 298 300 299 295 294 295 295 298 298 299 300 300 302 304
308 308 305 309 315 309 305 300 299 299 297 298 298 297 296 299 295 293 294 290 289 284 289 289 284 286 292 298 295 295 297 300 300 299 298 299 299 300 299 300 302 302 302 304
302 302 304 306 305 300 298 296 298 297 295 297 296 297 298 297 297 294 293 289 289 285 293 289 282 290 294 298 299 299 299 301 302 302 301 301 302 302 300 300 301 302 305 306
307 307 303 301 300 292 295 293 295 294 297 299 298 296 297 296 295 292 291 288 287 292 289 284 288 292 296 299 300 301 302 303 303 303 303 303 303 303 301 301 301 302 301 302
305 301 290 295 294 297 297 299 302 303 300 299 297 296 296 295 293 292 289 291 291 287 282 287 291 294 297 300 300 300 301 302 301 300 302 301 301 301 302 301 301 301 300 300
305 302 293 298 301 302 306 307 303 301 302 301 298 297 297 294 294 293 292 291 289 289 287 290 295 297 299 298 298 298 298 297 295 296 297 299 300 299 299 298 298 299 298 298
305 302 299 302 301 301 303 303 303 302 300 300 299 295 294 294 293 292 291 291 289 291 293 295 298 297 298 299 299 299 297 295 294 296 299 298 298 296 295 296 296 297 297 297
302 299 302 302 301 301 302 305 304 300 301 296 296 295 294 295 292 291 294 291 293 297 300 301 303 301 301 302 302 299 296 294 294 294 293 294 295 295 294 293 294 295 296 296

GFSNW_sfc_thetae_114.txt.gz
Theta_e
317 317 315 314 312 310 305 296 296 305 306 298 291 291 296 300 297 303 299 299 296 293 295 292 292 294 297 303 299 292 293 291 289 293 298 298 295 294 292 291 289 294 294 296
318 317 315 313 312 310 304 297 296 306 304 294 291 292 297 295 296 295 297 297 297 296 292 289 294 297 302 303 297 292 293 288 287 291 294 295 292 294 290 290 295 294 292 295
318 317 314 313 312 310 304 299 294 297 296 293 292 293 292 292 299 297 296 297 297 294 293 293 292 295 300 300 298 311 300 289 290 287 288 291 291 294 293 291 291 294 295 304
318 317 314 314 312 310 302 300 296 296 293 294 291 292 292 293 292 296 297 295 296 293 290 292 292 296 295 297 304 296 293 289 291 294 295 295 294 293 294 291 292 294 299 303
318 317 315 314 313 310 304 299 298 298 295 295 290 290 289 293 292 294 293 293 295 294 292 293 291 293 292 292 296 293 291 289 290 292 298 297 293 294 297 305 305 304 305 302
318 318 315 315 314 309 303 304 303 300 296 290 291 289 291 294 295 297 298 296 293 292 292 294 294 296 294 292 293 293 292 292 289 286 293 296 292 292 294 299 308 307 301 305
318 318 315 316 315 311 302 305 304 296 293 293 293 295 295 294 294 295 296 295 291 293 296 294 292 291 293 294 291 293 292 290 290 286 292 286 293 300 308 307 308 309 308 311
317 317 316 316 315 314 302 304 303 299 293 297 298 298 296 295 294 294 295 297 296 294 292 289 286 286 289 291 290 290 292 289 286 285 286 289 296 297 298 299 302 311 310 312
316 316 316 316 315 314 303 304 306 302 295 295 300 297 296 292 290 292 295 298 296 294 288 287 282 281 284 286 289 289 290 289 289 284 283 282 291 301 306 306 292 312 313 311
316 316 315 315 315 315 305 306 306 301 296 299 297 296 295 295 292 291 292 296 298 291 285 283 281 283 291 282 284 283 284 284 283 284 283 289 297 302 304 291 292 311 314 313
315 316 314 314 314 316 308 308 308 303 298 299 303 303 298 297 293 291 293 294 295 292 288 287 286 285 288 284 287 286 285 282 282 282 282 283 300 302 294 297 305 311 313 313
315 316 313 314 314 315 312 306 311 308 302 302 304 305 305 303 301 296 294 294 294 296 291 289 289 289 288 286 283 290 286 288 288 286 286 295 299 300 305 306 307 310 309 308
315 315 313 314 314 314 311 306 306 304 301 302 303 302 308 308 306 302 297 296 299 295 297 292 290 288 289 285 287 289 292 293 291 292 295 297 299 303 306 306 307 309 310 310
314 315 312 313 313 313 311 305 305 306 300 297 299 307 305 307 305 306 302 301 299 297 295 290 289 289 292 288 289 289 293 293 291 291 295 297 300 301 303 306 308 309 310 310
314 313 312 312 313 312 306 304 305 307 303 296 297 301 304 303 304 304 303 301 298 295 295 292 291 290 291 290 290 288 293 292 290 291 296 295 296 300 304 305 306 307 307 306
315 311 311 311 312 311 308 303 307 307 307 299 294 300 301 303 303 302 300 299 297 295 294 291 292 293 291 287 286 293 295 297 296 295 298 298 301 303 303 303 305 306 306 307
310 310 310 311 310 306 306 303 307 307 307 300 294 295 301 304 302 300 298 297 294 295 290 290 290 290 290 287 282 293 297 298 300 301 301 298 301 299 303 303 305 306 304 305
309 310 310 310 310 309 307 308 309 309 306 301 294 294 297 301 297 295 296 295 293 292 290 290 289 289 287 283 290 293 296 298 299 300 299 299 300 301 302 303 303 301 300 301
310 311 311 309 308 306 306 316 311 309 306 298 295 292 291 299 294 295 295 293 290 291 289 289 290 288 281 287 289 292 296 297 298 300 300 300 299 299 301 302 301 300 300 300
310 308 307 304 306 316 314 307 302 303 303 301 297 296 294 297 293 292 292 290 287 283 289 292 288 286 291 292 291 294 297 299 299 296 294 296 296 299 299 300 301 301 301 302
307 306 303 307 313 308 303 299 296 297 296 297 297 296 295 298 294 292 292 288 287 284 287 288 283 285 291 296 295 293 296 299 300 300 298 299 299 299 300 301 303 303 303 303
302 304 305 306 303 299 296 295 296 296 295 295 296 296 296 295 296 293 292 288 288 285 291 289 282 289 293 296 298 296 296 300 302 301 301 301 302 302 301 300 301 303 304 305
306 306 302 300 298 290 294 292 294 293 296 296 296 295 296 294 294 291 290 288 287 292 288 284 288 292 295 296 298 299 298 300 302 303 302 302 303 304 302 301 302 303 303 303
304 301 289 294 292 295 296 296 297 300 298 297 296 294 294 293 292 290 288 290 290 286 282 287 291 293 297 298 301 301 301 302 303 303 303 303 303 303 303 304 303 303 302 302
304 302 293 296 299 300 301 303 302 301 300 298 297 296 295 292 292 292 291 289 288 288 287 290 293 295 296 299 300 300 301 300 298 299 299 301 302 301 299 299 299 300 300 300
304 303 299 300 300 300 301 303 301 301 298 298 297 294 293 293 292 291 290 289 288 291 293 295 299 298 299 298 299 300 299 296 297 296 298 300 299 297 296 297 298 298 298 298
302 299 300 300 300 300 301 303 305 301 299 295 295 294 293 294 291 290 292 291 292 295 298 302 301 302 300 300 301 299 298 297 296 295 295 295 296 296 296 295 296 296 297 297

GFSNW_sfc_thetae_117.txt.gz
Theta_e
317 317 316 314 312 310 308 306 304 311 312 306 301 301 300 299 302 305 304 304 302 300 300 300 300 300 302 307 305 301 303 304 301 301 305 304 304 303 305 301 300 305 305 305
317 317 316 313 312 310 309 307 307 313 311 302 303 301 301 300 300 299 302 302 303 303 300 299 301 302 306 307 303 301 303 300 296 299 302 303 301 302 302 303 309 305 300 304
317 317 316 313 312 311 310 308 303 306 305 301 301 301 298 298 301 301 302 302 303 302 301 303 300 301 304 304 307 309 309 300 300 294 299 301 298 300 301 302 302 304 305 309
317 317 316 313 312 310 310 308 304 303 301 302 300 300 298 298 297 302 303 301 300 301 299 300 300 302 302 303 305 303 304 300 300 300 300 300 299 299 306 301 302 304 308 310
317 316 317 314 313 310 312 308 307 306 304 302 299 297 299 298 298 301 300 299 299 302 299 300 299 301 302 301 304 303 302 299 301 299 301 301 298 300 304 307 307 308 309 311
316 316 317 315 313 311 313 313 311 308 298 299 300 299 299 300 302 302 303 301 301 300 299 301 302 305 303 301 302 302 302 301 299 295 299 300 296 300 302 308 312 312 308 313
316 316 317 315 315 312 310 313 313 305 299 301 299 298 300 299 300 301 301 302 301 302 304 303 301 302 302 301 300 302 301 301 300 296 299 291 300 307 309 309 312 315 315 316
316 316 317 316 315 314 311 313 311 307 301 302 302 301 300 301 302 301 301 303 303 302 302 300 297 298 299 299 299 300 303 302 296 295 293 297 300 302 302 302 302 313 315 317
316 316 317 316 315 314 311 313 314 309 306 302 303 302 302 302 300 302 302 307 307 302 300 298 292 291 293 294 296 299 300 303 299 294 290 288 299 304 309 309 299 315 318 318
316 316 316 315 315 314 313 315 314 310 306 307 305 304 303 303 302 302 302 303 306 303 299 296 294 295 298 296 293 294 296 297 294 294 292 295 302 307 309 297 301 316 320 320
315 315 315 314 314 315 314 316 317 312 308 308 309 308 306 304 304 302 302 303 304 303 299 298 297 298 300 298 298 297 295 295 294 293 291 288 306 308 301 308 313 316 320 321
314 315 316 314 314 315 314 316 317 315 312 310 311 313 312 309 308 306 305 304 304 306 302 301 302 299 300 297 296 299 296 299 299 297 298 304 307 308 314 315 314 318 321 319
314 315 315 313 313 314 313 316 314 314 312 311 312 310 314 315 312 311 307 307 307 306 308 305 303 298 301 298 299 299 300 301 303 301 304 306 307 311 314 314 314 316 320 317
314 315 314 313 313 313 312 314 314 313 310 306 307 313 311 313 313 312 310 309 308 307 306 304 302 300 301 299 299 300 303 302 301 301 304 306 307 309 310 314 316 317 317 316
314 315 312 312 312 312 313 315 314 316 312 305 306 309 311 311 311 311 311 310 309 308 305 305 303 303 302 302 301 300 304 303 302 303 305 306 306 309 310 313 314 316 316 314
314 314 311 311 311 311 317 312 316 316 314 310 303 309 309 311 311 309 308 308 307 307 307 304 303 301 302 300 299 302 304 305 307 307 307 307 307 309 310 310 312 314 316 317
314 310 310 310 310 314 315 309 313 311 317 310 304 305 309 310 310 310 308 307 304 306 303 303 303 302 302 300 298 302 306 307 307 308 309 306 307 307 309 309 310 312 313 313
310 309 310 310 310 311 314 315 311 314 313 311 303 304 305 309 308 306 307 306 305 302 301 301 301 299 299 296 302 302 306 307 307 307 307 308 309 309 309 310 309 308 311 312
309 311 311 315 315 315 314 315 314 319 316 308 306 303 301 308 305 306 305 305 301 301 301 301 301 297 290 299 302 302 305 306 308 308 307 307 307 307 308 308 307 307 308 308
310 313 314 311 313 316 316 314 310 312 312 311 308 306 303 307 304 302 303 302 300 298 299 302 299 298 303 303 302 303 307 308 309 306 303 304 305 306 307 307 308 309 309 309
314 313 310 314 313 315 311 306 304 305 304 308 308 306 304 307 303 302 303 300 299 294 297 298 297 296 301 305 306 304 306 309 309 307 307 307 308 307 307 308 309 310 310 310
309 310 311 314 310 307 304 302 303 303 301 304 304 305 306 305 306 304 301 298 297 291 300 297 294 300 305 305 306 305 306 308 308 309 308 308 308 309 309 309 309 310 311 312
313 312 308 307 304 294 298 296 300 300 304 303 303 303 306 303 305 301 301 296 295 300 296 295 298 304 305 306 307 306 306 308 309 309 310 309 309 310 310 310 310 310 311 312
310 305 293 299 298 300 301 302 304 308 306 305 306 303 304 303 301 301 295 298 298 293 291 293 302 304 305 306 307 307 306 305 307 308 310 309 310 310 309 307 308 308 308 309
308 307 295 300 304 305 307 308 308 309 308 305 304 303 305 302 300 301 298 295 293 295 295 300 303 306 306 306 306 306 307 306 307 309 309 309 309 307 307 307 307 307 308 308
308 307 304 306 305 305 306 307 308 309 306 306 307 302 301 300 301 297 296 294 294 299 303 304 306 306 308 306 305 306 308 308 307 307 307 305 305 304 304 306 307 306 306 306
304 302 308 306 305 305 308 309 310 309 306 304 305 300 299 301 299 297 300 298 303 305 305 307 308 308 305 306 306 306 305 305 305 304 304 303 305 305 305 304 305 305 306 306

GFSNW_sfc_thetae_120.txt.gz
Theta_e
316 317 317 315 312 310 311 316 307 320 322 310 312 305 305 300 307 309 308 308 306 305 305 304 303 303 306 310 310 306 310 307 303 305 310 311 311 308 309 302 303 307 306 308
316 317 316 314 312 310 319 316 312 320 318 306 305 307 304 306 305 306 306 304 307 308 305 303 305 306 309 308 308 308 310 305 300 302 306 308 307 308 309 309 309 305 302 305
316 316 315 314 312 311 316 316 306 313 316 315 308 304 303 302 306 306 307 306 308 306 304 307 305 305 307 308 309 309 308 307 304 299 303 308 304 305 307 307 303 304 306 309
316 316 315 314 312 311 316 318 310 311 306 309 309 308 304 301 300 306 308 306 305 304 302 303 303 306 306 307 309 309 309 304 305 305 304 304 304 304 306 306 307 304 306 309
315 316 315 315 313 311 321 316 315 315 312 307 308 302 304 302 302 304 302 303 305 305 303 304 303 305 307 305 308 307 307 304 305 302 304 304 302 304 307 307 308 309 310 311
315 316 315 316 313 313 320 322 322 316 302 307 306 306 305 304 306 306 307 305 304 302 303 306 308 309 308 308 307 304 305 305 302 299 304 303 300 303 305 308 313 312 309 318
317 316 316 317 314 313 320 321 320 312 305 308 306 305 305 304 305 304 305 306 304 306 309 308 308 309 309 308 309 310 305 305 303 299 303 294 305 310 309 308 312 318 317 319
317 316 316 317 315 314 321 323 319 314 306 307 306 305 306 307 307 305 305 307 308 310 308 302 300 301 303 304 306 308 310 307 301 297 297 301 303 307 307 306 306 312 312 319
316 316 316 316 315 314 320 324 323 317 309 307 308 307 307 306 307 305 306 312 315 310 307 304 294 294 298 297 300 307 306 309 303 301 295 292 304 308 311 311 302 315 318 320
316 316 315 316 315 314 318 324 325 318 311 313 313 309 308 311 309 306 308 309 310 311 304 299 297 297 302 297 296 299 301 302 299 299 296 299 307 310 311 300 305 317 321 323
315 315 315 316 314 315 317 324 326 320 313 313 314 313 311 311 311 304 309 307 309 307 301 300 301 299 304 302 302 300 299 298 297 298 296 293 311 310 304 314 317 317 322 325
315 315 315 316 314 314 315 322 326 325 318 314 319 318 318 316 314 311 313 309 308 309 305 305 308 302 305 302 297 307 299 303 301 300 302 312 314 314 317 320 320 320 323 326
315 315 315 316 314 314 314 325 326 322 316 315 316 313 317 319 318 319 309 314 314 313 316 310 308 301 308 299 300 303 306 308 304 304 308 310 313 316 317 322 322 321 326 326
314 315 315 314 313 313 312 323 325 322 319 311 311 318 314 318 319 318 317 316 317 317 315 308 306 302 308 303 304 305 308 308 306 306 311 311 313 315 316 320 323 323 324 325
314 315 315 313 313 312 318 326 326 326 317 309 310 315 315 316 317 316 317 318 316 312 308 306 305 309 306 308 307 303 309 307 304 303 313 313 314 315 317 317 319 321 322 322
314 315 314 311 312 312 323 317 324 327 324 313 305 315 313 315 315 313 313 317 317 315 310 312 313 309 307 302 301 306 310 312 313 311 315 313 315 316 316 316 318 319 321 322
313 314 310 310 311 321 317 312 318 314 326 313 307 308 314 315 316 317 315 314 314 312 312 309 311 309 306 305 301 305 311 312 313 314 314 311 312 313 315 315 317 317 319 321
312 310 310 311 311 312 317 321 315 319 322 316 307 307 309 316 312 310 316 313 311 310 310 308 306 307 308 303 307 309 312 313 313 313 313 314 315 314 314 315 315 315 316 318
310 310 311 317 319 316 318 314 316 329 321 309 308 304 303 314 313 314 311 313 306 310 305 307 306 305 295 303 307 307 311 311 312 313 312 312 311 311 312 312 312 313 314 315
310 313 317 313 319 315 317 317 315 317 317 316 308 313 305 311 310 309 310 310 307 303 305 309 303 303 308 309 308 308 311 313 314 310 309 310 309 310 310 311 314 314 314 315
317 317 316 319 314 318 316 309 308 310 306 310 310 309 307 315 306 307 311 308 307 299 302 302 303 302 306 308 311 309 312 314 314 313 311 309 309 308 309 309 311 313 313 314
313 316 318 319 315 313 307 304 308 305 301 309 306 308 312 311 316 309 308 304 304 296 306 302 300 307 309 309 310 310 312 313 312 310 309 309 309 310 309 309 309 311 312 314
319 317 312 311 309 296 299 298 301 304 308 310 310 306 310 310 312 309 305 299 299 307 300 300 302 310 311 312 311 310 313 314 311 311 312 312 312 313 312 311 312 312 313 314
313 308 294 301 300 301 303 305 308 311 311 310 310 308 309 311 306 308 299 304 304 297 296 298 306 310 312 313 312 310 309 311 311 312 312 312 313 313 314 315 316 314 313 315
308 309 298 302 306 311 312 314 313 314 314 311 309 309 310 307 304 305 304 298 296 298 300 307 309 314 314 313 312 311 309 309 310 312 313 314 314 314 313 313 314 314 314 313
308 309 306 309 307 306 309 311 311 315 312 313 312 307 304 303 306 301 299 298 297 304 309 312 314 315 316 315 314 313 312 312 313 312 313 314 313 311 310 309 311 311 309 309
304 304 309 310 311 311 314 313 314 317 311 307 308 303 302 308 302 300 305 303 308 313 312 313 317 317 316 313 315 313 310 312 314 313 312 309 309 308 307 307 310 311 311 311